[[{"header":{"parameterUnit":"m.s-1","parameterCategory":1,"la1":30.6,"la2":29.2853,"lo1":-89.7004,"lo2":-87.6739,"dy":0.0162,"dx":0.0183,"nx":112,"ny":82,"refTime":"2024-04-08T18:00:00:Z","depth":0,"parameterNumber":2,"parameterNumberName":"U-component_of_WINDS"},"data":[0.0,0.0,0.0,0.0,0.0,0.0,0.0,0.0,0.0,0.0,0.0,0.0,0.0,0.0,0.0,0.0,0.0,0.0,0.0,0.0,0.0,0.0,0.0,0.0,0.0,0.0,0.0,0.0,0.0,0.0,0.0,0.0,0.0,0.0,0.0,0.0,0.0,0.0,0.0,0.0,0.0,0.0,0.0,0.0,0.0,0.0,0.0,0.0,0.0,0.0,0.0,0.0,0.0,0.0,0.0,0.0,0.0,0.0,0.0,0.0,0.0,0.0,0.0,0.0,0.0,0.0,0.0,0.0,0.0,0.0,0.0,0.0,0.0,0.0,0.0,0.0,0.0,0.0,0.0,0.0,0.0,0.0,0.0,0.0,0.0,0.0,0.0,0.0,0.0,0.0,3.0268,3.3469,3.4816,3.5133,3.4312,3.338,3.1502,2.8329,0.0,0.0,0.0,0.0,0.0,0.0,0.0,0.0,0.0,0.0,0.0,0.0,0.0,0.0,0.0,0.0,0.0,0.0,0.0,0.0,0.0,0.0,0.0,0.0,0.0,0.0,0.0,0.0,0.0,0.0,0.0,0.0,0.0,0.0,0.0,0.0,0.0,0.0,0.0,0.0,0.0,0.0,0.0,0.0,0.0,0.0,0.0,0.0,0.0,0.0,0.0,0.0,0.0,0.0,0.0,0.0,0.0,0.0,0.0,0.0,0.0,0.0,0.0,0.0,0.0,0.0,0.0,0.0,0.0,0.0,0.0,0.0,0.0,0.0,0.0,0.0,0.0,0.0,0.0,0.0,0.0,0.0,0.0,0.0,0.0,0.0,0.0,0.0,0.0,0.0,0.0,0.0,0.0,0.0,0.0,0.0,0.0,0.0,0.0,0.0,0.0,0.0,0.0,0.0,3.2138,3.4906,3.5385,3.5439,3.5279,3.4394,3.2468,2.9281,0.0,0.0,0.0,0.0,0.0,0.0,0.0,0.0,0.0,0.0,0.0,0.0,0.0,0.0,0.0,0.0,0.0,0.0,0.0,0.0,0.0,0.0,0.0,0.0,0.0,0.0,0.0,0.0,0.0,0.0,0.0,0.0,0.0,0.0,0.0,0.0,0.0,0.0,0.0,0.0,0.0,0.0,0.0,0.0,0.0,0.0,0.0,0.0,0.0,0.0,0.0,0.0,0.0,0.0,0.0,0.0,0.0,0.0,0.0,0.0,0.0,0.0,0.0,0.0,0.0,0.0,0.0,0.0,0.0,0.0,0.0,0.0,0.0,0.0,0.0,0.0,0.0,0.0,0.0,0.0,0.0,0.0,0.0,0.0,0.0,0.0,0.0,0.0,0.0,0.0,0.0,0.0,0.0,0.0,0.0,0.0,0.0,0.0,0.0,0.0,0.0,0.0,0.0,3.2048,3.4158,3.537,3.5504,3.5504,3.5504,3.4109,3.2117,2.9471,2.7537,0.0,0.0,0.0,0.0,0.0,0.0,0.0,0.0,0.0,0.0,0.0,0.0,0.0,0.0,0.0,0.0,0.0,0.0,0.0,0.0,0.0,0.0,0.0,0.0,0.0,0.0,0.0,0.0,0.0,0.0,0.0,0.0,0.0,0.0,0.0,0.0,0.0,0.0,0.0,0.0,0.0,0.0,0.0,0.0,0.0,0.0,0.0,0.0,0.0,0.0,0.0,0.0,0.0,0.0,0.0,0.0,0.0,0.0,0.0,0.0,0.0,0.0,0.0,0.0,0.0,0.0,0.0,0.0,0.0,0.0,0.0,0.0,0.0,0.0,0.0,0.0,0.0,0.0,0.0,0.0,0.0,0.0,0.0,0.0,0.0,0.0,0.0,0.0,0.0,0.0,0.0,0.0,0.0,0.0,0.0,0.0,0.0,0.0,0.0,0.0,0.0,0.0,3.3589,3.516,3.5474,3.5504,3.5504,3.5504,3.3905,3.1982,2.9721,2.7868,0.0,0.0,0.0,0.0,0.0,0.0,0.0,0.0,0.0,0.0,0.0,0.0,0.0,0.0,0.0,0.0,0.0,0.0,0.0,0.0,0.0,0.0,0.0,0.0,0.0,0.0,0.0,0.0,0.0,0.0,0.0,0.0,0.0,0.0,0.0,0.0,0.0,0.0,0.0,0.0,0.0,0.0,0.0,0.0,0.0,0.0,0.0,0.0,0.0,0.0,0.0,0.0,0.0,0.0,0.0,0.0,0.0,0.0,0.0,0.0,0.0,0.0,0.0,0.0,0.0,0.0,0.0,0.0,0.0,0.0,0.0,0.0,0.0,0.0,0.0,0.0,0.0,0.0,0.0,0.0,0.0,0.0,0.0,0.0,0.0,0.0,0.0,0.0,0.0,0.0,0.0,0.0,0.0,0.0,0.0,0.0,0.0,0.0,0.0,0.0,0.0,0.0,3.2766,3.4113,3.537,3.5504,3.5504,3.5504,3.4543,3.2881,3.0488,2.8748,0.0,0.0,0.0,0.0,0.0,0.0,0.0,0.0,0.0,0.0,0.0,0.0,0.0,0.0,0.0,0.0,0.0,0.0,0.0,0.0,0.0,0.0,0.0,0.0,0.0,0.0,0.0,0.0,0.0,0.0,0.0,0.0,0.0,0.0,0.0,0.0,0.0,0.0,0.0,0.0,0.0,0.0,0.0,0.0,0.0,0.0,0.0,0.0,0.0,0.0,0.0,0.0,0.0,0.0,0.0,0.0,0.0,0.0,0.0,0.0,0.0,0.0,0.0,0.0,0.0,0.0,0.0,0.0,0.0,0.0,0.0,0.0,0.0,0.0,0.0,0.0,0.0,0.0,0.0,0.0,0.0,0.0,0.0,0.0,0.0,0.0,0.0,0.0,0.0,0.0,0.0,0.0,0.0,0.0,0.0,0.0,0.0,0.0,0.0,0.0,0.0,0.0,3.2856,3.4003,3.4485,3.4041,3.3685,3.3685,3.282,3.1294,2.8963,0.0,0.0,0.0,0.0,0.0,0.0,0.0,0.0,0.0,0.0,0.0,0.0,0.0,0.0,0.0,0.0,0.0,0.0,0.0,0.0,0.0,0.0,0.0,0.0,0.0,0.0,0.0,0.0,0.0,0.0,0.0,0.0,0.0,0.0,0.0,0.0,0.0,0.0,0.0,0.0,0.0,0.0,0.0,0.0,0.0,0.0,0.0,0.0,0.0,0.0,0.0,0.0,0.0,0.0,0.0,0.0,0.0,0.0,0.0,0.0,0.0,0.0,0.0,0.0,0.0,0.0,0.0,0.0,0.0,0.0,0.0,0.0,0.0,0.0,0.0,0.0,0.0,0.0,0.0,0.0,0.0,0.0,0.0,0.0,0.0,0.0,0.0,0.0,0.0,0.0,0.0,0.0,0.0,0.0,0.0,0.0,0.0,0.0,0.0,0.0,0.0,0.0,3.1467,3.2666,3.3671,3.3959,3.3171,3.2593,3.2593,3.1742,3.0334,2.8381,0.0,0.0,0.0,0.0,0.0,0.0,0.0,0.0,0.0,0.0,0.0,0.0,0.0,0.0,0.0,0.0,0.0,0.0,0.0,0.0,0.0,0.0,0.0,0.0,0.0,0.0,0.0,0.0,0.0,0.0,0.0,0.0,0.0,0.0,0.0,0.0,0.0,0.0,0.0,0.0,0.0,0.0,0.0,0.0,0.0,0.0,0.0,0.0,0.0,0.0,0.0,0.0,0.0,0.0,0.0,0.0,0.0,0.0,0.0,0.0,0.0,0.0,0.0,0.0,0.0,0.0,0.0,0.0,0.0,0.0,0.0,0.0,0.0,0.0,0.0,0.0,0.0,0.0,0.0,0.0,0.0,0.0,0.0,0.0,0.0,0.0,0.0,0.0,0.0,0.0,0.0,0.0,0.0,0.0,0.0,0.0,0.0,0.0,0.0,0.0,0.0,0.0,3.1351,3.2131,3.2961,3.3876,3.3101,3.2593,3.2593,3.1742,3.0535,0.0,0.0,0.0,0.0,0.0,0.0,0.0,0.0,0.0,0.0,0.0,0.0,0.0,0.0,0.0,0.0,0.0,0.0,0.0,0.0,0.0,0.0,0.0,0.0,0.0,0.0,0.0,0.0,0.0,0.0,0.0,0.0,0.0,0.0,0.0,0.0,0.0,0.0,0.0,0.0,0.0,0.0,0.0,0.0,0.0,0.0,0.0,0.0,0.0,0.0,0.0,0.0,0.0,0.0,0.0,0.0,0.0,0.0,0.0,0.0,0.0,0.0,0.0,0.0,0.0,0.0,0.0,0.0,0.0,0.0,0.0,0.0,0.0,0.0,0.0,0.0,0.0,0.0,0.0,0.0,0.0,0.0,0.0,0.0,0.0,0.0,0.0,0.0,0.0,0.0,0.0,0.0,0.0,0.0,0.0,0.0,0.0,0.0,0.0,0.0,0.0,0.0,0.0,3.0464,3.1183,3.1742,3.2033,3.1206,3.0633,3.0633,3.0355,2.9382,2.7372,0.0,0.0,0.0,0.0,0.0,0.0,0.0,0.0,0.0,0.0,0.0,0.0,0.0,0.0,0.0,0.0,0.0,0.0,0.0,0.0,0.0,0.0,0.0,0.0,0.0,0.0,0.0,0.0,0.0,0.0,0.0,0.0,0.0,0.0,0.0,0.0,0.0,0.0,0.0,0.0,0.0,0.0,0.0,0.0,0.0,0.0,0.0,0.0,0.0,0.0,0.0,0.0,0.0,0.0,0.0,0.0,0.0,0.0,0.0,0.0,0.0,0.0,0.0,0.0,0.0,0.0,0.0,0.0,0.0,0.0,0.0,0.0,0.0,0.0,0.0,0.0,0.0,0.0,0.0,0.0,0.0,0.0,0.0,0.0,0.0,0.0,0.0,0.0,0.0,0.0,0.0,0.0,0.0,0.0,0.0,0.0,0.0,0.0,0.0,0.0,0.0,0.0,2.9628,3.0234,3.0758,3.118,3.0343,2.9792,2.9792,2.9792,2.9026,2.7231,0.0,0.0,0.0,0.0,0.0,0.0,0.0,0.0,0.0,0.0,0.0,0.0,0.0,0.0,0.0,0.0,0.0,0.0,0.0,0.0,0.0,0.0,0.0,0.0,0.0,0.0,0.0,0.0,0.0,0.0,0.0,0.0,0.0,0.0,0.0,0.0,0.0,0.0,0.0,0.0,0.0,0.0,0.0,0.0,0.0,0.0,0.0,0.0,0.0,0.0,0.0,0.0,0.0,0.0,0.0,0.0,0.0,0.0,0.0,0.0,0.0,0.0,0.0,0.0,0.0,0.0,0.0,0.0,0.0,0.0,0.0,0.0,0.0,0.0,0.0,0.0,0.0,0.0,0.0,0.0,0.0,0.0,0.0,0.0,0.0,0.0,0.0,0.0,0.0,0.0,0.0,0.0,0.0,0.0,0.0,0.0,0.0,0.0,0.0,0.0,0.0,0.0,2.8876,2.9438,3.0139,3.097,3.0279,2.9792,2.9792,2.9792,2.9315,2.8172,0.0,0.0,0.0,0.0,0.0,0.0,0.0,0.0,0.0,0.0,0.0,0.0,0.0,0.0,0.0,0.0,0.0,0.0,0.0,0.0,0.0,0.0,0.0,0.0,0.0,0.0,0.0,0.0,0.0,0.0,0.0,0.0,0.0,0.0,0.0,0.0,0.0,0.0,0.0,0.0,0.0,0.0,0.0,0.0,0.0,0.0,0.0,0.0,0.0,0.0,0.0,0.0,0.0,0.0,0.0,0.0,0.0,0.0,0.0,0.0,2.9232,2.7816,0.0,0.0,0.0,0.0,0.0,0.0,0.0,0.0,0.0,0.0,0.0,0.0,0.0,0.0,0.0,0.0,0.0,0.0,0.0,0.0,0.0,0.0,0.0,0.0,0.0,0.0,0.0,0.0,0.0,0.0,0.0,0.0,0.0,0.0,0.0,0.0,0.0,0.0,0.0,0.0,2.7855,2.9031,2.9869,3.0075,2.9934,2.9792,2.9792,2.9792,2.9315,2.8172,2.7883,0.0,0.0,0.0,0.0,0.0,0.0,0.0,0.0,0.0,0.0,0.0,0.0,0.0,0.0,0.0,0.0,0.0,0.0,0.0,0.0,0.0,0.0,0.0,0.0,0.0,0.0,0.0,0.0,0.0,0.0,0.0,0.0,0.0,0.0,0.0,0.0,0.0,0.0,0.0,0.0,0.0,0.0,0.0,0.0,0.0,0.0,0.0,0.0,0.0,0.0,0.0,0.0,0.0,0.0,0.0,0.0,0.0,0.0,0.0,2.9278,2.8843,0.0,0.0,0.0,0.0,0.0,0.0,0.0,0.0,0.0,0.0,0.0,0.0,0.0,0.0,0.0,0.0,0.0,0.0,0.0,0.0,0.0,0.0,0.0,0.0,0.0,0.0,0.0,0.0,0.0,0.0,0.0,0.0,0.0,0.0,0.0,0.0,0.0,0.0,0.0,0.0,2.7095,2.868,2.9792,2.9792,2.9792,2.9792,2.9792,2.9792,2.9541,2.895,2.8411,0.0,0.0,0.0,0.0,0.0,0.0,0.0,0.0,0.0,0.0,0.0,0.0,0.0,0.0,0.0,0.0,0.0,0.0,0.0,0.0,0.0,0.0,0.0,0.0,0.0,0.0,0.0,0.0,0.0,0.0,0.0,0.0,0.0,0.0,0.0,0.0,0.0,0.0,0.0,0.0,0.0,0.0,0.0,0.0,0.0,0.0,0.0,0.0,0.0,0.0,0.0,0.0,0.0,2.889,2.8852,2.8865,2.8046,2.7717,2.7743,2.9262,3.0009,3.0119,2.9211,0.0,0.0,0.0,0.0,0.0,0.0,0.0,0.0,0.0,0.0,0.0,0.0,0.0,0.0,0.0,0.0,0.0,0.0,0.0,0.0,0.0,0.0,2.6935,2.8491,2.8252,2.7904,2.8745,0.0,0.0,0.0,0.0,0.0,0.0,0.0,0.0,0.0,0.0,0.0,2.6589,2.8411,2.9792,2.9792,2.9792,2.9792,2.9792,2.9792,2.9792,2.9792,2.8913,2.831,0.0,0.0,0.0,0.0,0.0,0.0,0.0,0.0,0.0,0.0,0.0,0.0,0.0,0.0,0.0,0.0,0.0,0.0,0.0,0.0,0.0,0.0,0.0,0.0,0.0,0.0,0.0,0.0,0.0,0.0,0.0,0.0,3.0975,3.2044,0.0,0.0,0.0,0.0,0.0,0.0,0.0,0.0,0.0,0.0,0.0,0.0,0.0,2.8628,2.8628,2.8972,2.9157,2.9171,2.9507,2.9631,2.9631,2.8562,2.8059,2.7933,2.6352,0.0,2.8435,2.8282,0.0,0.0,0.0,0.0,0.0,0.0,0.0,0.0,0.0,0.0,0.0,0.0,0.0,0.0,0.0,0.0,0.0,0.0,0.0,0.0,0.0,0.0,2.9378,2.9606,2.8809,2.8366,2.9428,2.8237,2.7289,2.8296,2.7714,2.6992,0.0,0.0,0.0,0.0,0.0,0.0,2.6533,2.8411,2.9792,2.9792,2.9792,2.9792,2.9792,2.9792,2.9792,2.9792,2.9654,2.9126,2.8147,2.9051,0.0,0.0,0.0,0.0,0.0,0.0,0.0,0.0,0.0,0.0,0.0,0.0,0.0,0.0,0.0,0.0,0.0,0.0,0.0,0.0,0.0,0.0,0.0,0.0,0.0,0.0,0.0,0.0,0.0,3.0716,3.1636,3.1875,3.1351,3.0447,0.0,0.0,0.0,0.0,0.0,0.0,0.0,0.0,0.0,2.7755,2.7948,2.8051,2.8051,2.8412,2.8265,2.7704,2.7926,2.7726,2.7186,2.6683,2.6436,2.6413,2.543,2.5707,2.6801,2.6429,2.5995,2.5455,0.0,0.0,0.0,0.0,2.2554,2.2568,2.2568,2.3198,2.4169,2.4646,0.0,0.0,0.0,0.0,0.0,0.0,0.0,2.4729,2.5401,2.6235,2.7148,2.7817,2.8011,2.8273,2.8748,2.8205,2.7756,2.8278,2.7443,2.6504,2.5863,2.6039,0.0,0.0,0.0,2.7381,2.7381,2.88,2.9792,2.9792,2.9792,2.9792,2.9792,2.9792,2.9792,2.9792,2.9792,2.9578,2.9076,2.9528,2.9026,0.0,0.0,0.0,0.0,0.0,0.0,0.0,0.0,0.0,0.0,0.0,0.0,0.0,0.0,0.0,0.0,0.0,0.0,0.0,0.0,0.0,0.0,0.0,0.0,0.0,0.0,0.0,0.0,3.0936,3.1794,3.1495,3.1375,3.0761,0.0,0.0,0.0,0.0,0.0,0.0,2.8408,2.7635,2.7223,2.7283,2.7591,2.7725,2.7725,2.7729,2.7311,2.659,2.6375,2.5854,2.5171,2.4937,2.477,2.477,2.4467,2.4516,2.481,2.4957,2.4924,2.4774,2.4769,2.3996,2.2799,2.2767,2.2767,2.2755,2.2755,2.3452,2.4406,2.4727,2.479,2.4781,2.4437,0.0,0.0,0.0,0.0,2.374,2.4548,2.5015,2.5474,2.6304,2.7128,2.7683,2.7683,2.7686,2.789,2.8412,2.7645,2.6615,2.5799,2.6339,0.0,2.541,2.6879,2.8109,2.8109,2.9101,2.9792,2.9792,2.9792,2.9792,2.9792,2.9792,2.9792,2.9792,2.9792,2.9792,2.9792,2.9792,2.9402,2.8549,0.0,0.0,0.0,0.0,0.0,0.0,0.0,0.0,0.0,0.0,0.0,0.0,0.0,0.0,0.0,0.0,0.0,0.0,0.0,0.0,0.0,0.0,0.0,0.0,0.0,0.0,0.0,0.0,0.0,3.1465,3.2602,0.0,0.0,0.0,0.0,2.9579,2.8761,2.8406,2.8746,2.8009,2.7699,2.8041,2.8056,2.8082,2.8082,2.7126,2.6677,2.6602,2.5701,2.5249,2.5171,2.4061,2.3572,2.3503,2.2503,2.206,2.2264,2.4718,2.5387,2.4798,2.4785,2.3642,2.1955,2.1922,2.1924,2.1971,2.1971,2.2532,2.3317,2.447,2.4772,2.457,2.3477,2.3158,0.0,0.0,2.3873,2.4759,2.4815,2.5608,2.6416,2.6461,2.6565,2.6554,2.6554,2.6595,2.7188,2.9337,2.88,2.8009,2.7946,0.0,2.7645,2.6553,2.7369,2.8109,2.8109,2.9101,2.9792,2.9792,2.9792,2.9792,2.9792,2.9792,2.9792,2.9792,2.9792,2.9792,2.9792,2.9792,2.9767,2.9716,2.7645,0.0,0.0,0.0,0.0,0.0,0.0,0.0,0.0,0.0,0.0,0.0,0.0,0.0,0.0,0.0,0.0,0.0,0.0,0.0,0.0,0.0,0.0,0.0,0.0,0.0,0.0,0.0,0.0,3.1347,3.1554,0.0,3.0911,3.0026,2.923,2.8779,2.8228,2.7981,2.8076,2.7351,2.6972,2.703,2.6451,2.6081,2.6081,2.509,2.4254,2.3643,2.3286,2.2839,2.2242,2.1784,2.1628,2.1628,2.1263,2.1201,2.1556,2.2483,2.289,2.2935,2.2941,2.2513,2.1928,2.1919,2.1927,2.1885,2.1885,2.2256,2.2859,2.3461,2.3665,2.3594,2.3185,2.3083,2.3083,2.3083,2.34,2.3739,2.3739,2.3975,2.4307,2.4307,2.4882,2.5378,2.5378,2.5946,2.6714,2.7475,2.7916,2.8109,2.8109,2.8712,2.8812,2.7695,2.8473,2.9189,2.9189,2.9541,2.9792,2.9792,2.9792,2.9792,2.9792,2.9792,2.9792,2.9792,2.9792,2.9792,2.9792,2.9792,2.9792,2.9792,2.8994,2.7865,0.0,0.0,0.0,0.0,0.0,0.0,0.0,0.0,0.0,0.0,0.0,0.0,0.0,0.0,0.0,0.0,0.0,0.0,0.0,0.0,0.0,0.0,0.0,0.0,0.0,2.8353,3.0133,3.0791,3.0866,3.0851,3.0851,2.9681,2.8958,2.8958,2.817,2.767,2.767,2.6905,2.6314,2.6013,2.537,2.4862,2.4492,2.3514,2.2627,2.2027,2.1669,2.1231,2.0566,2.0566,2.0322,1.9941,2.0381,2.0488,2.0391,2.083,2.0931,2.0967,2.1603,2.1885,2.1885,2.1885,2.1885,2.1885,2.1885,2.207,2.2344,2.2627,2.2715,2.2715,2.2715,2.2715,2.2715,2.2715,2.2715,2.2754,2.2891,2.293,2.2959,2.3105,2.3714,2.4211,2.4211,2.4892,2.5579,2.5909,2.6827,2.7448,2.716,2.7782,2.7968,2.7261,2.7792,2.835,2.8662,2.9001,2.9227,2.9227,2.9566,2.9792,2.9792,2.9453,2.939,2.9767,2.944,2.9402,2.9779,2.9428,2.9062,2.8808,2.8133,2.6788,2.4602,0.0,0.0,0.0,0.0,0.0,0.0,0.0,0.0,0.0,0.0,0.0,0.0,0.0,0.0,0.0,0.0,0.0,0.0,0.0,0.0,0.0,0.0,0.0,2.5704,2.8457,3.0268,2.9699,3.0761,3.1482,3.1482,3.0777,3.0254,3.024,2.8593,2.7644,2.7617,2.6803,2.5901,2.4909,2.4838,2.4399,2.3374,2.2456,2.1952,2.1962,2.1001,2.0566,2.0566,2.0566,1.9883,1.876,2.0019,1.9853,1.8789,2.0049,1.9923,1.9197,2.1087,2.1846,2.1846,2.1846,2.1846,2.1846,2.1826,2.1846,2.1865,2.1885,2.1885,2.1885,2.1885,2.1885,2.1885,2.1885,2.1885,2.1982,2.2383,2.249,2.2598,2.2998,2.3096,2.3105,2.3115,2.3264,2.3706,2.4619,2.563,2.6181,2.5385,2.5216,2.5272,2.523,2.523,0.0,2.6414,2.7423,2.8074,2.8086,2.9025,2.9677,2.9702,2.8675,2.8512,2.9639,2.8687,2.8649,2.9741,2.8737,2.7681,2.6824,2.4881,2.3793,2.3492,0.0,0.0,0.0,0.0,0.0,0.0,0.0,0.0,0.0,0.0,0.0,0.0,0.0,0.0,0.0,0.0,0.0,0.0,0.0,0.0,0.0,2.5779,2.7784,2.7784,2.8966,3.0118,3.0911,3.1315,3.1482,3.1482,3.0208,2.9198,2.8811,2.7154,2.6047,2.5599,2.423,2.3306,2.2967,2.2047,2.1352,2.1027,2.0961,2.1011,2.1011,2.0712,2.0566,2.0566,2.0566,2.0371,2.0059,2.041,2.0361,1.9983,1.9625,1.9283,1.9143,2.0426,2.0521,1.9864,2.068,2.0928,2.0889,2.0566,2.0879,2.1465,2.1787,2.1885,2.1885,2.1885,2.1885,2.1885,2.1885,2.1885,2.1914,2.2031,2.206,2.209,2.2207,2.2227,2.2314,2.2617,2.2745,2.2894,2.3441,2.38,2.448,2.588,2.6161,2.6141,2.6098,2.6143,2.6222,2.647,2.6792,2.7273,2.7993,2.7673,2.771,2.8536,2.7565,2.7408,2.8536,2.824,2.8619,2.9779,2.8733,2.7589,2.6634,2.4612,2.3545,0.0,0.0,0.0,0.0,0.0,0.0,0.0,0.0,0.0,0.0,0.0,0.0,0.0,0.0,0.0,0.0,0.0,0.0,0.0,0.0,0.0,0.0,2.6542,2.8786,2.9325,2.9983,3.0567,3.1046,3.0789,3.0498,3.0233,2.8731,2.7672,2.7319,2.6013,2.5146,2.4845,2.3891,2.2726,2.1386,2.1107,2.0312,1.8967,1.9667,2.0117,2.0293,2.0293,2.0391,2.0566,2.0566,2.0264,1.9785,1.986,1.962,1.9023,1.8504,1.798,1.7738,0.0,0.0,0.0,0.0,2.0566,2.0527,2.0273,2.0527,2.0996,2.125,2.1338,2.1338,2.1338,2.1084,2.0791,2.0791,2.0537,2.0391,2.0918,2.1064,2.1201,2.1758,2.1885,2.1953,2.2197,2.1953,2.1924,2.2725,2.2588,0.0,2.4798,2.4828,2.4598,2.4592,2.4607,2.4675,2.5071,2.5507,2.6005,2.6632,2.6595,2.6746,2.7394,2.6445,0.0,0.0,0.0,2.7711,2.8378,2.6971,0.0,0.0,0.0,2.25,2.2808,2.2208,0.0,0.0,2.3029,2.2428,0.0,0.0,0.0,0.0,0.0,0.0,0.0,0.0,0.0,0.0,0.0,0.0,0.0,0.0,0.0,0.0,2.756,2.9152,3.0231,3.0914,3.1019,3.0335,2.9666,2.9016,2.8325,2.6941,2.6043,2.5964,2.5204,2.4695,2.4632,2.4456,0.0,0.0,0.0,2.0253,1.7458,1.8643,1.9473,1.9844,1.9893,2.0117,2.0498,2.0547,1.9941,1.8844,1.897,1.8285,1.724,1.7175,1.6601,1.6108,1.806,1.8957,1.9265,2.0139,2.0488,2.0557,2.0459,0.0,0.0,2.0566,2.0566,2.0566,2.0566,2.0039,1.9434,1.9434,1.8887,1.8555,1.9697,1.999,2.0283,2.1455,2.1738,2.1758,2.1807,2.1191,2.0996,2.2207,2.1865,2.1738,2.2871,2.249,2.2076,2.2035,2.2056,2.2276,2.3005,2.3984,2.4678,2.4757,2.5602,0.0,2.6295,2.5234,2.517,2.6416,2.6616,2.6588,2.6282,2.4609,2.3113,2.2076,2.131,2.124,2.2031,2.2031,2.2412,2.3105,2.2767,2.2352,0.0,0.0,0.0,0.0,0.0,0.0,0.0,0.0,0.0,0.0,0.0,0.0,0.0,0.0,0.0,2.7964,2.9205,3.0041,2.9667,2.9829,2.9659,2.8895,2.8697,2.8297,2.7577,2.664,2.5871,2.5428,2.4615,2.3954,2.3428,2.2196,2.0872,1.9497,1.9393,1.8733,1.7383,1.8643,1.9326,1.9414,1.9756,0.0,2.0049,2.041,2.043,2.0205,1.934,1.8831,1.8476,1.6758,1.6437,1.7009,1.7496,1.8709,2.0236,1.971,1.9971,2.0469,1.9775,1.998,2.0566,2.0566,2.0566,2.0566,2.0566,2.0449,0.0,2.0312,2.0195,2.0127,2.0381,2.0439,2.0508,2.0762,2.082,2.0918,2.1279,2.123,2.1279,2.1885,2.2148,2.2344,2.2588,2.2783,2.2832,2.2827,2.2883,2.2883,2.3043,2.3278,2.3795,2.4682,2.4185,2.4154,2.5062,2.4111,2.4298,2.6333,2.7347,2.6978,2.5182,2.4776,2.4031,2.2893,2.2722,2.2725,2.2891,2.2891,2.2978,2.3135,2.3054,2.2985,0.0,0.0,0.0,0.0,0.0,0.0,0.0,0.0,0.0,0.0,0.0,2.5218,2.4476,0.0,2.7039,2.6909,2.7817,2.8356,2.7968,2.8277,2.8378,2.8018,2.7598,2.7131,2.6424,2.5302,2.449,2.4193,2.3783,2.3439,2.309,2.2347,2.0982,1.8986,1.9387,1.8751,1.6792,1.8008,1.875,1.8965,1.9394,1.9707,1.9932,2.0361,2.0566,2.0566,1.9441,1.9036,1.8877,1.7172,1.7172,1.8149,1.8149,1.9116,2.0508,1.9535,1.9803,2.0498,2.0078,2.0205,2.0566,2.0566,2.0566,2.0566,2.0566,2.0264,1.9922,1.9922,1.9619,1.9385,1.9814,1.9922,2.0039,2.0459,2.0566,2.0625,2.085,2.0898,2.1035,2.1475,2.1904,2.2266,2.248,2.2861,2.3135,2.3135,2.3135,2.3135,2.3135,2.3135,2.3299,2.3877,2.3408,2.3317,2.3932,2.3969,2.4719,2.6367,2.6449,2.5942,2.4872,2.4211,2.3714,2.3135,2.3135,2.3135,2.3135,2.3135,2.3135,2.3135,2.3135,2.3135,0.0,0.0,0.0,0.0,0.0,0.0,0.0,2.5039,2.4938,2.389,2.4468,2.5036,2.4395,2.5265,2.6039,2.5841,2.616,2.6422,2.6226,2.6708,2.704,2.6916,2.647,2.588,2.5048,2.3813,2.3078,2.3078,2.3078,2.3078,2.3078,2.3078,2.1823,1.9101,2.0014,1.9264,1.6517,1.748,1.8184,1.8525,1.8955,1.9385,1.9805,2.0244,2.0478,2.0566,1.9441,1.8877,1.8638,1.7658,1.798,1.8957,1.8798,1.9432,2.0489,1.9599,1.9844,2.0566,2.0566,2.0566,2.0566,2.0566,2.0566,2.0566,2.0566,2.0088,1.9541,1.9541,1.9043,1.8662,1.9355,1.9541,1.9707,2.04,2.0566,2.0586,2.0674,2.0693,2.083,2.1279,2.1709,2.2119,2.2451,2.2861,2.3135,2.3135,2.3135,2.3135,2.3135,2.3135,2.3135,2.3135,2.3135,2.3222,2.3387,2.4296,2.521,2.6141,2.5294,2.4702,2.4457,2.3551,2.3135,2.3135,2.3299,2.3299,2.3135,2.3299,2.3299,2.3135,2.3135,2.3135,2.4179,2.2119,2.1086,2.1333,2.3117,2.4602,0.0,2.6002,2.7925,2.6051,2.7189,2.8457,2.8395,2.8074,2.7875,2.7894,2.7079,2.6155,2.5453,2.5486,2.5383,2.4731,2.5172,2.4962,2.3484,2.3185,2.3078,2.3078,2.3078,2.3078,2.3078,2.3078,2.2286,2.0407,2.0501,1.9673,1.7793,1.7939,1.8037,1.8086,1.8506,1.8936,1.9375,1.9795,2.0195,2.0566,1.9441,1.839,1.7504,1.7342,1.798,1.8877,1.7908,1.8789,2.0566,2.0489,2.0489,2.0566,2.0566,2.0566,2.0566,2.0566,2.0566,2.0566,2.0566,2.0498,2.042,2.042,2.0352,2.0303,2.04,2.042,2.0449,2.0547,2.0566,2.0674,2.1074,2.1162,2.1289,2.1728,2.2148,2.2461,2.251,2.2861,2.3135,2.3135,2.3135,2.3135,2.3135,2.3135,2.3135,2.3135,2.3135,2.3551,2.4542,2.4702,2.4872,2.4957,2.4872,2.4382,2.3299,2.3135,2.3135,2.3135,2.4125,2.4135,2.3135,2.4125,2.4125,2.3135,2.3135,2.3135,2.3825,2.3599,2.384,2.3986,2.5619,2.685,2.5962,2.7046,2.7902,2.6543,2.7338,2.8117,2.7604,2.6964,2.6385,2.6258,2.4997,2.4013,2.4012,2.4424,2.4452,2.3708,2.3437,2.3071,2.2434,2.2781,2.2736,2.1769,2.2585,2.3078,2.3078,2.3078,2.231,2.0655,2.059,1.9748,1.8008,1.8008,1.8008,1.8018,1.8437,1.8867,1.9307,1.9727,2.0156,2.0566,2.0167,1.9678,1.9195,1.9195,1.952,1.9844,1.9432,1.9756,2.0489,1.9923,2.0079,2.0566,2.0566,2.0566,2.0566,2.0566,2.0566,2.0566,2.0566,2.0566,2.0566,2.0566,2.0566,2.0566,2.0566,2.0566,2.0635,2.0889,2.0957,2.1074,2.1514,2.1611,2.167,2.1846,2.2227,2.251,2.251,2.2861,2.3135,2.3135,2.3135,2.3135,2.3135,2.3135,2.3387,2.4049,2.4723,2.5546,2.6603,2.6685,2.6685,2.6685,2.6685,2.5942,2.4125,2.4723,2.4808,2.4125,2.4542,2.4542,2.4125,2.3877,2.3551,2.3135,2.3135,2.3135,2.3152,2.3876,2.4668,2.5561,2.6735,2.7578,2.7433,2.7351,2.7229,2.6589,2.6973,2.7111,2.6375,2.5621,2.4965,2.4596,2.3433,2.2654,2.3025,2.3767,2.3832,2.2569,2.2068,2.1385,2.0223,2.1508,2.2146,2.1405,2.246,2.3078,2.3078,2.3078,2.2433,2.0974,2.0974,2.0139,1.8405,1.8327,1.8269,1.8018,1.832,1.8691,1.9121,1.9668,2.0156,2.0566,2.0566,2.0566,2.0566,2.0566,2.0566,2.0566,2.0566,2.0566,2.0489,1.9766,1.9923,2.0566,2.0566,2.0566,2.0566,2.0566,2.0566,2.0566,2.0566,2.0566,2.0566,2.0566,2.0566,2.0596,2.0713,2.0752,2.0859,2.1309,2.1416,2.1533,2.1963,2.206,2.209,2.2207,2.248,2.2685,2.2685,2.2939,2.3135,2.3135,2.3387,2.3551,2.3551,2.38,2.4382,2.521,2.5975,2.6964,2.8016,2.7844,2.7763,2.8084,2.7844,2.6942,2.5378,2.6058,2.6141,2.5294,2.5535,2.5535,2.5294,2.4467,2.3887,2.3551,2.3222,2.3135,2.115,2.0404,2.0001,2.3236,2.4092,2.4545,2.6156,2.6521,2.6521,2.6533,2.6521,2.6357,2.5724,2.5146,2.4671,2.4104,2.3489,2.3088,2.3125,2.3767,2.3446,2.1037,2.1394,2.0237,1.6283,1.8868,2.138,2.2877,2.3053,2.3078,2.3078,2.3078,2.2689,2.1877,2.1877,2.1037,1.9309,1.9243,1.8854,1.8008,1.8018,1.8252,1.8682,1.9531,2.0156,2.0566,2.0566,2.0566,2.0566,2.0566,2.0566,2.0566,2.0566,2.0566,2.0566,2.0566,2.0566,2.0566,2.0566,2.0566,2.0566,2.0566,2.0566,2.0566,2.0566,2.0566,2.0566,2.0566,2.0566,2.0664,2.1103,2.1211,2.1328,2.1768,2.1865,2.1982,2.2402,2.249,2.2617,2.3018,2.3105,2.3125,2.3125,2.3135,2.3135,2.3135,2.4049,2.4787,2.4787,2.5714,2.6389,2.6472,2.6472,2.6964,2.8016,2.7128,2.6964,2.8004,2.7116,2.6554,2.6472,2.6472,2.6472,2.6472,2.7441,2.7522,2.6472,2.6389,2.5808,2.4702,2.3637,2.3135,2.1301,2.2154,2.3376,2.4536,2.5218,2.5787,2.6395,2.6533,2.6533,2.6533,2.5904,2.5064,2.4129,2.289,2.2269,2.2937,2.1253,2.0787,2.3502,2.202,2.125,2.2877,2.1589,2.0982,2.2028,2.1263,2.0439,1.9899,2.1895,2.3078,2.3078,2.3078,2.2763,2.1939,2.1877,2.1365,2.0204,2.0139,2.0009,1.9759,1.9723,2.0156,2.0872,2.0521,2.0795,2.1517,2.0857,2.0566,2.0566,2.0566,2.0934,2.1441,2.0867,2.1385,2.2339,2.1088,2.1011,2.1441,2.0789,2.0566,2.0566,2.0566,2.0566,2.0566,2.0566,2.0566,2.0566,2.0566,2.0781,2.1045,2.1191,2.1445,2.1777,2.2197,2.2305,2.2412,2.2832,2.293,2.2969,2.3105,2.3135,2.3299,2.4135,2.4211,2.4467,2.5221,2.5052,2.5041,2.5797,2.6871,2.7522,2.7522,2.8211,2.887,2.9197,2.887,2.887,2.9197,2.887,2.8371,2.7602,2.8291,2.8371,2.7602,2.7936,2.7924,2.7533,2.6119,2.521,2.4787,2.3637,2.3135,2.2895,2.4325,2.5837,2.6425,2.6956,2.7284,2.6973,2.6905,2.685,2.6589,2.593,2.4873,2.3148,2.1949,2.1432,2.2207,2.0729,2.0718,2.4209,2.2904,2.2101,2.3636,2.238,2.1978,2.3487,2.2307,2.09,1.9577,2.1205,2.2246,2.2246,2.2246,2.2288,2.2298,2.2322,2.1939,2.1037,2.1037,2.1001,2.0859,2.0891,2.1359,2.2338,2.1681,2.1638,2.1923,2.1751,2.1419,2.1077,2.147,2.1962,2.2478,2.1897,2.2414,2.3368,2.2124,2.2038,2.2403,2.1451,2.1078,2.1155,2.1527,2.1375,2.1155,2.1527,2.1375,2.1185,2.1799,2.2144,2.2285,2.2312,2.2533,2.2855,2.3203,2.3303,2.3458,2.4159,2.4307,2.4307,2.4307,2.4307,2.4553,2.5294,2.5378,2.5797,2.6871,2.6449,2.6284,2.6953,2.8028,2.8688,2.8688,2.9365,2.9792,2.9792,2.9792,2.9792,2.9792,2.9792,2.9456,2.8767,2.9443,2.9456,2.8688,2.8688,2.8688,2.8688,2.686,2.5942,2.5942,2.4798,2.4307,2.5532,2.6581,2.7111,2.8685,2.9002,2.8812,2.7986,2.7736,2.7458,2.6612,2.6332,2.5426,2.2573,2.1983,2.1886,2.168,2.1608,2.2387,2.4874,2.5788,2.542,2.3189,2.3583,2.3165,2.0969,2.2156,2.2746,2.1961,2.1301,2.0898,2.0898,2.0844,2.1506,2.3027,2.3078,2.275,2.1939,2.1975,2.1846,2.1529,2.1508,2.2094,2.3021,2.2973,2.2585,2.2112,2.3111,2.2916,2.2065,2.3061,2.3514,2.3588,2.3514,2.3588,2.3661,2.3514,2.3514,2.3441,2.2478,2.2103,2.2253,2.322,2.285,2.2264,2.3243,2.2883,2.2466,2.3927,2.4385,2.4392,2.4292,2.4291,2.4428,2.4777,2.4872,2.521,2.6307,2.6483,2.6483,2.6483,2.6565,2.6554,2.6554,2.6648,2.7046,2.8016,2.8176,2.8176,2.8176,2.9106,2.9792,2.9792,2.9792,2.9792,2.9792,2.9792,2.9792,2.9792,2.9792,2.9792,2.9792,2.9792,2.9792,2.9792,2.9792,2.9792,2.9792,2.8688,2.8096,2.8084,2.6964,2.6483,2.5898,2.7538,2.9397,2.9883,2.9504,2.8939,2.8748,2.8182,2.7301,2.5811,2.4352,2.239,1.9245,1.7952,1.7922,1.9641,1.8896,1.9273,2.2697,2.2692,2.2639,2.3279,2.3987,2.4802,2.5671,2.564,2.4969,2.3555,2.3393,2.3406,2.3406,2.2789,2.2698,2.3065,2.3078,2.3005,2.2823,2.3245,2.3392,2.3338,2.3459,2.4026,2.4915,2.3812,2.3629,2.419,2.3704,2.338,2.3095,2.3414,2.3963,2.4552,2.3818,2.4397,2.5569,2.4024,2.3963,2.4564,2.4337,2.3745,2.3147,2.3452,2.3294,2.3213,2.3877,2.3913,2.3862,2.4756,2.5161,2.5408,2.5425,2.5687,2.5903,2.6025,2.6058,2.6141,2.6472,2.6483,2.6483,2.6483,2.7128,2.7683,2.7683,2.8371,2.904,2.9365,2.9365,2.9365,2.9365,2.9624,2.9792,2.9792,2.9792,2.9792,2.9792,2.9792,2.9792,2.9792,2.9792,2.9792,2.9792,2.9792,2.9792,2.9792,2.9792,2.9792,2.9792,2.8688,2.8096,2.8084,2.6964,2.6483,2.8174,2.9474,3.0837,3.0837,3.045,2.9783,2.8524,2.7861,2.6917,2.4721,2.3197,2.1525,1.8911,1.7505,1.753,2.0055,1.9447,1.9767,2.2932,2.2904,2.2951,2.3856,2.434,2.5405,2.743,2.7255,2.6579,2.5638,2.4423,2.3663,2.3663,2.2965,2.3036,2.4079,2.3471,2.3263,2.3514,2.3841,2.423,2.4707,2.4767,2.5241,2.5988,2.5214,2.4813,2.4925,2.4861,2.4508,2.413,2.4578,2.5134,2.5581,2.5063,2.5499,2.6383,2.5205,2.5134,2.5664,2.5664,2.5444,2.5146,2.4909,2.4693,2.4622,2.5366,2.5464,2.5506,2.6512,2.6954,2.7136,2.6885,2.699,2.7197,2.7197,2.7197,2.7371,2.7879,2.7971,2.7971,2.7971,2.845,2.8858,2.8858,2.9365,2.9792,2.9792,2.9792,2.9792,2.9792,2.9792,2.9792,2.9792,2.9792,2.9792,2.9792,2.9792,2.9792,2.9792,2.9792,2.9792,2.9792,2.9792,2.9792,2.9792,2.9792,2.9792,2.9792,2.9197,2.8858,2.8858,2.8211,2.7971,3.0844,3.1387,3.1482,3.1482,3.1482,3.0832,2.839,2.7576,2.6517,2.3868,2.2643,2.1637,2.012,1.8943,1.8973,2.147,2.1365,2.162,2.3407,2.4209,2.4492,2.4268,2.4418,2.5405,2.743,2.7335,2.729,2.7595,2.509,2.3456,2.3371,2.2668,2.323,2.5356,2.4171,2.3768,2.4277,2.4491,2.4976,2.5785,2.5861,2.6097,2.6533,2.6533,2.5937,2.5096,2.605,2.5912,2.5109,2.6063,2.6533,2.6533,2.6533,2.6533,2.6533,2.6609,2.6634,2.6647,2.6722,2.6992,2.7306,2.6753,2.6399,2.6311,2.7242,2.7213,2.7206,2.8637,2.9038,2.8911,2.8476,2.8347,2.8347,2.8347,2.8347,2.8597,2.9624,2.9792,2.9792,2.9792,2.9792,2.9792,2.9792,2.9792,2.9792,2.9792,2.9792,2.9792,2.9792,2.9792,2.9792,2.9792,2.9792,2.9792,2.9792,2.9792,2.9792,2.9792,2.9792,2.9792,2.9792,2.9792,2.9792,2.9792,2.9792,2.9792,2.9792,2.9792,2.9792,2.9792,2.9792,2.9792,3.0315,3.0676,3.1482,3.1482,3.1482,3.1377,3.0904,2.8951,2.6748,2.4905,2.2602,2.0756,2.0212,1.9558,1.953,2.0871,2.1026,2.0469,1.9032,2.2157,2.3985,2.2398,2.364,2.5405,2.743,2.6093,2.5809,2.744,2.708,2.652,2.5902,2.5199,2.4957,2.5384,2.5654,2.5898,2.5949,2.6991,2.722,2.6686,2.7092,2.7059,2.6533,2.6533,2.642,2.6189,2.6445,2.642,2.6189,2.6445,2.6533,2.6533,2.6533,2.6533,2.6584,2.6967,2.7143,2.7205,2.7657,2.7883,2.7871,2.7318,2.7435,2.7815,2.8424,2.855,2.8662,2.9401,2.9641,2.9576,2.9509,2.9534,2.9534,2.9534,2.9534,2.9546,2.9792,2.9792,2.9792,2.9792,2.9792,2.9792,2.9792,2.9792,2.9792,2.9792,2.9792,2.9792,2.9792,2.9792,2.9792,2.9792,2.9792,2.9792,2.9792,2.9792,2.9792,2.9792,2.9792,2.9792,2.9792,2.9792,2.9792,2.9792,2.9792,2.9792,2.9792,2.9792,2.9792,2.9792,2.9792,2.9792,3.0982,3.1513,3.261,3.261,3.2312,3.15,2.9434,2.7649,2.559,2.2731,2.0852,1.9752,1.9897,1.9165,1.9401,2.1903,2.2059,2.1727,2.1298,2.3199,2.4238,2.334,2.4014,2.5001,2.5959,2.5181,2.5016,2.5974,2.6033,2.6336,2.7041,2.6759,2.6215,2.5398,2.6441,2.6905,2.6823,2.7709,2.8133,2.8008,2.8228,2.8182,2.7802,2.7802,2.7537,2.7162,2.7604,2.7144,2.6218,2.685,2.6999,2.6841,2.7442,2.7588,2.7584,2.8234,2.844,2.8421,2.8142,2.8651,2.9194,2.8369,2.8323,2.8586,2.885,2.9139,2.944,2.9716,2.9792,2.9792,2.9792,2.9792,2.9792,2.9792,2.9792,2.9792,2.9792,2.9792,2.9792,2.9792,2.9792,2.9792,2.9792,2.9792,2.9792,2.9792,2.9792,2.9792,2.9792,2.9792,2.9792,2.9792,2.9792,2.9792,2.9792,2.9792,2.9792,2.9792,2.9792,2.9792,2.9792,2.9792,2.9792,2.9792,2.9792,2.9792,2.9792,2.9792,2.9792,2.9792,2.9792,2.9792,3.2305,3.285,3.3582,3.3582,3.3182,3.1904,2.8419,2.6688,2.4836,2.1394,1.9908,1.9457,2.0324,1.9662,2.0147,2.3618,2.3132,2.2844,2.4402,2.4277,2.4309,2.4893,2.4865,2.4957,2.5379,2.5152,2.5047,2.5226,2.5255,2.5929,2.7535,2.7625,2.7144,2.6089,2.7317,2.795,2.7919,2.8598,2.9026,2.9254,2.9254,2.9192,2.9002,2.9002,2.862,2.8051,2.8684,2.7958,2.6347,2.7628,2.7917,2.7536,2.8716,2.916,2.9078,2.976,2.9974,2.9931,2.9307,2.9862,3.0738,2.9947,2.9452,2.9114,2.9114,2.9428,2.9792,2.9792,2.9792,2.9792,2.9792,2.9792,2.9792,2.9792,2.9792,2.9792,2.9792,2.9792,2.9792,2.9792,2.9792,2.9792,2.9792,3.0011,3.0075,3.0075,3.0075,3.0075,3.0075,3.0075,2.9998,2.9792,2.9792,2.9792,2.9792,2.9792,2.9792,2.9792,2.9792,2.9792,2.9792,2.9792,2.9792,2.9792,2.9792,2.9792,2.9792,2.9792,2.9792,2.9792,2.9792,2.9792,3.397,3.3989,3.3582,3.3582,3.3531,3.3048,3.1341,2.8667,2.6041,2.4302,2.1923,2.0747,2.2624,2.2727,2.3296,2.5672,2.3242,2.1895,2.4261,2.3324,2.3367,2.5919,2.5748,2.6127,2.7952,2.6977,2.6518,2.7255,2.7305,2.743,2.761,2.7625,2.7808,2.8263,2.9024,2.9665,3.0164,3.0847,3.0837,3.0208,3.0208,2.9766,2.9002,2.9002,2.8939,2.8876,2.9002,2.8567,2.792,2.9256,2.943,2.8961,3.0284,3.0782,3.0851,3.1392,3.1626,3.1626,3.2036,3.2256,3.2382,3.2311,3.1114,2.9716,2.9716,2.9754,2.9792,2.9792,2.9792,2.9792,2.9792,2.9792,2.9792,2.9792,2.9792,2.9792,2.9792,2.9792,2.9792,2.9792,2.9792,2.9792,2.9792,3.0482,3.1031,3.1031,3.1031,3.1031,3.1031,3.1031,3.0758,2.9856,2.9792,2.9792,2.9792,2.9792,2.9792,2.9792,2.9792,2.9792,2.9792,2.9792,2.9792,2.9792,2.9792,2.9792,2.9792,2.9792,2.9792,2.9792,2.9792,2.9792,3.2663,3.3656,3.48,3.48,3.4496,3.3403,3.0239,2.8206,2.6265,2.3565,2.1774,2.111,2.2359,2.2147,2.2346,2.4021,2.3092,2.3255,2.639,2.6284,2.6788,2.9239,2.8933,2.837,2.7942,2.6999,2.6518,2.6867,2.6366,2.6868,2.866,2.8378,2.8308,2.8592,2.9594,3.0253,3.0507,3.118,3.1351,3.1029,3.1029,3.0837,3.0524,3.0524,3.047,3.0353,3.0892,2.9978,2.8375,3.048,3.0544,2.9551,3.1575,3.2307,3.2326,3.2936,3.3149,3.3055,3.2722,3.2961,3.338,3.282,3.2105,3.1476,3.1476,3.1476,3.1476,3.1476,3.1476,3.1476,3.1476,3.1476,3.1476,3.1476,3.1476,3.1476,3.1476,3.1476,3.1476,3.1476,3.1476,3.1476,3.1476,3.1829,3.2033,3.2033,3.2033,3.2033,3.2033,3.2033,3.1888,3.1549,3.0983,3.0419,2.9869,3.0355,3.0419,2.9869,3.0355,3.0419,2.9792,3.0343,3.0343,2.9792,3.0343,3.0343,2.9792,2.9792,2.9792,2.9792,2.9792,2.9792,3.2423,3.3977,3.5827,3.5827,3.5037,3.3267,2.9665,2.8024,2.6387,2.3268,2.2232,2.2005,2.2539,2.2151,2.2231,2.3823,2.3742,2.4571,2.7705,2.7826,2.8446,3.088,3.0535,2.9826,2.9062,2.8359,2.7985,2.8208,2.7474,2.7937,3.0,2.9929,2.9605,2.916,3.0043,3.0612,3.0806,3.1228,3.1482,3.1482,3.1482,3.1377,3.124,3.1644,3.1634,3.136,3.2362,3.159,2.9697,3.1941,3.206,3.0944,3.304,3.3886,3.3879,3.4316,3.4461,3.4327,3.3685,3.3891,3.4312,3.3685,3.3463,3.3463,3.3463,3.3031,3.2593,3.2593,3.2593,3.2593,3.2593,3.2593,3.2593,3.2593,3.2593,3.2593,3.2593,3.2593,3.2593,3.2593,3.2593,3.2593,3.2593,3.282,3.3031,3.3031,3.3031,3.3031,3.3031,3.3031,3.289,3.2593,3.2249,3.1683,3.0709,3.1254,3.1328,3.0633,3.1267,3.1328,3.0633,3.1254,3.1328,3.0633,3.1267,3.1254,3.0633,3.0355,3.0216,3.0216,3.0098,3.0118,3.4288,3.55,3.6374,3.6374,3.4898,3.2848,3.0598,2.8594,2.6564,2.4348,2.3902,2.3852,2.3902,2.3591,2.4103,2.6302,2.5439,2.527,2.7485,2.6656,2.6895,2.9779,2.9593,3.0062,3.2248,3.1927,3.1771,3.2385,3.1864,3.155,3.1582,3.2191,3.1903,3.0533,3.0492,3.0836,3.1452,3.1482,3.1482,3.1482,3.1482,3.118,3.0567,3.1898,3.2153,3.1556,3.2916,3.311,3.2587,3.3918,3.4068,3.3589,3.4966,3.5504,3.5504,3.5504,3.5504,3.5504,3.5439,3.5504,3.5504,3.5439,3.5439,3.5439,3.5439,3.4124,3.2593,3.2593,3.2593,3.2593,3.2593,3.2593,3.2593,3.2593,3.2593,3.2593,3.2593,3.2593,3.2593,3.2593,3.2593,3.2593,3.2593,3.338,3.4027,3.4027,3.4027,3.4027,3.4027,3.4027,3.3602,3.2678,3.3449,3.3602,3.2664,3.2593,3.2593,3.2593,3.2593,3.2593,3.2593,3.2593,3.2593,3.2593,3.2593,3.2593,3.2593,3.1683,3.118,3.1193,3.0777,3.0884,3.1429,3.2563,3.3614,3.3614,3.2951,3.1737,2.9454,2.8252,2.7196,2.578,2.5073,2.4868,2.5398,2.4711,2.4784,2.6891,2.6597,2.7455,3.1336,3.155,3.2036,3.4174,3.3498,3.2882,3.31,3.1575,3.1283,3.3017,3.117,3.0822,3.2782,3.2708,3.2392,3.1934,3.1944,3.2057,3.2272,3.1739,3.1482,3.1482,3.1988,3.1599,3.0567,3.2362,3.2826,3.2273,3.3589,3.3784,3.329,3.4622,3.4517,3.3619,3.4981,3.5504,3.5504,3.5504,3.5504,3.5504,3.5504,3.5504,3.5504,3.5504,3.5504,3.5504,3.5504,3.5067,3.4558,3.4558,3.4558,3.4558,3.4558,3.4558,3.4558,3.4558,3.4558,3.4558,3.4558,3.4558,3.4558,3.4558,3.4558,3.4558,3.4558,3.4839,3.5052,3.5052,3.5052,3.5052,3.5052,3.5052,3.492,3.4624,3.4839,3.4341,3.2749,3.3171,3.331,3.2664,3.3171,3.3241,3.2593,3.3241,3.3241,3.2593,3.3241,3.3241,3.2593,3.2321,3.2382,3.2791,3.2471,3.2514,3.0424,3.1564,3.2598,3.2598,3.1876,3.0732,2.9022,2.8221,2.7572,2.6615,2.6784,2.7011,2.6877,2.6496,2.6455,2.7115,2.7975,2.9254,3.1364,3.2115,3.2839,3.3907,3.3945,3.4048,3.4482,3.3107,3.2763,3.4134,3.2622,3.2407,3.4193,3.3933,3.3727,3.3727,3.322,3.2986,3.2986,3.2516,3.2435,3.2696,3.3111,3.2752,3.1794,3.3499,3.3774,3.2961,3.4292,3.4637,0.0,3.516,3.5011,3.4337,3.5175,3.5504,3.5504,3.5504,3.5504,3.5504,3.5504,3.5504,3.5504,3.5504,3.5504,3.5504,3.5504,3.5504,3.5504,3.5504,3.5504,3.5504,3.5504,3.5504,3.5504,3.5504,3.5504,3.5504,3.5504,3.5504,3.5504,3.5504,3.5504,3.5504,3.5504,3.5504,3.5504,3.5504,3.5504,3.5504,3.5504,3.5504,3.5504,3.5504,3.5504,3.5001,3.3822,3.4259,3.4327,3.3754,3.4259,3.4327,3.3685,3.4259,3.4259,3.3685,3.4259,3.4375,3.4041,3.396,3.4038,3.4284,3.4,3.4176,0.0,3.2019,3.2811,3.2811,3.138,2.9814,2.9101,2.8411,0.0,2.7218,2.8845,2.9894,2.8379,2.8838,2.893,2.737,2.9574,3.0808,2.879,2.971,3.0477,3.0264,3.1952,3.3908,3.5983,3.5925,3.5694,3.565,3.5667,3.5667,3.5622,3.5622,3.5622,3.5622,3.4399,3.3735,3.3684,3.3633,3.3902,3.4563,3.4707,3.4387,3.3652,3.5031,3.494,3.3743,3.5033,3.5554,3.5554,3.5554,3.5569,3.5504,3.5504,3.5504,3.5504,3.5504,3.5504,3.5504,3.5504,3.5504,3.5504,3.5504,3.5504,3.5504,3.5504,3.5504,3.5504,3.5504,3.5504,3.5504,3.5504,3.5504,3.5504,3.5504,3.5504,3.5504,3.5504,3.5504,3.5504,3.5504,3.5504,3.5504,3.5504,3.5504,3.5504,3.5504,3.5504,3.5504,3.5504,3.5504,3.5504,3.5504,3.5504,3.5504,3.5504,3.5504,3.5504,3.5504,3.5504,3.5504,3.5504,3.5504,3.5504,3.5504,3.5549,3.5893,3.6552,3.6277,3.5982,3.5572,3.5551,3.5856,2.9475,0.0,2.9972,2.9972,2.9391,2.8748,0.0,2.8217,0.0,0.0,0.0,3.0646,3.0268,3.1066,3.1392,3.0143,3.1284,3.2338,3.2447,3.3497,3.3342,3.0879,3.3897,3.5641,3.4319,3.5773,3.6643,3.6249,3.6224,3.6011,3.5622,3.5622,3.5622,3.5622,3.5316,3.4894,3.4382,3.3836,3.3406,3.3035,3.4686,3.4553,3.293,3.531,3.5939,3.5315,3.6026,3.6337,3.6337,3.6337,3.6006,3.5504,3.5504,3.5504,3.5504,3.5504,3.5504,3.5504,3.5504,3.5504,3.5504,3.5504,3.5504,3.5504,3.5504,3.5504,3.5504,3.5504,3.5504,3.5504,3.5504,3.5504,3.5504,3.5504,3.5504,3.5504,3.5504,3.5504,3.5504,3.5504,3.5504,3.5504,3.5504,3.5504,3.5504,3.5504,3.5504,3.5504,3.5504,3.5504,3.5504,3.5504,3.5504,3.5504,3.5504,3.5504,3.5504,3.5504,3.5504,3.5504,3.5504,3.5504,3.5504,3.5504,3.5998,3.6567,3.7195,3.7615,3.7775,3.7723,3.7368,3.7291,2.9181,2.9089,2.9177,2.9934,2.9369,2.8882,2.9591,0.0,0.0,0.0,0.0,0.0,3.1297,3.1708,3.1898,3.1396,3.2038,3.3018,3.4192,3.4254,3.3528,3.1792,3.3127,3.412,3.3888,3.5864,3.7076,3.6803,3.6764,3.6522,3.5985,3.5985,3.5854,3.5622,3.5622,3.5424,3.5052,3.5051,3.4692,3.3954,3.6138,3.6266,3.4524,3.6662,3.7301,3.6726,3.6327,3.6519,3.7097,3.6409,3.6313,3.6554,3.6554,3.6554,3.6554,3.6554,3.6554,3.6492,3.6117,3.5782,3.5504,3.5504,3.5504,3.5504,3.5504,3.5504,3.5504,3.5504,3.5504,3.5504,3.5504,3.5504,3.5504,3.5504,3.5504,3.5504,3.5504,3.5504,3.5504,3.5504,3.5504,3.5504,3.5504,3.5504,3.5504,3.5504,3.5504,3.5504,3.5504,3.5504,3.5504,3.5504,3.5504,3.5504,3.5504,3.5504,3.5504,3.5504,3.5504,3.5639,3.5953,3.5953,3.6088,3.6372,3.703,3.7524,3.7853,3.8542,3.8856,3.8871,3.862,3.8546,2.9454,2.927,2.9499,3.1023,3.0191,2.9439,3.1017,0.0,0.0,0.0,0.0,0.0,0.0,3.2437,3.2482,3.1949,3.2572,3.3603,3.4969,3.4271,3.3434,3.2937,3.2438,3.2751,3.4442,3.6324,3.7414,3.7323,3.7285,3.7058,3.6539,3.6457,3.6182,3.5739,3.565,3.5673,3.5791,3.6451,3.6451,3.5825,3.7973,3.827,3.6918,3.8249,3.8635,3.8084,3.6725,3.6814,3.7882,3.6637,3.679,3.7822,3.7822,3.7822,3.7822,3.7822,3.7822,3.769,3.7024,3.6337,3.5861,3.5861,3.5861,3.5861,3.5861,3.5797,3.5668,3.5668,3.5554,3.5504,3.5504,3.5504,3.5504,3.5504,3.5504,3.5504,3.5504,3.5504,3.5504,3.5504,3.5504,3.5504,3.5504,3.5504,3.5504,3.5504,3.5504,3.5549,3.5639,3.5654,3.5684,3.5789,3.5789,3.5789,3.5789,3.5789,3.5789,3.5789,3.5714,3.5953,3.6596,3.6626,3.6926,3.7539,3.8108,3.8437,3.8542,3.9125,3.9424,3.9424,3.9424,3.9424,2.9643,2.9625,2.9888,3.1083,3.0191,2.9439,3.1017,0.0,0.0,0.0,0.0,0.0,0.0,3.6311,3.6983,3.2807,3.4034,3.5581,3.5885,3.7234,3.718,3.4447,3.6694,3.7827,3.6161,3.7509,3.8267,3.7843,3.779,3.7578,3.7097,3.6661,3.6333,3.6266,3.5827,3.5943,3.6586,3.6721,3.6721,3.662,3.8227,3.855,3.773,3.8546,3.9209,3.9731,3.8801,3.8548,3.8728,3.8515,3.8163,3.7822,3.7822,3.7822,3.7822,3.7822,3.7822,3.7748,3.7632,3.7515,3.7472,3.7472,3.7472,3.7472,3.7472,3.698,3.6446,3.6446,3.6006,3.5504,3.5504,3.5504,3.5504,3.5504,3.5504,3.5504,3.5504,3.5504,3.5504,3.5504,3.5504,3.5504,3.5504,3.5504,3.5504,3.5504,3.5504,3.5714,3.6267,3.6342,3.6537,3.706,3.712,3.712,3.712,3.712,3.712,3.712,3.6626,3.6611,3.724,3.727,3.7569,3.8227,3.8347,3.8676,3.926,3.9364,3.9424,3.9424,3.9424,3.9424,2.9861,2.978,3.0245,3.2596,3.1281,3.0292,3.3732,0.0,0.0,0.0,0.0,0.0,0.0,3.5147,3.5452,3.4982,3.7743,3.9804,3.941,3.9425,3.8917,3.7435,3.8219,3.8248,3.6719,3.8251,3.9085,3.8368,3.8332,3.8117,3.7614,3.7342,3.7079,3.6843,3.6688,3.6987,3.7785,3.7942,3.7584,3.6806,3.8684,3.8988,3.7956,3.9059,3.9731,4.002,3.8841,3.8823,3.9492,3.8706,3.8633,3.9049,3.9049,3.9049,3.9049,3.9049,3.8761,3.8414,3.8414,3.8133,3.7822,3.7822,3.7822,3.7822,3.7822,3.7515,3.7279,3.7279,3.6415,3.5504,3.5504,3.5504,3.5504,3.5504,3.5504,3.5504,3.5504,3.5504,3.5504,3.5504,3.5504,3.5504,3.5504,3.5504,3.5624,3.5983,3.6028,3.6267,3.6896,3.6985,3.709,3.7375,3.7404,3.7404,3.7404,3.7404,3.7404,3.7404,3.7479,3.7644,3.7928,3.8302,3.8631,3.8931,3.8945,3.9095,3.9424,3.9424,3.9424,3.9424,3.9424,3.9424,3.0089,2.9988,3.0566,3.3543,0.0,3.1015,3.6058,0.0,0.0,0.0,0.0,0.0,3.5016,3.4314,3.4355,3.7737,4.0905,4.2932,4.2917,4.1794,4.0975,4.0975,3.9865,3.888,3.8271,3.9235,3.9643,3.9038,3.8817,3.8515,3.8099,3.798,3.781,3.7664,3.7545,3.7932,3.8849,3.8938,3.8514,3.7567,3.9259,3.9495,3.8447,3.9563,4.007,4.002,3.8903,3.9056,3.9986,3.887,3.9073,4.007,4.007,4.007,4.007,4.007,3.9714,3.9193,3.9193,3.8816,3.8318,3.8318,3.8318,3.8318,3.8318,3.8206,3.8035,3.8035,3.7055,3.6022,3.6022,3.6022,3.5958,3.5782,3.5782,3.5733,3.5569,3.5504,3.5504,3.5504,3.5504,3.5549,3.5714,3.5729,3.5953,3.6611,3.6701,3.6926,3.7554,3.7644,3.7704,3.7853,3.7883,3.7883,3.7883,3.7883,3.7883,3.7883,3.8347,3.8631,3.8631,3.914,3.9424,3.9424,3.9424,3.9424,3.9424,3.9424,3.9424,3.9424,3.9424,3.9424,3.0367,3.0355,3.0777,3.2583,0.0,0.0,3.6058,0.0,0.0,0.0,0.0,0.0,3.6993,3.6802,3.7482,4.0902,4.1728,4.2708,4.5031,4.4976,4.4712,4.4712,4.3389,4.2425,4.2369,4.088,3.9863,3.9808,3.9129,3.8658,3.8627,3.8183,3.8236,3.8923,3.7993,3.8235,3.969,3.9242,3.9276,3.9834,4.0003,4.002,3.9935,4.002,4.007,4.007,3.9969,3.9986,4.007,3.9969,3.9986,4.007,4.007,4.007,4.007,4.007,4.007,4.002,4.002,3.9969,3.9952,3.9952,3.9952,3.9952,3.9952,3.9437,3.8799,3.8799,3.8246,3.7648,3.7648,3.7648,3.7472,3.6676,3.6492,3.6322,3.5668,3.5504,3.5504,3.5504,3.5504,3.5699,3.6312,3.6417,3.6626,3.724,3.7345,3.7584,3.8227,3.8317,3.8571,3.9215,3.9275,3.9275,3.9275,3.9275,3.9275,3.9275,3.932,3.9349,3.9349,3.9394,3.9424,3.9424,3.9424,3.9424,3.9424,3.9424,3.9424,3.9424,3.9424,3.9424,3.0398,3.0398,3.1052,3.3833,0.0,0.0,0.0,0.0,0.0,0.0,3.632,0.0,3.5239,3.7444,3.9662,4.1508,4.3124,4.4489,4.5451,4.5495,4.5419,4.5419,4.4725,4.3932,4.3179,4.2257,4.1206,3.9987,3.9625,3.9441,3.9441,3.9228,3.9528,4.0331,4.0053,4.0063,4.0305,4.0577,4.0538,4.007,4.007,4.007,4.007,4.007,4.007,4.007,4.007,4.007,4.007,4.007,4.007,4.007,4.007,4.007,4.007,4.007,4.007,4.007,4.007,4.007,4.007,4.007,4.007,4.007,4.007,3.9901,3.9662,3.9662,3.9454,3.8995,3.8035,3.7822,3.769,3.7397,3.7338,3.7279,3.7011,3.6951,3.7076,3.7559,3.7621,3.784,3.8576,3.8701,3.8873,3.9562,3.9671,3.9841,4.0544,4.0622,4.0531,4.0209,3.9737,3.9424,3.9424,3.9424,3.9424,3.9424,3.9424,3.9424,3.9424,3.9424,3.9424,3.9424,3.9424,3.9424,3.9424,3.9424,3.9424,3.9424,3.9424,3.9424,3.0398,3.0398,3.109,3.3968,0.0,0.0,0.0,0.0,0.0,0.0,3.7353,3.5468,3.6084,3.8546,4.0873,4.2027,4.3662,4.4989,4.5528,4.5586,4.5586,4.5586,4.5302,4.4737,4.38,4.3156,4.2192,4.0758,4.0414,4.0286,4.0286,4.0286,4.0653,4.146,4.1451,4.1366,4.1238,4.1629,4.142,4.0642,4.0642,4.0466,4.007,4.007,4.007,4.007,4.007,4.007,4.007,4.007,4.007,4.007,4.007,4.007,4.007,4.007,4.007,4.007,4.007,4.007,4.007,4.007,4.007,4.007,4.007,4.007,4.007,4.007,4.007,3.985,3.8778,3.8557,3.843,3.8206,3.8149,3.8092,3.7863,3.7982,3.827,3.8809,3.9065,3.9494,4.02,4.0328,4.0569,4.1228,4.134,4.1453,4.1933,4.1997,4.1674,4.0811,4.0447,4.013,3.9864,3.9793,3.9793,3.9793,3.9793,3.9666,3.9409,3.9424,3.9424,3.9424,3.9424,3.9424,3.9424,3.9424,3.9424,3.9424,3.9424,3.9424,3.0417,3.0398,3.0814,3.2487,3.166,0.0,0.0,0.0,0.0,3.7296,3.9315,4.0469,4.0469,4.0489,4.1085,4.2816,4.3104,4.3701,4.5355,4.5586,4.5586,4.5586,4.5302,4.4966,4.465,4.3512,4.2674,4.232,4.157,4.1111,4.113,4.113,4.1497,4.2286,4.1742,4.1845,4.2693,4.2121,4.181,4.181,4.181,4.1196,4.0121,4.0121,4.0121,4.007,4.007,4.007,4.007,4.007,4.007,4.007,4.007,4.007,4.007,4.007,4.007,4.007,4.007,4.007,4.007,4.007,4.007,4.007,4.007,4.007,4.007,4.007,4.007,4.007,4.007,4.007,3.9901,3.9086,3.8908,3.869,3.7994,3.8424,3.8905,3.8905,3.9526,4.0232,4.0892,4.102,4.126,4.1949,4.1997,4.1997,4.1997,4.1997,4.1674,4.0826,4.1478,4.1658,4.0826,4.0675,4.0675,4.0675,4.0675,4.0309,3.9424,3.9424,3.9424,3.9424,3.9424,3.9424,3.9424,3.9424,3.9424,3.9424,3.9424,3.9424,3.1833,3.1314,0.0,3.2487,3.2526,0.0,0.0,0.0,0.0,0.0,3.8392,3.8738,3.8738,4.07,4.2489,4.3028,4.4085,4.5028,4.5528,4.5586,4.5586,4.5586,4.5513,4.5322,4.4966,4.4626,4.3912,4.2723,4.2433,4.2186,4.1937,4.1937,4.2304,4.3112,4.2955,4.2832,4.2693,4.2884,4.26,4.181,4.2203,4.181,4.0655,4.0655,4.0449,4.007,4.007,4.007,4.007,4.007,4.007,4.007,4.007,4.007,4.007,4.007,4.007,4.007,4.007,4.007,4.007,4.007,4.007,4.007,4.007,4.007,4.007,4.007,4.007,4.007,4.007,4.007,4.002,3.9782,3.9714,3.9813,4.0121,4.0334,4.08,4.1872,4.2255,4.2639,4.3406,4.3539,4.3606,4.3823,4.3798,4.3798,4.3798,4.329,4.2847,4.2583,4.2189,4.1933,4.1674,4.1593,4.1593,4.1593,4.1593,4.0961,3.9481,3.999,4.006,3.9409,3.9424,3.9424,3.9424,3.9424,3.9424,3.9424,3.9424,3.9424,3.2622,3.216,0.0,3.4334,3.3891,3.3083,3.3776,0.0,0.0,0.0,3.8988,3.9104,3.945,4.1489,4.3201,4.3528,4.4701,4.5586,4.5586,4.5586,4.5586,4.5586,4.5586,4.5476,4.5118,4.5096,4.4645,4.3577,4.3388,4.3199,4.2973,4.2846,4.3002,4.3461,4.3497,4.3321,4.3014,4.3339,4.316,4.2483,4.2828,4.2541,4.1621,4.1358,4.1105,4.0767,4.0497,4.0286,4.007,4.007,4.007,4.007,4.007,4.007,4.007,4.007,4.007,4.007,4.007,4.007,4.007,4.007,4.007,4.007,4.007,4.007,4.007,4.007,4.007,4.007,4.007,4.0307,4.0527,4.0527,4.0527,4.073,4.1474,4.188,4.2354,4.325,4.3673,4.4028,4.4502,4.4587,4.4587,4.4587,4.4587,4.4587,4.4587,4.4138,4.368,4.3306,4.3169,4.2892,4.252,4.252,4.252,4.252,4.252,4.1869,4.0516,4.0961,4.0961,4.0447,4.0447,4.0447,4.0447,4.0447,4.0255,3.9935,3.9935,3.9737,3.3103,0.0,0.0,3.6873,3.5334,0.0,3.5507,3.5853,3.6642,3.9835,4.0373,4.0585,4.1604,4.2508,4.3355,4.4162,4.5028,4.5586,4.5586,4.5586,4.5586,4.5586,4.5586,4.5495,4.518,4.5159,4.5007,4.4657,4.4261,4.4028,4.3998,4.366,4.3497,4.3497,4.3497,4.3497,4.3497,4.3497,4.3497,4.3497,4.3497,4.325,4.2732,4.2162,4.1853,4.1768,4.1178,4.0672,4.0254,4.0221,4.0204,4.0254,4.0204,4.0154,4.0171,4.0121,4.007,4.007,4.007,4.007,4.007,4.007,4.007,4.007,4.007,4.007,4.007,4.007,4.007,4.0104,4.0155,4.0696,4.1238,4.1373,4.1356,4.1508,4.2236,4.2929,4.3436,4.3521,4.4096,4.4587,4.4587,4.4587,4.4587,4.4587,4.4587,4.4587,4.4587,4.4587,4.4327,4.3486,4.4138,4.4253,4.3502,4.3443,4.3443,4.3443,4.3443,4.3047,4.2252,4.2189,4.2062,4.1997,4.1997,4.1997,4.1997,4.1997,4.1543,4.069,4.069,4.0239,3.462,3.4005,0.0,0.0,3.4526,3.4949,3.8604,3.8411,3.8046,4.0065,3.945,3.9219,4.1412,4.2508,4.3355,4.4162,4.5028,4.5586,4.5586,4.5586,4.5586,4.5586,4.5586,4.5568,4.5495,4.5495,4.5342,4.503,4.4682,4.4318,4.4016,4.366,4.3497,4.3497,4.3497,4.3497,4.3497,4.3497,4.3497,4.3497,4.3497,4.3444,4.3286,4.277,4.2262,4.1768,4.1213,4.1168,4.142,4.092,4.1013,4.1375,4.092,4.075,4.0703,4.0254,4.007,4.007,4.007,4.007,4.007,4.007,4.007,4.007,4.007,4.007,4.007,4.007,4.007,4.0206,4.0798,4.1085,4.1491,4.2658,4.2489,4.2269,4.3014,4.3301,4.3606,4.4215,4.4468,4.4587,4.4587,4.4587,4.4587,4.4587,4.4587,4.4587,4.4587,4.4587,4.4514,4.4327,4.4514,4.4514,4.4327,4.4327,4.4327,4.4327,4.4327,4.4253,4.4064,4.3366,4.2707,4.1997,4.1997,4.1997,4.1997,4.1997,4.1543,4.069,4.069,4.0239,3.4699,0.0,0.0,3.5897,0.0,3.7772,3.9133,3.9403,3.958,4.0427,3.9835,3.9604,4.0931,4.2239,4.3239,4.3662,4.4778,4.5586,4.5586,4.5586,4.5586,4.5586,4.5586,4.5586,4.5586,4.5586,4.5513,4.5342,4.503,4.4682,4.429,4.3943,4.3679,4.3532,4.3497,4.3497,4.3497,4.3497,4.3497,4.3497,4.3497,4.3497,4.3479,4.3214,4.2752,4.2221,4.1931,4.1828,4.1768,4.1446,4.1534,4.175,4.1446,4.1178,4.0874,4.0577,4.0336,4.007,4.007,4.007,4.007,4.007,4.007,4.007,4.007,4.007,4.007,4.007,4.0341,4.0713,4.1102,4.1728,4.2455,4.3234,4.3115,4.3047,4.3809,4.3978,4.4096,4.4502,4.4587,4.4587,4.4587,4.4587,4.4587,4.4587,4.4587,4.4587,4.4587,4.4587,4.4587,4.4587,4.4587,4.4587,4.4587,4.4587,4.4587,4.4587,4.4587,4.4587,4.4587,4.4138,4.368,4.3213,4.3213,4.3213,4.3213,4.3213,4.2769,4.1933,4.1933,4.1478,3.4283,0.0,3.6505,3.7957,3.9364,0.0,3.8981,3.9695,4.0612,4.0689,4.0626,4.0543,4.0489,4.1912,4.3104,4.3104,4.4509,4.5586,4.5586,4.5586,4.5586,4.5586,4.5586,4.5586,4.5586,4.5586,4.5586,4.5586,4.5302,4.4943,4.4606,4.4204,4.3849,4.3513,4.3497,4.3497,4.3497,4.3497,4.3497,4.3497,4.3497,4.3497,4.3497,4.3497,4.325,4.2826,4.275,4.248,4.2103,4.1979,4.2021,4.2085,4.1979,4.1664,4.1223,4.1087,4.0797,4.0385,4.0385,4.0385,4.0385,4.0286,4.0254,4.0204,4.0121,4.007,4.0104,4.024,4.073,4.1271,4.1525,4.2506,4.3453,4.3589,4.3623,4.3792,4.4451,4.4587,4.4587,4.4587,4.4587,4.4587,4.4587,4.4587,4.4587,4.4587,4.4587,4.4587,4.4587,4.4587,4.4587,4.4587,4.4587,4.4587,4.4587,4.4587,4.4587,4.4587,4.4587,4.4587,4.4587,4.4587,4.4587,4.4587,4.4587,4.4587,4.4587,4.4587,4.4121,4.3306,4.3306,4.2912,0.0,0.0,3.8093,0.0,3.8547,3.9036,4.0198,4.009,3.9974,4.0634,4.0732,4.0639,4.0508,4.1912,4.3104,4.3104,4.4509,4.5586,4.5586,4.5586,4.5586,4.5586,4.5586,4.5586,4.5586,4.5586,4.5586,4.5586,4.5302,4.4943,4.4606,4.4204,4.3849,4.3513,4.3497,4.3497,4.3497,4.3497,4.3497,4.3497,4.3497,4.3497,4.3497,4.3497,4.3444,4.3375,4.2902,4.2939,4.3232,4.277,4.2846,4.3232,4.277,4.2519,4.24,4.1895,4.1621,4.1578,4.1578,4.1578,4.1508,4.0949,4.078,4.0703,4.0254,4.007,4.0206,4.0865,4.1119,4.1491,4.2794,4.3267,4.3589,4.4265,4.4418,4.4451,4.4553,4.4587,4.4587,4.4587,4.4587,4.4587,4.4587,4.4587,4.4587,4.4587,4.4587,4.4587,4.4587,4.4587,4.4587,4.4587,4.4587,4.4587,4.4587,4.4587,4.4587,4.4587,4.4587,4.4587,4.4587,4.4587,4.4587,4.4587,4.4587,4.4587,4.4587,4.4587,4.4121,4.3306,4.3306,4.3173,3.4756,3.6566,3.8135,0.0,3.9238,3.8944,4.0642,4.0363,4.0112,4.1385,4.1613,4.1386,4.0735,4.197,4.3104,4.3104,4.4509,4.5586,4.5586,4.5586,4.5586,4.5586,4.5586,4.5586,4.5586,4.5586,4.5586,4.5586,4.5457,4.5243,4.4896,4.4535,4.4165,4.3804,4.3597,4.3497,4.3497,4.3497,4.3497,4.3497,4.3497,4.3497,4.3497,4.3497,4.3497,4.3497,4.325,4.3286,4.3479,4.325,4.3304,4.3497,4.325,4.2976,4.2655,4.2382,4.208,4.181,4.181,4.181,4.1768,4.149,4.1402,4.1313,4.0703,4.1091,4.1725,4.1739,4.2624,4.3631,4.4309,4.4526,4.466,4.5003,4.4869,4.4587,4.4587,4.4587,4.4587,4.4587,4.4587,4.4587,4.4587,4.4587,4.4587,4.4587,4.4587,4.4587,4.4587,4.4587,4.4587,4.4587,4.4587,4.4587,4.4587,4.4587,4.4587,4.4587,4.4587,4.4587,4.4587,4.4587,4.4587,4.4587,4.4587,4.4587,4.4587,4.4587,4.4384,4.4023,4.444,4.4597,3.4863,0.0,3.7539,3.9941,3.9394,3.873,4.0469,4.0366,4.0363,4.1986,4.2479,4.2395,4.1585,4.2541,4.3467,4.3451,4.4662,4.5586,4.5586,4.5586,4.5586,4.5586,4.5586,4.5586,4.5586,4.5586,4.5586,4.5586,4.5586,4.5438,4.5118,4.4872,4.4553,4.4146,4.3804,4.3631,4.3631,4.3548,4.3497,4.3497,4.3497,4.3497,4.3497,4.3497,4.3497,4.3497,4.3497,4.3497,4.3497,4.3497,4.3497,4.3497,4.3497,4.325,4.2902,4.2902,4.2637,4.2226,4.2226,4.2226,4.2226,4.2062,4.2163,4.2221,4.1638,4.2299,4.3253,4.3028,4.412,4.5344,4.5538,4.5527,4.5511,4.5511,4.5052,4.4587,4.4587,4.4587,4.4587,4.4587,4.4587,4.4587,4.4587,4.4587,4.4587,4.4587,4.4587,4.4587,4.4587,4.4587,4.4587,4.4587,4.4587,4.4587,4.4587,4.4587,4.4587,4.4587,4.4587,4.4587,4.4587,4.4587,4.4587,4.4587,4.4587,4.4587,4.4587,4.4773,4.4874,4.4891,4.5635,4.6092,3.4297,3.5391,0.0,3.8281,3.8047,3.7812,3.957,3.9922,4.0371,4.205,4.3007,4.3521,4.3452,4.3994,4.4441,4.4427,4.5084,4.5586,4.5586,4.5586,4.5586,4.5586,4.5586,4.5586,4.5586,4.5586,4.5586,4.5586,4.5586,4.5438,4.5118,4.5074,4.4919,4.458,4.4175,4.3986,4.3986,4.3646,4.3497,4.3497,4.3497,4.3497,4.3497,4.3497,4.3497,4.3497,4.3497,4.3497,4.3497,4.3497,4.3497,4.3497,4.3497,4.3479,4.3444,4.3444,4.3444,4.341,4.341,4.341,4.3321,4.2808,4.3159,4.3674,4.3063,4.3465,4.4307,4.4926,4.5237,4.5468,4.6165,4.593,4.5511,4.5511,4.5052,4.4587,4.4587,4.4587,4.4587,4.4587,4.4587,4.4587,4.4587,4.4587,4.4587,4.4587,4.4587,4.4587,4.4587,4.4587,4.4587,4.4587,4.4587,4.4587,4.4587,4.4587,4.4587,4.4587,4.4587,4.4587,4.4587,4.4587,4.4587,4.4587,4.4587,4.4587,4.4587,4.5297,4.5652,4.5669,4.6397,4.7124,3.3555,3.4082,0.0,3.7187,3.7109,3.707,3.9375,4.0332,4.0898,4.1504,4.3164,4.4333,4.3773,4.4187,4.4594,4.4498,4.5199,4.5699,4.5605,4.5586,4.5586,4.5586,4.5586,4.5586,4.5586,4.5586,4.5586,4.5586,4.4085,4.382,4.5343,4.3654,4.3354,4.4862,4.4318,4.3912,4.366,4.3563,4.3497,4.3497,4.3497,4.3497,4.3497,4.3497,4.3497,4.3497,4.3497,4.3497,4.3497,4.3497,4.3497,4.3497,4.3497,4.3497,4.3497,4.3497,4.3497,4.3497,4.3497,4.3497,4.3536,4.3871,4.4181,4.4417,4.4345,4.5147,4.6055,4.5935,4.6555,4.7293,4.7565,4.7176,4.6635,4.6192,4.5915,4.5732,4.5732,4.5142,4.4587,4.4587,4.4587,4.4587,4.4587,4.4587,4.4587,4.4587,4.4587,4.4587,4.4587,4.4587,4.4587,4.4587,4.4587,4.4587,4.4587,4.4587,4.4587,4.4587,4.5026,4.5314,4.5314,4.5754,4.5991,4.5991,4.5991,4.5771,4.5314,4.5568,4.594,4.6413,4.7158,4.7665,3.2773,3.3008,3.3555,3.5859,3.5996,3.6172,3.8496,4.0156,4.1289,4.1543,4.3652,4.5254,4.4687,4.4943,4.5176,4.4989,4.5452,4.5757,4.5605,4.5586,4.5586,4.5586,4.5586,4.5586,4.5586,4.5586,4.5586,4.5586,4.4028,4.3816,4.5509,4.379,4.3463,4.5039,4.4508,4.4016,4.3679,4.3548,4.3497,4.3497,4.3497,4.3497,4.3497,4.3497,4.3497,4.3497,4.3497,4.3497,4.3497,4.3497,4.3497,4.3497,4.3497,4.3497,4.3497,4.3497,4.3497,4.3497,4.3497,4.3663,4.3993,4.4544,4.5076,4.5535,4.5708,4.6572,4.7423,4.7074,4.7615,4.8306,4.8306,4.7838,4.7237,4.6571,4.6383,4.6383,4.6383,4.5783,4.5178,4.5178,4.5052,4.4906,4.4906,4.472,4.4654,4.4925,4.4739,4.4671,4.4925,4.4739,4.4587,4.4587,4.4807,4.4959,4.4959,4.5179,4.5331,4.5331,4.5788,4.6075,4.6075,4.6532,4.6786,4.6786,4.6786,4.6684,4.6447,4.6447,4.6701,4.7192,4.7936,4.8291,0.0,0.0,0.0,3.4238,3.4687,3.5156,3.6894,3.9297,4.1387,4.2168,4.4394,4.6211,4.6211,4.6269,4.6204,4.5947,4.5847,4.5757,4.5624,4.5605,4.5605,4.5605,4.5586,4.5586,4.5586,4.5586,4.5586,4.5586,4.5528,4.5509,4.5586,4.5586,4.5438,4.5096,4.4781,4.4419,4.3998,4.3679,4.3513,4.3497,4.3497,4.3497,4.3497,4.3497,4.3497,4.3497,4.3497,4.3497,4.3497,4.3497,4.3497,4.3497,4.3497,4.3497,4.3497,4.3497,4.3497,4.3497,4.3516,4.4048,4.4727,4.4764,4.5847,4.7113,4.715,4.77,4.8306,4.8306,4.8306,4.8306,4.8306,4.7856,4.7237,4.6618,4.6478,4.6478,4.6478,4.6495,4.6495,4.643,4.5933,4.5546,4.5546,4.5049,4.4948,4.5635,4.5111,4.4908,4.5652,4.5094,4.4637,4.4637,4.5314,4.5737,4.5737,4.6397,4.6786,4.6786,4.6802,4.6819,4.6819,4.6836,4.6853,4.6853,4.6853,4.7225,4.7953,4.7936,4.7936,4.797,4.868,4.9001,3.1191,0.0,0.0,0.0,0.0,0.0,3.6894,3.8848,4.0312,4.0547,4.2637,4.4414,4.4414,4.5449,4.6249,4.6063,4.6044,4.5969,4.5834,4.5776,4.5738,4.5738,4.5643,4.5586,4.5586,4.5586,4.5586,4.5586,4.3893,4.3662,4.549,4.5586,4.5438,4.5096,4.5007,4.4638,4.4016,4.3912,4.3758,4.3497,4.3497,4.3497,4.3497,4.3497,4.3497,4.3497,4.3497,4.3497,4.3497,4.3497,4.3497,4.3497,4.3497,4.3497,4.3497,4.3497,4.3497,4.3571,4.4176,4.4525,4.4892,4.6067,4.6764,4.7223,4.781,4.8122,4.8306,4.8306,4.8306,4.8306,4.8306,4.8172,4.7977,4.7838,4.7779,4.7779,4.7779,4.827,4.8279,4.6678,4.6764,4.6923,4.6413,4.6633,4.6842,4.6564,4.6312,4.6261,4.6464,4.6312,4.6177,4.6177,4.6363,4.6498,4.6498,4.6667,4.6786,4.6786,4.731,4.7614,4.7614,4.8122,4.8392,4.8392,4.8392,4.8494,4.8697,4.8173,4.8189,4.8714,4.89,4.9001,3.0898,3.0898,3.1309,3.2988,0.0,0.0,3.6367,3.8672,4.0449,4.0449,4.2754,4.4551,4.3828,4.4531,4.5195,4.5117,4.5097,4.5285,4.5822,4.5849,4.5812,4.5813,4.568,4.5586,4.5586,4.5586,4.5586,4.5586,4.422,4.4028,4.5509,4.5586,4.5513,4.5322,4.518,4.4877,4.4463,4.4318,4.4165,4.3962,4.3962,4.3868,4.3693,4.3693,4.3612,4.3497,4.3497,4.3497,4.3497,4.3497,4.3497,4.3497,4.3497,4.3497,4.3497,4.3497,4.3699,4.4066,4.4544,4.5149,4.5865,4.6819,4.7352,4.77,4.8159,4.8306,4.8306,4.8306,4.8306,4.8306,4.8306,4.8306,4.8306,4.8306,4.8306,4.8398,4.8765,4.9224,4.923,4.798,4.8191,4.8449,4.8028,4.8115,4.8242,4.8176,4.7896,4.7644,4.7649,4.7427,4.7084,4.6844,4.7073,4.7259,4.7259,4.7547,4.7716,4.7716,4.8122,4.8376,4.8376,4.8781,4.9001,4.9001,4.9001,4.9001,4.9001,4.8578,4.8595,4.9001,4.9001,4.9001,3.0898,3.0898,3.1309,3.2988,3.3398,0.0,3.5605,3.8398,4.0684,4.0879,4.332,4.5039,4.3672,4.3418,4.3418,4.3418,4.3496,4.4054,4.5455,4.5755,4.5732,4.5543,4.5566,4.5586,4.5586,4.5586,4.5586,4.5586,4.5586,4.5586,4.5586,4.5586,4.5586,4.5586,4.5322,4.5159,4.5096,4.4781,4.465,4.458,4.458,4.4401,4.4076,4.3998,4.3836,4.3529,4.3513,4.3497,4.3497,4.3497,4.3497,4.3497,4.3497,4.3497,4.3497,4.3589,4.4085,4.4745,4.4911,4.592,4.7131,4.7223,4.7737,4.8306,4.8306,4.8306,4.8306,4.8306,4.8306,4.8306,4.8306,4.8306,4.8306,4.8306,4.8379,4.8655,4.9426,4.9719,4.9848,4.9848,4.9956,5.0027,4.9938,4.9561,4.9479,5.0021,4.9575,4.9129,4.9127,4.8477,4.7838,4.724,4.7691,4.8037,4.8037,4.8629,4.9001,4.9001,4.9001,4.9001,4.9001,4.9001,4.9001,4.9001,4.9001,4.9001,4.9001,4.9001,4.9001,4.9001,4.9001,4.9001,3.0898,3.0898,3.1309,3.2988,3.3398,0.0,3.5605,3.6523,3.7402,3.8828,3.9648,4.043,4.1484,4.1699,4.1699,4.1699,4.2226,4.3007,4.3999,4.515,4.539,4.4045,4.4895,4.5586,4.5586,4.5586,4.5586,4.5586,4.5586,4.5586,4.5586,4.5586,4.5586,4.5586,4.555,4.5362,4.5096,4.503,4.4872,4.458,4.458,4.4553,4.4474,4.4146,4.3955,4.3881,4.3631,4.3497,4.3497,4.3497,4.3497,4.3497,4.3497,4.3497,4.3571,4.4232,4.458,4.4892,4.6195,4.6856,4.7223,4.7865,4.8177,4.8306,4.8306,4.8306,4.8306,4.8306,4.8306,4.8306,4.8306,4.8306,4.8306,4.8306,4.8838,4.937,4.9536,5.06,5.1518,5.1518,5.1545,5.1371,5.0796,5.1117,5.1346,5.0941,5.0783,5.0696,5.0682,5.0058,4.9543,4.9373,4.901,4.8798,4.8798,4.8917,4.9001,4.9001,4.9001,4.9001,4.9001,4.9001,4.9001,4.9001,4.9001,4.9001,4.9001,4.9001,4.9001,4.9001,4.9001,4.9001,3.0898,3.0898,3.1309,3.2988,3.3398,0.0,0.0,3.668,3.7539,3.8418,3.9297,3.9902,3.9902,3.9902,4.0059,4.0488,4.0898,4.1308,4.1738,4.3852,4.518,4.471,4.5278,4.568,4.5605,4.5586,4.5586,4.5586,4.5586,4.5586,4.5586,4.5586,4.5586,4.5586,4.5586,4.5513,4.5342,4.5342,4.5263,4.5096,4.5096,4.5011,4.4849,4.4638,4.4346,4.3986,4.3836,4.3646,4.3497,4.3497,4.3497,4.3497,4.3497,4.3736,4.4158,4.4562,4.5223,4.603,4.68,4.737,4.7774,4.8177,4.8306,4.8306,4.8306,4.8306,4.8306,4.8306,4.8306,4.8306,4.8306,4.8618,4.8948,4.8948,4.9591,5.0306,5.0692,5.1426,5.2105,5.2527,5.2601,5.248,5.2105,5.2389,5.2554,5.2196,5.2149,5.2036,5.1661,5.1292,5.0752,5.009,4.9722,4.9359,4.9001,4.9001,4.9001,4.9001,4.9001,4.9001,4.9001,4.9001,4.9001,4.9001,4.9001,4.9001,4.9001,4.9001,4.9001,4.9001,4.9001,4.9001,3.0898,3.0898,3.1309,3.2988,3.3398,3.3867,0.0,0.0,0.0,3.8105,3.9219,3.9824,3.8574,3.8203,3.8437,3.9473,3.9512,3.9512,3.9844,4.2187,4.402,4.4415,4.4662,4.4778,4.4662,4.4932,4.524,4.5566,4.5586,4.5586,4.5586,4.5586,4.5586,4.5586,4.5586,4.5586,4.5586,4.5586,4.5586,4.5586,4.5586,4.5476,4.5201,4.5118,4.4781,4.4204,4.4058,4.3881,4.3712,4.3631,4.3597,4.3597,4.3513,4.3993,4.4727,4.4874,4.5865,4.7094,4.7297,4.7774,4.8306,4.8306,4.8306,4.8306,4.8306,4.8306,4.8306,4.8306,4.8416,4.8545,4.8545,4.9187,4.9811,4.9811,5.0435,5.1206,5.1848,5.2105,5.2417,5.3078,5.3206,5.3206,5.3206,5.3206,5.3206,5.3206,5.3206,5.298,5.2381,5.2159,5.1643,5.0554,5.0297,4.9936,4.9256,4.9212,4.9168,4.9001,4.9001,4.9001,4.9001,4.9001,4.9001,4.9001,4.9001,4.9001,4.9001,4.9001,4.9001,4.9001,4.9001,4.9001,3.0898,3.0898,3.1309,3.2988,3.3398,3.3867,3.5605,0.0,3.6309,3.6309,0.0,3.6777,3.7344,0.0,0.0,3.8476,3.8105,3.8125,3.9687,4.0215,4.0153,3.935,4.0444,4.1264,4.1264,4.2549,4.3989,4.549,4.5586,4.5586,4.5586,4.5586,4.5586,4.5586,4.5586,4.5586,4.5586,4.5586,4.5586,4.5586,4.5586,4.5586,4.5531,4.5243,4.5033,4.4943,4.4271,4.4175,4.4447,4.4106,4.3924,4.3893,4.3631,4.3993,4.48,4.5498,4.6342,4.7223,4.7921,4.8233,4.8306,4.8306,4.8306,4.8306,4.8306,4.8306,4.8306,4.8306,4.8857,4.9426,4.9426,5.005,5.0655,5.0655,5.1279,5.1885,5.1977,5.2564,5.3096,5.3188,5.3206,5.3206,5.3206,5.3206,5.3206,5.3206,5.3206,5.3164,5.3103,5.249,5.2047,5.1904,5.1343,5.0662,4.9919,4.9879,4.9622,4.9063,4.9001,4.9001,4.9001,4.9001,4.9001,4.9001,4.9001,4.9001,4.9001,4.9001,4.9001,4.9001,4.9001,4.9001,3.209,3.2344,3.2754,3.4473,3.4902,3.5371,3.7109,3.6738,3.5996,3.5996,0.0,0.0,0.0,0.0,0.0,0.0,3.7539,3.7559,3.8281,3.8398,3.8762,3.9799,4.0479,4.1197,4.2066,4.1797,4.2297,4.4008,4.4143,4.4143,4.4143,4.5066,4.5586,4.5586,4.5586,4.5586,4.5586,4.5586,4.5586,4.5586,4.5586,4.5586,4.5605,4.5438,4.5263,4.5074,4.4762,4.4612,4.4617,4.4908,4.504,4.5068,4.5201,4.5318,4.5498,4.6305,4.7113,4.7847,4.8196,4.8306,4.8306,4.8306,4.8306,4.8306,4.8306,4.8636,4.9003,4.904,4.9646,5.0288,5.0288,5.0894,5.1499,5.1499,5.2105,5.2711,5.2711,5.2968,5.3206,5.3206,5.3206,5.3206,5.3206,5.3206,5.3206,5.3206,5.3206,5.3206,5.3206,5.2937,5.2554,5.2159,5.1856,5.1393,5.0716,5.0241,5.009,5.0202,4.9838,4.9563,4.9563,4.9212,4.9001,4.9001,4.9001,4.9001,4.9001,4.9001,4.9001,4.9001,4.9001,4.9001,3.3789,3.4101,3.4414,3.5684,3.5996,3.6328,3.7598,3.709,3.6289,3.6055,3.6191,0.0,0.0,0.0,3.6719,3.7832,0.0,3.7383,3.7617,3.7441,3.7871,3.9434,4.0013,4.0776,4.2033,4.1193,4.1158,4.2624,4.297,4.3104,4.3104,4.4682,4.5586,4.5586,4.5586,4.5586,4.5586,4.5586,4.5586,4.5586,4.5586,4.5586,4.5586,4.5586,4.5476,4.5222,4.514,4.5163,4.5271,4.5748,4.6076,4.6334,4.692,4.6919,4.6623,4.6948,4.7627,4.8306,4.8306,4.8306,4.8306,4.8306,4.8306,4.8343,4.8581,4.904,4.9554,4.9848,5.0508,5.1132,5.1132,5.172,5.2325,5.2325,5.2784,5.3206,5.3206,5.3206,5.3206,5.3206,5.3206,5.3206,5.3206,5.3206,5.3206,5.3206,5.3206,5.3206,5.3206,5.3206,5.298,5.2445,5.2381,5.2112,5.1444,5.0858,5.0716,5.1086,5.0608,5.0185,5.0033,4.9504,4.9212,4.9001,4.9001,4.9001,4.9001,4.9001,4.9001,4.9001,4.9001,4.9001,3.5898,3.5918,3.5937,3.5996,3.5996,3.6016,3.6074,3.6699,3.7012,3.6172,3.668,3.7519,3.8359,3.7832,3.7812,3.9531,3.8398,0.0,0.0,3.7832,3.7012,3.625,3.7539,3.876,3.945,4.0222,4.1016,4.1777,4.2624,4.3104,4.3104,4.4682,4.5586,4.5586,4.5586,4.5586,4.5586,4.5586,4.5586,4.5586,4.5586,4.5586,4.5586,4.5586,4.5586,4.5568,4.5243,4.576,4.6799,4.6426,4.6774,4.7636,4.8429,4.8536,4.8135,4.7402,4.7627,4.8306,4.8306,4.8306,4.8306,4.8306,4.8306,4.8471,4.9297,4.9517,4.9682,5.0527,5.1334,5.1958,5.1958,5.2564,5.317,5.317,5.3188,5.3206,5.3206,5.3206,5.3206,5.3206,5.3206,5.3206,5.3206,5.3206,5.3206,5.3206,5.3206,5.3206,5.3206,5.3206,5.3206,5.3164,5.3164,5.2875,5.2112,5.2065,5.1759,5.1138,5.1086,5.077,5.0033,4.9976,4.9664,4.9001,4.9001,4.9001,4.9001,4.9001,4.9001,4.9001,4.9001,4.9001,3.7402,3.7715,3.7851,3.8437,3.8144,3.7871,3.8457,3.7461,3.6367,3.6055,3.6699,3.7383,3.7695,3.7969,3.8359,3.8945,3.8535,3.8262,0.0,3.8359,3.8047,3.7754,3.8125,3.8941,4.0316,3.9603,3.9619,4.0969,4.1258,4.1143,4.0604,4.322,4.4489,4.3951,4.5009,4.5586,4.5586,4.5586,4.5586,4.5586,4.5586,4.5586,4.5586,4.5586,4.5586,4.5624,4.609,4.6532,4.6972,4.7933,4.8528,4.8853,4.9419,4.9581,4.9383,4.8586,4.8451,4.8657,4.8383,4.8306,4.8398,4.8967,4.915,4.9297,5.0141,5.0747,5.1206,5.1499,5.2179,5.2803,5.2803,5.3004,5.3206,5.3206,5.3206,5.3206,5.3206,5.3206,5.3206,5.3206,5.3206,5.3206,5.3206,5.3206,5.3206,5.3206,5.3206,5.3206,5.3206,5.3206,5.3206,5.3206,5.3206,5.3103,5.2831,5.2831,5.2509,5.1808,5.1741,5.1643,5.1376,5.05,4.9861,4.9664,4.9688,4.9729,4.9729,5.0219,5.0473,5.0473,5.0473,5.0202,3.9219,3.9512,3.959,3.9844,3.9707,3.959,3.9844,3.9062,3.8184,3.791,3.8516,3.9023,3.873,3.9141,3.9414,3.9101,3.9062,3.9062,0.0,3.9336,3.9512,3.9512,3.9453,3.9686,4.043,3.9721,3.9475,4.0154,4.0427,4.0312,3.9758,4.2624,4.4066,4.3547,4.4874,4.5586,4.5586,4.5586,4.5586,4.5586,4.5586,4.5586,4.5586,4.5586,4.5759,4.6086,4.6663,4.724,4.7875,4.8952,4.9586,4.9875,5.021,5.0313,5.0225,4.9416,4.9108,4.9094,4.8813,4.8913,4.9247,4.9658,4.9971,5.0377,5.1048,5.1591,5.205,5.2344,5.2803,5.3206,5.3206,5.3206,5.3206,5.3206,5.3206,5.3206,5.3206,5.3206,5.3206,5.3206,5.3206,5.3206,5.3206,5.3206,5.3206,5.3206,5.3206,5.3206,5.3206,5.3206,5.3206,5.3206,5.3206,5.3206,5.3206,5.3206,5.2999,5.249,5.249,5.2381,5.2112,5.1223,5.05,5.0033,5.03,5.0379,5.0084,5.0845,5.1217,5.1217,5.1217,5.1099]},{"header":{"parameterUnit":"m.s-1","parameterCategory":1,"la1":30.6,"la2":29.2853,"lo1":-89.7004,"lo2":-87.6739,"dy":0.0162,"dx":0.0183,"nx":112,"ny":82,"refTime":"2024-04-08T18:00:00:Z","depth":0,"parameterNumber":3,"parameterNumberName":"V-component_of_WINDS"},"data":[0.0,0.0,0.0,0.0,0.0,0.0,0.0,0.0,0.0,0.0,0.0,0.0,0.0,0.0,0.0,0.0,0.0,0.0,0.0,0.0,0.0,0.0,0.0,0.0,0.0,0.0,0.0,0.0,0.0,0.0,0.0,0.0,0.0,0.0,0.0,0.0,0.0,0.0,0.0,0.0,0.0,0.0,0.0,0.0,0.0,0.0,0.0,0.0,0.0,0.0,0.0,0.0,0.0,0.0,0.0,0.0,0.0,0.0,0.0,0.0,0.0,0.0,0.0,0.0,0.0,0.0,0.0,0.0,0.0,0.0,0.0,0.0,0.0,0.0,0.0,0.0,0.0,0.0,0.0,0.0,0.0,0.0,0.0,0.0,0.0,0.0,0.0,0.0,0.0,0.0,-2.5398,-2.8084,-2.9214,-3.0139,-3.0895,-3.1815,-3.164,-2.9984,0.0,0.0,0.0,0.0,0.0,0.0,0.0,0.0,0.0,0.0,0.0,0.0,0.0,0.0,0.0,0.0,0.0,0.0,0.0,0.0,0.0,0.0,0.0,0.0,0.0,0.0,0.0,0.0,0.0,0.0,0.0,0.0,0.0,0.0,0.0,0.0,0.0,0.0,0.0,0.0,0.0,0.0,0.0,0.0,0.0,0.0,0.0,0.0,0.0,0.0,0.0,0.0,0.0,0.0,0.0,0.0,0.0,0.0,0.0,0.0,0.0,0.0,0.0,0.0,0.0,0.0,0.0,0.0,0.0,0.0,0.0,0.0,0.0,0.0,0.0,0.0,0.0,0.0,0.0,0.0,0.0,0.0,0.0,0.0,0.0,0.0,0.0,0.0,0.0,0.0,0.0,0.0,0.0,0.0,0.0,0.0,0.0,0.0,0.0,0.0,0.0,0.0,0.0,0.0,-2.6967,-2.9289,-2.9691,-2.9869,-2.9998,-3.0833,-3.0677,-2.9027,0.0,0.0,0.0,0.0,0.0,0.0,0.0,0.0,0.0,0.0,0.0,0.0,0.0,0.0,0.0,0.0,0.0,0.0,0.0,0.0,0.0,0.0,0.0,0.0,0.0,0.0,0.0,0.0,0.0,0.0,0.0,0.0,0.0,0.0,0.0,0.0,0.0,0.0,0.0,0.0,0.0,0.0,0.0,0.0,0.0,0.0,0.0,0.0,0.0,0.0,0.0,0.0,0.0,0.0,0.0,0.0,0.0,0.0,0.0,0.0,0.0,0.0,0.0,0.0,0.0,0.0,0.0,0.0,0.0,0.0,0.0,0.0,0.0,0.0,0.0,0.0,0.0,0.0,0.0,0.0,0.0,0.0,0.0,0.0,0.0,0.0,0.0,0.0,0.0,0.0,0.0,0.0,0.0,0.0,0.0,0.0,0.0,0.0,0.0,0.0,0.0,0.0,0.0,-2.6892,-2.8662,-2.9679,-2.9792,-2.9792,-2.9792,-3.1119,-3.1015,-2.8835,-3.045,0.0,0.0,0.0,0.0,0.0,0.0,0.0,0.0,0.0,0.0,0.0,0.0,0.0,0.0,0.0,0.0,0.0,0.0,0.0,0.0,0.0,0.0,0.0,0.0,0.0,0.0,0.0,0.0,0.0,0.0,0.0,0.0,0.0,0.0,0.0,0.0,0.0,0.0,0.0,0.0,0.0,0.0,0.0,0.0,0.0,0.0,0.0,0.0,0.0,0.0,0.0,0.0,0.0,0.0,0.0,0.0,0.0,0.0,0.0,0.0,0.0,0.0,0.0,0.0,0.0,0.0,0.0,0.0,0.0,0.0,0.0,0.0,0.0,0.0,0.0,0.0,0.0,0.0,0.0,0.0,0.0,0.0,0.0,0.0,0.0,0.0,0.0,0.0,0.0,0.0,0.0,0.0,0.0,0.0,0.0,0.0,0.0,0.0,0.0,0.0,0.0,0.0,-2.8185,-2.9503,-2.9767,-2.9792,-2.9792,-2.9792,-3.1341,-3.1155,-2.8576,-3.0147,0.0,0.0,0.0,0.0,0.0,0.0,0.0,0.0,0.0,0.0,0.0,0.0,0.0,0.0,0.0,0.0,0.0,0.0,0.0,0.0,0.0,0.0,0.0,0.0,0.0,0.0,0.0,0.0,0.0,0.0,0.0,0.0,0.0,0.0,0.0,0.0,0.0,0.0,0.0,0.0,0.0,0.0,0.0,0.0,0.0,0.0,0.0,0.0,0.0,0.0,0.0,0.0,0.0,0.0,0.0,0.0,0.0,0.0,0.0,0.0,0.0,0.0,0.0,0.0,0.0,0.0,0.0,0.0,0.0,0.0,0.0,0.0,0.0,0.0,0.0,0.0,0.0,0.0,0.0,0.0,0.0,0.0,0.0,0.0,0.0,0.0,0.0,0.0,0.0,0.0,0.0,0.0,0.0,0.0,0.0,0.0,0.0,0.0,0.0,0.0,0.0,0.0,-2.7494,-2.8624,-2.9679,-2.9792,-2.9792,-2.9792,-3.0696,-3.0262,-2.7815,-2.9254,0.0,0.0,0.0,0.0,0.0,0.0,0.0,0.0,0.0,0.0,0.0,0.0,0.0,0.0,0.0,0.0,0.0,0.0,0.0,0.0,0.0,0.0,0.0,0.0,0.0,0.0,0.0,0.0,0.0,0.0,0.0,0.0,0.0,0.0,0.0,0.0,0.0,0.0,0.0,0.0,0.0,0.0,0.0,0.0,0.0,0.0,0.0,0.0,0.0,0.0,0.0,0.0,0.0,0.0,0.0,0.0,0.0,0.0,0.0,0.0,0.0,0.0,0.0,0.0,0.0,0.0,0.0,0.0,0.0,0.0,0.0,0.0,0.0,0.0,0.0,0.0,0.0,0.0,0.0,0.0,0.0,0.0,0.0,0.0,0.0,0.0,0.0,0.0,0.0,0.0,0.0,0.0,0.0,0.0,0.0,0.0,0.0,0.0,0.0,0.0,0.0,0.0,-2.8562,-3.0216,-3.0644,-3.1193,-3.1549,-3.1549,-3.2393,-3.1845,-2.9344,0.0,0.0,0.0,0.0,0.0,0.0,0.0,0.0,0.0,0.0,0.0,0.0,0.0,0.0,0.0,0.0,0.0,0.0,0.0,0.0,0.0,0.0,0.0,0.0,0.0,0.0,0.0,0.0,0.0,0.0,0.0,0.0,0.0,0.0,0.0,0.0,0.0,0.0,0.0,0.0,0.0,0.0,0.0,0.0,0.0,0.0,0.0,0.0,0.0,0.0,0.0,0.0,0.0,0.0,0.0,0.0,0.0,0.0,0.0,0.0,0.0,0.0,0.0,0.0,0.0,0.0,0.0,0.0,0.0,0.0,0.0,0.0,0.0,0.0,0.0,0.0,0.0,0.0,0.0,0.0,0.0,0.0,0.0,0.0,0.0,0.0,0.0,0.0,0.0,0.0,0.0,0.0,0.0,0.0,0.0,0.0,0.0,0.0,0.0,0.0,0.0,0.0,-2.6521,-2.9542,-3.1536,-3.1254,-3.2033,-3.2593,-3.2593,-3.3449,-3.2815,-2.9907,0.0,0.0,0.0,0.0,0.0,0.0,0.0,0.0,0.0,0.0,0.0,0.0,0.0,0.0,0.0,0.0,0.0,0.0,0.0,0.0,0.0,0.0,0.0,0.0,0.0,0.0,0.0,0.0,0.0,0.0,0.0,0.0,0.0,0.0,0.0,0.0,0.0,0.0,0.0,0.0,0.0,0.0,0.0,0.0,0.0,0.0,0.0,0.0,0.0,0.0,0.0,0.0,0.0,0.0,0.0,0.0,0.0,0.0,0.0,0.0,0.0,0.0,0.0,0.0,0.0,0.0,0.0,0.0,0.0,0.0,0.0,0.0,0.0,0.0,0.0,0.0,0.0,0.0,0.0,0.0,0.0,0.0,0.0,0.0,0.0,0.0,0.0,0.0,0.0,0.0,0.0,0.0,0.0,0.0,0.0,0.0,0.0,0.0,0.0,0.0,0.0,0.0,-2.6658,-3.0094,-3.2249,-3.1315,-3.2105,-3.2593,-3.2593,-3.3449,-3.2601,0.0,0.0,0.0,0.0,0.0,0.0,0.0,0.0,0.0,0.0,0.0,0.0,0.0,0.0,0.0,0.0,0.0,0.0,0.0,0.0,0.0,0.0,0.0,0.0,0.0,0.0,0.0,0.0,0.0,0.0,0.0,0.0,0.0,0.0,0.0,0.0,0.0,0.0,0.0,0.0,0.0,0.0,0.0,0.0,0.0,0.0,0.0,0.0,0.0,0.0,0.0,0.0,0.0,0.0,0.0,0.0,0.0,0.0,0.0,0.0,0.0,0.0,0.0,0.0,0.0,0.0,0.0,0.0,0.0,0.0,0.0,0.0,0.0,0.0,0.0,0.0,0.0,0.0,0.0,0.0,0.0,0.0,0.0,0.0,0.0,0.0,0.0,0.0,0.0,0.0,0.0,0.0,0.0,0.0,0.0,0.0,0.0,0.0,0.0,0.0,0.0,0.0,0.0,-2.755,-3.1047,-3.3449,-3.3171,-3.4056,-3.4624,-3.4624,-3.492,-3.38,-3.0938,0.0,0.0,0.0,0.0,0.0,0.0,0.0,0.0,0.0,0.0,0.0,0.0,0.0,0.0,0.0,0.0,0.0,0.0,0.0,0.0,0.0,0.0,0.0,0.0,0.0,0.0,0.0,0.0,0.0,0.0,0.0,0.0,0.0,0.0,0.0,0.0,0.0,0.0,0.0,0.0,0.0,0.0,0.0,0.0,0.0,0.0,0.0,0.0,0.0,0.0,0.0,0.0,0.0,0.0,0.0,0.0,0.0,0.0,0.0,0.0,0.0,0.0,0.0,0.0,0.0,0.0,0.0,0.0,0.0,0.0,0.0,0.0,0.0,0.0,0.0,0.0,0.0,0.0,0.0,0.0,0.0,0.0,0.0,0.0,0.0,0.0,0.0,0.0,0.0,0.0,0.0,0.0,0.0,0.0,0.0,0.0,0.0,0.0,0.0,0.0,0.0,0.0,-2.8363,-3.1999,-3.4461,-3.4027,-3.4905,-3.5504,-3.5504,-3.5504,-3.4592,-3.2452,0.0,0.0,0.0,0.0,0.0,0.0,0.0,0.0,0.0,0.0,0.0,0.0,0.0,0.0,0.0,0.0,0.0,0.0,0.0,0.0,0.0,0.0,0.0,0.0,0.0,0.0,0.0,0.0,0.0,0.0,0.0,0.0,0.0,0.0,0.0,0.0,0.0,0.0,0.0,0.0,0.0,0.0,0.0,0.0,0.0,0.0,0.0,0.0,0.0,0.0,0.0,0.0,0.0,0.0,0.0,0.0,0.0,0.0,0.0,0.0,0.0,0.0,0.0,0.0,0.0,0.0,0.0,0.0,0.0,0.0,0.0,0.0,0.0,0.0,0.0,0.0,0.0,0.0,0.0,0.0,0.0,0.0,0.0,0.0,0.0,0.0,0.0,0.0,0.0,0.0,0.0,0.0,0.0,0.0,0.0,0.0,0.0,0.0,0.0,0.0,0.0,0.0,-2.9129,-3.2838,-3.5133,-3.4245,-3.4986,-3.5504,-3.5504,-3.5504,-3.4936,-3.3574,0.0,0.0,0.0,0.0,0.0,0.0,0.0,0.0,0.0,0.0,0.0,0.0,0.0,0.0,0.0,0.0,0.0,0.0,0.0,0.0,0.0,0.0,0.0,0.0,0.0,0.0,0.0,0.0,0.0,0.0,0.0,0.0,0.0,0.0,0.0,0.0,0.0,0.0,0.0,0.0,0.0,0.0,0.0,0.0,0.0,0.0,0.0,0.0,0.0,0.0,0.0,0.0,0.0,0.0,0.0,0.0,0.0,0.0,0.0,0.0,-2.8352,-2.6979,0.0,0.0,0.0,0.0,0.0,0.0,0.0,0.0,0.0,0.0,0.0,0.0,0.0,0.0,0.0,0.0,0.0,0.0,0.0,0.0,0.0,0.0,0.0,0.0,0.0,0.0,0.0,0.0,0.0,0.0,0.0,0.0,0.0,0.0,0.0,0.0,0.0,0.0,0.0,0.0,-3.0133,-3.325,-3.5439,-3.5213,-3.5359,-3.5504,-3.5504,-3.5504,-3.4936,-3.3574,-3.323,0.0,0.0,0.0,0.0,0.0,0.0,0.0,0.0,0.0,0.0,0.0,0.0,0.0,0.0,0.0,0.0,0.0,0.0,0.0,0.0,0.0,0.0,0.0,0.0,0.0,0.0,0.0,0.0,0.0,0.0,0.0,0.0,0.0,0.0,0.0,0.0,0.0,0.0,0.0,0.0,0.0,0.0,0.0,0.0,0.0,0.0,0.0,0.0,0.0,0.0,0.0,0.0,0.0,0.0,0.0,0.0,0.0,0.0,0.0,-2.9664,-2.8969,0.0,0.0,0.0,0.0,0.0,0.0,0.0,0.0,0.0,0.0,0.0,0.0,0.0,0.0,0.0,0.0,0.0,0.0,0.0,0.0,0.0,0.0,0.0,0.0,0.0,0.0,0.0,0.0,0.0,0.0,0.0,0.0,0.0,0.0,0.0,0.0,0.0,0.0,0.0,0.0,-3.0896,-3.358,-3.5504,-3.5504,-3.5504,-3.5504,-3.5504,-3.5504,-3.5205,-3.4502,-3.3858,0.0,0.0,0.0,0.0,0.0,0.0,0.0,0.0,0.0,0.0,0.0,0.0,0.0,0.0,0.0,0.0,0.0,0.0,0.0,0.0,0.0,0.0,0.0,0.0,0.0,0.0,0.0,0.0,0.0,0.0,0.0,0.0,0.0,0.0,0.0,0.0,0.0,0.0,0.0,0.0,0.0,0.0,0.0,0.0,0.0,0.0,0.0,0.0,0.0,0.0,0.0,0.0,0.0,-3.0178,-3.0403,-3.0417,-3.1148,-3.1467,-3.1496,-3.1518,-3.1485,-3.1326,-3.0249,0.0,0.0,0.0,0.0,0.0,0.0,0.0,0.0,0.0,0.0,0.0,0.0,0.0,0.0,0.0,0.0,0.0,0.0,0.0,0.0,0.0,0.0,-2.9783,-3.0287,-3.0697,-3.0855,-3.0424,0.0,0.0,0.0,0.0,0.0,0.0,0.0,0.0,0.0,0.0,0.0,-3.1409,-3.3858,-3.5504,-3.5504,-3.5504,-3.5504,-3.5504,-3.5504,-3.5504,-3.5504,-3.4457,-3.3739,0.0,0.0,0.0,0.0,0.0,0.0,0.0,0.0,0.0,0.0,0.0,0.0,0.0,0.0,0.0,0.0,0.0,0.0,0.0,0.0,0.0,0.0,0.0,0.0,0.0,0.0,0.0,0.0,0.0,0.0,0.0,0.0,-2.3768,-2.4811,0.0,0.0,0.0,0.0,0.0,0.0,0.0,0.0,0.0,0.0,0.0,0.0,0.0,-2.8879,-2.8879,-3.0934,-3.1959,-3.1974,-3.3794,-3.4693,-3.4693,-3.5429,-3.5753,-3.5753,-3.529,0.0,-3.3146,-3.2968,0.0,0.0,0.0,0.0,0.0,0.0,0.0,0.0,0.0,0.0,0.0,0.0,0.0,0.0,0.0,0.0,0.0,0.0,0.0,0.0,0.0,0.0,-3.455,-3.4664,-3.388,-3.3359,-3.4456,-3.0816,-2.7649,-2.8795,-2.8079,-2.7228,0.0,0.0,0.0,0.0,0.0,0.0,-3.1482,-3.3858,-3.5504,-3.5504,-3.5504,-3.5504,-3.5504,-3.5504,-3.5504,-3.5504,-3.534,-3.4711,-3.3544,-3.4622,0.0,0.0,0.0,0.0,0.0,0.0,0.0,0.0,0.0,0.0,0.0,0.0,0.0,0.0,0.0,0.0,0.0,0.0,0.0,0.0,0.0,0.0,0.0,0.0,0.0,0.0,0.0,0.0,0.0,-2.3783,-2.4828,-2.5812,-2.5959,-2.5548,0.0,0.0,0.0,0.0,0.0,0.0,0.0,0.0,0.0,-2.8121,-2.9322,-2.995,-2.995,-3.1973,-3.324,-3.3608,-3.4486,-3.517,-3.559,-3.5896,-3.6054,-3.6022,-3.5816,-3.5545,-3.5245,-3.4914,-3.4971,-3.5197,0.0,0.0,0.0,0.0,-3.2061,-3.2836,-3.2836,-3.3754,-3.484,-3.4552,0.0,0.0,0.0,0.0,0.0,0.0,0.0,-3.2966,-3.3708,-3.4815,-3.5864,-3.6582,-3.6014,-3.5385,-3.598,-3.3317,-3.0962,-3.1544,-3.0613,-2.9435,-2.8724,-2.9432,0.0,0.0,0.0,-3.2632,-3.2632,-3.4322,-3.5504,-3.5504,-3.5504,-3.5504,-3.5504,-3.5504,-3.5504,-3.5504,-3.5504,-3.525,-3.4651,-3.519,-3.4592,0.0,0.0,0.0,0.0,0.0,0.0,0.0,0.0,0.0,0.0,0.0,0.0,0.0,0.0,0.0,0.0,0.0,0.0,0.0,0.0,0.0,0.0,0.0,0.0,0.0,0.0,0.0,0.0,-2.4829,-2.5632,-2.6427,-2.6327,-2.5812,0.0,0.0,0.0,0.0,0.0,0.0,-2.684,-2.7635,-2.8313,-2.8876,-3.0375,-3.12,-3.12,-3.29,-3.4028,-3.4496,-3.4685,-3.51,-3.5616,-3.578,-3.5873,-3.5873,-3.6104,-3.6518,-3.6956,-3.6313,-3.6265,-3.6556,-3.6039,-3.5408,-3.4774,-3.4234,-3.4398,-3.4873,-3.4873,-3.5771,-3.6873,-3.6659,-3.6238,-3.5722,-3.5391,0.0,0.0,0.0,0.0,-3.4542,-3.5551,-3.6059,-3.6549,-3.7566,-3.7338,-3.6904,-3.6904,-3.5277,-3.3834,-3.401,-3.2946,-3.1719,-3.0746,-3.139,0.0,-3.0283,-3.2033,-3.3499,-3.3499,-3.4681,-3.5504,-3.5504,-3.5504,-3.5504,-3.5504,-3.5504,-3.5504,-3.5504,-3.5504,-3.5504,-3.5504,-3.5504,-3.504,-3.4023,0.0,0.0,0.0,0.0,0.0,0.0,0.0,0.0,0.0,0.0,0.0,0.0,0.0,0.0,0.0,0.0,0.0,0.0,0.0,0.0,0.0,0.0,0.0,0.0,0.0,0.0,0.0,0.0,0.0,-2.6402,-2.7356,0.0,0.0,0.0,0.0,-2.482,-2.5558,-2.6956,-2.8872,-2.9775,-3.117,-3.3123,-3.3289,-3.3319,-3.3319,-3.4101,-3.4454,-3.4512,-3.5212,-3.5561,-3.5616,-3.6352,-3.6648,-3.6715,-3.7451,-3.7826,-3.7797,-3.6994,-3.7462,-3.8553,-3.6573,-3.658,-3.7458,-3.5426,-3.5952,-3.7675,-3.7675,-3.8636,-3.9783,-3.897,-3.7427,-3.5583,-3.432,-3.3853,0.0,0.0,-3.4736,-3.569,-3.577,-3.6742,-3.7726,-3.779,-3.7764,-3.7748,-3.7748,-3.6106,-3.4799,-3.5274,-3.4322,-3.338,-3.3305,0.0,-3.2946,-3.1644,-3.2617,-3.3499,-3.3499,-3.4681,-3.5504,-3.5504,-3.5504,-3.5504,-3.5504,-3.5504,-3.5504,-3.5504,-3.5504,-3.5504,-3.5504,-3.5504,-3.5474,-3.5415,-3.4911,0.0,0.0,0.0,0.0,0.0,0.0,0.0,0.0,0.0,0.0,0.0,0.0,0.0,0.0,0.0,0.0,0.0,0.0,0.0,0.0,0.0,0.0,0.0,0.0,0.0,0.0,0.0,0.0,-2.642,-2.6477,0.0,-2.5937,-2.6101,-2.6089,-2.5686,-2.7619,-2.9102,-2.9846,-3.0644,-3.1442,-3.2213,-3.2664,-3.2936,-3.2936,-3.3599,-3.416,-3.4562,-3.485,-3.5168,-3.5595,-3.59,-3.5994,-3.5994,-3.6279,-3.6721,-3.7148,-3.6869,-3.7353,-3.8171,-3.7436,-3.7467,-3.779,-3.7026,-3.7225,-3.7905,-3.7905,-3.8548,-3.9395,-3.9631,-3.9191,-3.8502,-3.802,-3.7853,-3.7853,-3.7853,-3.8186,-3.855,-3.855,-3.8933,-3.9279,-3.9279,-3.887,-3.8525,-3.8525,-3.7576,-3.6769,-3.6961,-3.5095,-3.3499,-3.3499,-3.4218,-3.4337,-3.3006,-3.3933,-3.4786,-3.4786,-3.5205,-3.5504,-3.5504,-3.5504,-3.5504,-3.5504,-3.5504,-3.5504,-3.5504,-3.5504,-3.5504,-3.5504,-3.5504,-3.5504,-3.5504,-3.5329,-3.441,0.0,0.0,0.0,0.0,0.0,0.0,0.0,0.0,0.0,0.0,0.0,0.0,0.0,0.0,0.0,0.0,0.0,0.0,0.0,0.0,0.0,0.0,0.0,0.0,0.0,-2.3791,-2.5285,-2.5837,-2.59,-2.5887,-2.5887,-2.6375,-2.6651,-2.6651,-2.8918,-3.0329,-3.0329,-3.1087,-3.164,-3.1838,-3.2327,-3.2695,-3.2949,-3.3582,-3.4186,-3.4576,-3.4847,-3.5161,-3.5622,-3.5622,-3.5199,-3.4539,-3.5301,-3.5487,-3.5318,-3.6079,-3.6808,-3.7439,-3.7797,-3.7905,-3.7905,-3.7905,-3.7905,-3.7905,-3.7905,-3.8227,-3.87,-3.9191,-3.9343,-3.9343,-3.9343,-3.9343,-3.9343,-3.9343,-3.9343,-3.9411,-3.9648,-3.9715,-3.9766,-4.002,-3.9662,-3.9315,-3.9315,-3.833,-3.7568,-3.8052,-3.642,-3.4818,-3.4298,-3.4927,-3.5003,-3.3365,-3.3864,-3.4391,-3.4158,-3.4562,-3.4831,-3.4831,-3.5235,-3.5504,-3.5504,-3.51,-3.5026,-3.5474,-3.5085,-3.504,-3.5489,-3.507,-3.4943,-3.5102,-3.4896,-3.4442,-3.3862,0.0,0.0,0.0,0.0,0.0,0.0,0.0,0.0,0.0,0.0,0.0,0.0,0.0,0.0,0.0,0.0,0.0,0.0,0.0,0.0,0.0,0.0,0.0,-2.1568,-2.3879,-2.5398,-2.4921,-2.5812,-2.6533,-2.6533,-2.7229,-2.7723,-2.771,-2.9352,-3.03,-3.0271,-3.0969,-3.1702,-3.2462,-3.2517,-3.2823,-3.3537,-3.4252,-3.4624,-3.464,-3.5299,-3.5622,-3.5622,-3.5622,-3.4438,-3.2493,-3.4675,-3.4387,-3.2544,-3.4726,-3.5941,-3.6488,-3.7461,-3.7838,-3.7838,-3.7838,-3.7838,-3.7838,-3.7804,-3.7838,-3.7872,-3.7905,-3.7905,-3.7905,-3.7905,-3.7905,-3.7905,-3.7905,-3.7905,-3.8075,-3.8768,-3.8954,-3.914,-3.9834,-4.0003,-4.002,-4.0037,-3.8337,-3.7211,-3.8644,-3.8358,-3.739,-3.5919,-3.568,-3.4944,-3.2881,-3.2585,0.0,-3.176,-3.2826,-3.3606,-3.3621,-3.4745,-3.5524,-3.5554,-3.4325,-3.413,-3.5479,-3.434,-3.4143,-3.5444,-3.4247,-3.388,-3.4488,-3.3779,-3.4458,-3.6699,0.0,0.0,0.0,0.0,0.0,0.0,0.0,0.0,0.0,0.0,0.0,0.0,0.0,0.0,0.0,0.0,0.0,0.0,0.0,0.0,0.0,-2.1631,-2.3314,-2.3314,-2.4305,-2.5272,-2.5937,-2.6276,-2.6533,-2.6533,-2.7802,-2.8443,-2.7944,-2.9504,-3.0229,-2.9841,-2.8621,-2.8399,-2.9396,-3.0068,-3.0923,-3.1919,-3.4205,-3.5316,-3.5316,-3.5515,-3.5622,-3.5622,-3.5622,-3.5284,-3.4742,-3.5351,-3.5267,-3.4786,-3.5771,-3.6266,-3.6385,-3.6287,-3.6457,-3.6775,-3.6367,-3.6248,-3.618,-3.5622,-3.6163,-3.7178,-3.7736,-3.7905,-3.7905,-3.7905,-3.7905,-3.7905,-3.7905,-3.7905,-3.7956,-3.8159,-3.821,-3.8261,-3.8464,-3.8497,-3.865,-3.9174,-3.8806,-3.8673,-3.9597,-3.961,-3.8987,-3.748,-3.7189,-3.6988,-3.6419,-3.6315,-3.6258,-3.6101,-3.6373,-3.6357,-3.583,-3.5262,-3.5308,-3.6198,-3.5123,-3.4924,-3.6198,-3.5984,-3.5658,-3.5489,-3.5641,-3.6117,-3.6827,-3.6147,-3.6084,0.0,0.0,0.0,0.0,0.0,0.0,0.0,0.0,0.0,0.0,0.0,0.0,0.0,0.0,0.0,0.0,0.0,0.0,0.0,0.0,0.0,0.0,-2.2272,-2.4155,-2.4607,-2.5159,-2.5649,-2.605,-2.6413,-2.6511,-2.6281,-2.7746,-2.8531,-2.8166,-2.9402,-2.9968,-2.9609,-2.8472,-2.794,-2.8124,-2.9591,-3.0542,-3.08,-3.3388,-3.4844,-3.5148,-3.5148,-3.5318,-3.5622,-3.5622,-3.5098,-3.4269,-3.5462,-3.5395,-3.4675,-3.6122,-3.6865,-3.6981,0.0,0.0,0.0,0.0,-3.5622,-3.5554,-3.5115,-3.5554,-3.6366,-3.6806,-3.6958,-3.6958,-3.6958,-3.6518,-3.6011,-3.6011,-3.5571,-3.5318,-3.6231,-3.6485,-3.6721,-3.7686,-3.7905,-3.8024,-3.8447,-3.8024,-3.7973,-3.936,-3.9123,0.0,-3.8739,-3.8231,-3.7518,-3.6632,-3.6481,-3.6411,-3.614,-3.6598,-3.6797,-3.6321,-3.6106,-3.631,-3.7021,-3.5902,0.0,0.0,0.0,-3.5629,-3.52,-3.6119,0.0,0.0,0.0,-3.6538,-3.722,-3.6419,0.0,0.0,-3.6323,-3.5893,0.0,0.0,0.0,0.0,0.0,0.0,0.0,0.0,0.0,0.0,0.0,0.0,0.0,0.0,0.0,0.0,-2.3125,-2.457,-2.5593,-2.6055,-2.6143,-2.5681,-2.6246,-2.6472,-2.6069,-2.7415,-2.8297,-2.821,-2.8994,-2.943,-2.9355,-2.9146,0.0,0.0,0.0,-3.0745,-3.0087,-3.229,-3.3728,-3.437,-3.4455,-3.4844,-3.5504,-3.5588,-3.4539,-3.2805,-3.5304,-3.5312,-3.3654,-3.6211,-3.7506,-3.772,-3.6825,-3.6416,-3.6232,-3.5596,-3.5487,-3.5605,-3.5436,0.0,0.0,-3.5622,-3.5622,-3.5622,-3.5622,-3.4709,-3.366,-3.366,-3.2713,-3.2138,-3.4117,-3.4624,-3.5131,-3.7161,-3.7652,-3.7686,-3.777,-3.6705,-3.6366,-3.8464,-3.7872,-3.7652,-3.9614,-3.8954,-3.7477,-3.5608,-3.5297,-3.5135,-3.4592,-3.5558,-3.6244,-3.619,-3.7078,0.0,-3.7905,-3.6715,-3.6451,-3.7726,-3.5969,-3.4965,-3.5196,-3.6314,-3.6455,-3.533,-3.582,-3.6789,-3.8159,-3.8159,-3.8819,-4.002,-3.7519,-3.7017,0.0,0.0,0.0,0.0,0.0,0.0,0.0,0.0,0.0,0.0,0.0,0.0,0.0,0.0,0.0,-2.3464,-2.4506,-2.5545,-2.6362,-2.5702,-2.5331,-2.579,-2.5952,-2.6272,-2.6748,-2.7708,-2.811,-2.7508,-2.8316,-2.8547,-2.8045,-2.6452,-2.6123,-2.7333,-2.7955,-2.8846,-3.0108,-3.229,-3.3474,-3.3626,-3.4218,0.0,-3.4726,-3.5351,-3.5385,-3.4996,-3.5993,-3.6173,-3.5873,-3.7201,-3.7578,-3.7323,-3.7097,-3.6522,-3.5586,-3.4312,-3.459,-3.5453,-3.4252,-3.4607,-3.5622,-3.5622,-3.5622,-3.5622,-3.5622,-3.5419,0.0,-3.5182,-3.4979,-3.4861,-3.5301,-3.5402,-3.552,-3.596,-3.6062,-3.6231,-3.6857,-3.6772,-3.6857,-3.7905,-3.8362,-3.87,-3.9123,-3.9462,-3.9546,-3.9142,-3.9042,-3.9042,-3.8925,-3.9126,-3.902,-3.8372,-3.76,-3.7551,-3.8592,-3.7485,-3.7061,-3.7783,-3.6789,-3.6794,-3.8046,-3.8335,-3.8645,-3.9059,-3.9158,-3.936,-3.9648,-3.9648,-3.98,-4.007,-3.9531,-3.9412,0.0,0.0,0.0,0.0,0.0,0.0,0.0,0.0,0.0,0.0,0.0,-2.2607,-2.2724,0.0,-2.3196,-2.455,-2.4827,-2.5309,-2.631,-2.5572,-2.5107,-2.545,-2.5848,-2.6085,-2.6194,-2.7252,-2.7803,-2.7466,-2.7847,-2.7934,-2.764,-2.6632,-2.626,-2.6618,-2.7817,-2.86,-2.8938,-3.119,-3.2476,-3.2848,-3.3592,-3.4134,-3.4523,-3.5267,-3.5622,-3.5622,-3.6182,-3.6374,-3.6457,-3.7248,-3.7248,-3.6803,-3.6803,-3.6333,-3.552,-3.5062,-3.518,-3.5504,-3.4776,-3.4996,-3.5622,-3.5622,-3.5622,-3.5622,-3.5622,-3.5098,-3.4506,-3.4506,-3.3981,-3.3575,-3.432,-3.4506,-3.4709,-3.5436,-3.5622,-3.5723,-3.6113,-3.6197,-3.6434,-3.7195,-3.7939,-3.8565,-3.8937,-3.9597,-4.007,-4.007,-4.007,-4.007,-4.007,-4.007,-3.9952,-3.9542,-3.8957,-3.8807,-3.9439,-3.8546,-3.7883,-3.7831,-3.7774,-3.8101,-3.8854,-3.9315,-3.9662,-4.007,-4.007,-4.007,-4.007,-4.007,-4.007,-4.007,-4.007,-4.007,0.0,0.0,0.0,0.0,0.0,0.0,0.0,-2.3865,-2.4082,-2.4417,-2.4255,-2.4177,-2.4824,-2.3767,-2.3446,-2.5617,-2.5263,-2.5074,-2.6226,-2.5679,-2.5215,-2.532,-2.5785,-2.5993,-2.5825,-2.6916,-2.7625,-2.7625,-2.7625,-2.7625,-2.7625,-2.7625,-2.7313,-2.6656,-2.8451,-2.9105,-2.8465,-3.0277,-3.1495,-3.2087,-3.2831,-3.3575,-3.4303,-3.5064,-3.547,-3.5622,-3.6182,-3.6457,-3.658,-3.702,-3.6865,-3.6416,-3.6498,-3.6165,-3.5667,-3.6097,-3.5985,-3.5622,-3.5622,-3.5622,-3.5622,-3.5622,-3.5622,-3.5622,-3.5622,-3.4793,-3.3846,-3.3846,-3.2983,-3.2324,-3.3525,-3.3846,-3.4134,-3.5334,-3.5622,-3.5656,-3.5808,-3.5842,-3.6079,-3.6857,-3.7601,-3.8311,-3.8886,-3.9597,-4.007,-4.007,-4.007,-4.007,-4.007,-4.007,-4.007,-4.007,-4.007,-4.002,-3.9901,-3.9262,-3.8635,-3.8035,-3.858,-3.8962,-3.9139,-3.9782,-4.007,-4.007,-3.9952,-3.9952,-4.007,-3.9952,-3.9952,-4.007,-4.007,-4.007,-2.335,-2.1547,-2.0452,-2.1148,-2.2816,-2.4176,0.0,-2.623,-2.7925,-2.651,-2.7308,-2.8333,-2.8395,-2.7831,-2.7393,-2.7652,-2.6726,-2.627,-2.7058,-2.6162,-2.5605,-2.629,-2.584,-2.5962,-2.7255,-2.7509,-2.7625,-2.7625,-2.7625,-2.7625,-2.7625,-2.7625,-2.8018,-2.901,-2.9278,-2.9864,-3.0818,-3.1072,-3.1241,-3.1326,-3.2053,-3.2797,-3.3558,-3.4286,-3.4979,-3.5622,-3.6182,-3.6684,-3.7114,-3.719,-3.6865,-3.6457,-3.6921,-3.6481,-3.5622,-3.5667,-3.5667,-3.5622,-3.5622,-3.5622,-3.5622,-3.5622,-3.5622,-3.5622,-3.5622,-3.5504,-3.5368,-3.5368,-3.525,-3.5165,-3.5334,-3.5368,-3.5419,-3.5588,-3.5622,-3.5808,-3.6502,-3.6654,-3.6874,-3.7635,-3.8362,-3.8903,-3.8988,-3.9597,-4.007,-4.007,-4.007,-4.007,-4.007,-4.007,-4.007,-4.007,-4.007,-3.9782,-3.9086,-3.8962,-3.8854,-3.8799,-3.8854,-3.9209,-3.9952,-4.007,-4.007,-4.007,-3.9368,-3.9385,-4.007,-3.9368,-3.9368,-4.007,-4.007,-4.007,-2.321,-2.319,-2.353,-2.3882,-2.5508,-2.7204,-2.7598,-2.8751,-2.9661,-2.9479,-2.9574,-2.9889,-3.0389,-2.829,-2.7085,-2.8656,-2.6923,-2.5864,-2.7261,-2.6654,-2.6336,-2.7034,-2.5466,-2.4526,-2.5136,-2.6674,-2.7096,-2.5944,-2.6916,-2.7625,-2.7625,-2.7625,-2.8174,-2.9361,-2.9406,-2.9978,-3.119,-3.119,-3.119,-3.1207,-3.1935,-3.2679,-3.344,-3.4167,-3.4912,-3.5622,-3.5827,-3.6054,-3.6291,-3.6291,-3.6139,-3.5985,-3.6165,-3.6011,-3.5667,-3.5941,-3.5854,-3.5622,-3.5622,-3.5622,-3.5622,-3.5622,-3.5622,-3.5622,-3.5622,-3.5622,-3.5622,-3.5622,-3.5622,-3.5622,-3.5622,-3.5622,-3.574,-3.618,-3.6299,-3.6502,-3.7263,-3.7432,-3.7533,-3.7838,-3.8497,-3.8988,-3.8988,-3.9597,-4.007,-4.007,-4.007,-4.007,-4.007,-4.007,-3.9901,-3.9437,-3.8995,-3.8414,-3.7642,-3.7584,-3.7584,-3.7584,-3.7584,-3.8101,-3.9368,-3.8995,-3.8941,-3.9368,-3.9086,-3.9086,-3.9368,-3.9542,-3.9782,-4.007,-4.007,-4.007,-2.3663,-2.4403,-2.5322,-2.6469,-2.7806,-2.9188,-3.0334,-3.0644,-3.0777,-3.1409,-3.1029,-3.0778,-3.1155,-2.8706,-2.7245,-2.9053,-2.7195,-2.6061,-2.744,-2.6982,-2.6585,-2.6777,-2.4834,-2.3134,-2.2264,-2.4961,-2.6393,-2.551,-2.6767,-2.7625,-2.7625,-2.7625,-2.8076,-2.9134,-2.9134,-2.9717,-3.0935,-3.0958,-3.1015,-3.1207,-3.1732,-3.2374,-3.3119,-3.4066,-3.4912,-3.5622,-3.5622,-3.5622,-3.5622,-3.5622,-3.5622,-3.5622,-3.5622,-3.5622,-3.5667,-3.6028,-3.5941,-3.5622,-3.5622,-3.5622,-3.5622,-3.5622,-3.5622,-3.5622,-3.5622,-3.5622,-3.5622,-3.5622,-3.5622,-3.5673,-3.5876,-3.5943,-3.6129,-3.6907,-3.7094,-3.7297,-3.8041,-3.821,-3.8261,-3.8464,-3.8937,-3.9292,-3.9292,-3.9732,-4.007,-4.007,-3.9901,-3.9782,-3.9782,-3.961,-3.9209,-3.8635,-3.8149,-3.7456,-3.6676,-3.6783,-3.6843,-3.66,-3.6783,-3.7424,-3.8525,-3.8092,-3.8035,-3.858,-3.8398,-3.8398,-3.858,-3.9156,-3.9558,-3.9782,-4.002,-4.007,-2.4984,-2.4209,-2.3731,-2.7569,-2.8584,-2.9122,-3.1034,-3.1467,-3.1467,-3.1482,-3.1467,-3.1273,-3.0657,-2.9968,-2.9271,-2.8727,-2.7993,-2.7515,-2.756,-2.6982,-2.6039,-2.485,-2.397,-2.2279,-1.915,-2.2387,-2.548,-2.7385,-2.7595,-2.7625,-2.7625,-2.7625,-2.7894,-2.8511,-2.8511,-2.9088,-3.0309,-3.0351,-3.0617,-3.119,-3.1207,-3.1613,-3.2357,-3.3829,-3.4912,-3.5622,-3.5622,-3.5622,-3.5622,-3.5622,-3.5622,-3.5622,-3.5622,-3.5622,-3.5622,-3.5622,-3.5622,-3.5622,-3.5622,-3.5622,-3.5622,-3.5622,-3.5622,-3.5622,-3.5622,-3.5622,-3.5622,-3.5622,-3.5622,-3.5791,-3.6552,-3.6738,-3.6941,-3.7702,-3.7872,-3.8075,-3.8802,-3.8954,-3.9174,-3.9868,-4.002,-4.0054,-4.0054,-4.007,-4.007,-4.007,-3.9437,-3.8908,-3.8908,-3.8302,-3.7863,-3.7806,-3.7806,-3.7456,-3.6676,-3.7338,-3.7456,-3.6661,-3.7322,-3.7748,-3.7806,-3.7806,-3.7806,-3.7806,-3.7084,-3.7024,-3.7806,-3.7863,-3.8262,-3.8962,-3.9731,-4.007,-2.2544,-2.3966,-2.6076,-2.737,-2.9138,-3.0731,-3.1317,-3.1482,-3.1482,-3.1482,-3.0196,-2.8961,-2.8629,-2.6683,-2.5282,-2.5812,-2.4665,-2.4447,-2.6564,-2.4563,-2.3601,-2.5631,-2.3051,-2.1633,-2.3011,-2.4034,-2.4358,-2.3714,-2.6093,-2.7625,-2.7625,-2.7625,-2.786,-2.8463,-2.8511,-2.8873,-2.9673,-2.9717,-2.9805,-2.9995,-3.1411,-3.1946,-3.1834,-3.4153,-3.5127,-3.4941,-3.5407,-3.5622,-3.5622,-3.5622,-3.5362,-3.4988,-3.5424,-3.5068,-3.4399,-3.527,-3.5316,-3.4988,-3.547,-3.5622,-3.5622,-3.5622,-3.5622,-3.5622,-3.5622,-3.5622,-3.5622,-3.5622,-3.5994,-3.6451,-3.6705,-3.7144,-3.7719,-3.8447,-3.8633,-3.8819,-3.9546,-3.9715,-3.9783,-4.002,-4.007,-3.9952,-3.9385,-3.9315,-3.9156,-3.8652,-3.8761,-3.8745,-3.8246,-3.7499,-3.7024,-3.7024,-3.66,-3.6133,-3.5894,-3.6133,-3.6133,-3.5894,-3.6133,-3.6477,-3.6964,-3.6538,-3.6477,-3.6964,-3.6737,-3.6722,-3.704,-3.8003,-3.8635,-3.8908,-3.9731,-4.007,-2.2597,-2.4646,-2.699,-2.7725,-2.9288,-3.0703,-3.1029,-3.1087,-3.1161,-3.1409,-3.0226,-2.8739,-2.7464,-2.5586,-2.4224,-2.4129,-2.3123,-2.3212,-2.5735,-2.3822,-2.2887,-2.4798,-2.2283,-2.1131,-2.3081,-2.3609,-2.3416,-2.2422,-2.4938,-2.6512,-2.6512,-2.6512,-2.7037,-2.8158,-2.8189,-2.8463,-2.9088,-2.9088,-2.9307,-2.979,-3.1118,-3.1816,-3.1902,-3.3707,-3.4129,-3.3597,-3.4473,-3.4612,-3.4226,-3.4695,-3.464,-3.4284,-3.4704,-3.435,-3.3684,-3.456,-3.4592,-3.4333,-3.5005,-3.5253,-3.5207,-3.4958,-3.5052,-3.5207,-3.4958,-3.5052,-3.5258,-3.5226,-3.561,-3.6189,-3.695,-3.7501,-3.8037,-3.8807,-3.8975,-3.9041,-3.9232,-3.9279,-3.9279,-3.9279,-3.9279,-3.9102,-3.858,-3.8525,-3.8246,-3.7499,-3.7774,-3.7889,-3.744,-3.6692,-3.6228,-3.6228,-3.5782,-3.5504,-3.5504,-3.5504,-3.5504,-3.5504,-3.5504,-3.5733,-3.6165,-3.5718,-3.5733,-3.6228,-3.6228,-3.6228,-3.6228,-3.7483,-3.8101,-3.8101,-3.8924,-3.9279,-2.4872,-2.5895,-2.6526,-2.8436,-2.9002,-2.9192,-3.0011,-3.0269,-3.0495,-3.1159,-3.1243,-3.0167,-2.6901,-2.6198,-2.5512,-2.3659,-2.3273,-2.3694,-2.5092,-2.4579,-2.3601,-2.2491,-2.1705,-2.0858,-1.9812,-2.1396,-2.2746,-2.3345,-2.4183,-2.4686,-2.4686,-2.4731,-2.563,-2.7565,-2.7625,-2.7845,-2.8463,-2.851,-2.9123,-3.0322,-3.0433,-3.1118,-3.2424,-3.2506,-3.2254,-3.1726,-3.3006,-3.288,-3.1807,-3.3088,-3.3582,-3.3531,-3.3582,-3.3531,-3.3479,-3.3582,-3.3582,-3.3633,-3.4284,-3.4528,-3.4431,-3.3786,-3.4037,-3.4447,-3.3818,-3.4086,-3.4595,-3.4651,-3.4665,-3.5161,-3.7229,-3.7765,-3.7978,-3.8706,-3.8854,-3.8635,-3.7921,-3.7822,-3.7822,-3.7822,-3.7764,-3.7748,-3.7748,-3.7706,-3.7397,-3.6676,-3.6554,-3.6554,-3.6554,-3.5943,-3.5504,-3.5504,-3.5504,-3.5504,-3.5504,-3.5504,-3.5504,-3.5504,-3.5504,-3.5504,-3.5504,-3.5504,-3.5504,-3.5504,-3.5504,-3.5504,-3.5504,-3.6228,-3.6615,-3.66,-3.7456,-3.7822,-2.2812,-2.4904,-2.7413,-2.7866,-2.8492,-2.9066,-2.9254,-2.9827,-2.9925,-2.8666,-2.7404,-2.5644,-2.2733,-2.0651,-1.9817,-2.1155,-2.0087,-2.0133,-2.3097,-2.1628,-2.0654,-2.1803,-2.1316,-2.1183,-2.212,-2.3188,-2.3284,-2.1965,-2.4436,-2.5995,-2.5995,-2.6564,-2.7051,-2.761,-2.7625,-2.766,-2.781,-2.8324,-2.8758,-2.9078,-3.0572,-3.117,-3.1043,-3.2625,-3.2974,-3.2394,-3.3232,-3.339,-3.3136,-3.3438,-3.3287,-3.2879,-3.3391,-3.2971,-3.2145,-3.3219,-3.3287,-3.2895,-3.3039,-3.3443,-3.3836,-3.3649,-3.3735,-3.3933,-3.4258,-3.4471,-3.4719,-3.5192,-3.5767,-3.6286,-3.6821,-3.7375,-3.7867,-3.8044,-3.8092,-3.8035,-3.7806,-3.7822,-3.7822,-3.7822,-3.7338,-3.6904,-3.6904,-3.6477,-3.6022,-3.5782,-3.5782,-3.5782,-3.5782,-3.5619,-3.5504,-3.5504,-3.5504,-3.5504,-3.5504,-3.5504,-3.5504,-3.5504,-3.5504,-3.5504,-3.5504,-3.5504,-3.5504,-3.5504,-3.5504,-3.5504,-3.5504,-3.6228,-3.6615,-3.66,-3.7456,-3.7822,-2.3851,-2.5396,-2.7162,-2.7162,-2.7537,-2.7773,-2.7426,-2.774,-2.7631,-2.6165,-2.5315,-2.3905,-2.1003,-1.9272,-1.8717,-1.9968,-1.9027,-1.9006,-2.1573,-2.0623,-2.0039,-2.1199,-2.0972,-2.1317,-2.2915,-2.3484,-2.3309,-2.2189,-2.3688,-2.4718,-2.4718,-2.5394,-2.6038,-2.6625,-2.724,-2.7724,-2.8023,-2.8412,-2.8876,-2.9445,-3.0585,-3.1031,-3.0971,-3.2127,-3.2191,-3.1335,-3.2253,-3.2376,-3.1877,-3.2469,-3.2461,-3.216,-3.2516,-3.2201,-3.1582,-3.2407,-3.2461,-3.212,-3.212,-3.2567,-3.3068,-3.2757,-3.3067,-3.3581,-3.3661,-3.41,-3.4628,-3.5023,-3.5447,-3.5848,-3.6499,-3.6979,-3.7263,-3.7263,-3.7263,-3.716,-3.6829,-3.6784,-3.6784,-3.6784,-3.6415,-3.6117,-3.6117,-3.5782,-3.5504,-3.5504,-3.5504,-3.5504,-3.5504,-3.5504,-3.5504,-3.5504,-3.5504,-3.5504,-3.5504,-3.5504,-3.5504,-3.5504,-3.5504,-3.5504,-3.5504,-3.5504,-3.5504,-3.5504,-3.5504,-3.5504,-3.5504,-3.5894,-3.6117,-3.6117,-3.66,-3.6784,-2.5652,-2.6221,-2.6533,-2.6533,-2.6533,-2.6333,-2.5563,-2.5269,-2.4945,-2.3972,-2.407,-2.3406,-2.0564,-1.9962,-1.9906,-1.976,-1.9237,-1.9128,-2.008,-2.0494,-2.0643,-2.0363,-2.058,-2.1317,-2.2915,-2.2937,-2.2899,-2.3053,-2.269,-2.2552,-2.2668,-2.3371,-2.4267,-2.5356,-2.6727,-2.7706,-2.8299,-2.8423,-2.9114,-3.0324,-3.0413,-3.0827,-3.1482,-3.1482,-3.0911,-2.9909,-3.1046,-3.0881,-2.9924,-3.1061,-3.1482,-3.1482,-3.1482,-3.1482,-3.1482,-3.1571,-3.1601,-3.1616,-3.1706,-3.2168,-3.2542,-3.1884,-3.2455,-3.3376,-3.29,-3.3605,-3.4511,-3.4585,-3.4607,-3.4916,-3.6121,-3.6446,-3.6446,-3.6446,-3.6446,-3.6275,-3.5619,-3.5504,-3.5504,-3.5504,-3.5504,-3.5504,-3.5504,-3.5504,-3.5504,-3.5504,-3.5504,-3.5504,-3.5504,-3.5504,-3.5504,-3.5504,-3.5504,-3.5504,-3.5504,-3.5504,-3.5504,-3.5504,-3.5504,-3.5504,-3.5504,-3.5504,-3.5504,-3.5504,-3.5504,-3.5504,-3.5504,-3.5504,-3.5504,-3.5504,-3.5504,-3.5504,-2.3472,-2.4841,-2.6533,-2.6533,-2.6533,-2.6445,-2.6278,-2.5727,-2.4726,-2.2921,-2.2114,-2.1307,-1.9949,-1.9304,-1.936,-2.042,-1.9607,-1.8511,-1.7593,-1.9346,-2.0215,-1.8794,-1.9836,-2.1317,-2.2915,-2.1895,-2.1656,-2.3025,-2.3027,-2.3257,-2.3944,-2.4655,-2.5175,-2.5384,-2.6106,-2.6469,-2.6637,-2.7586,-2.8559,-2.9508,-3.0089,-3.0719,-3.1482,-3.1482,-3.1347,-3.121,-3.1377,-3.1347,-3.121,-3.1377,-3.1482,-3.1482,-3.1482,-3.1482,-3.1541,-3.2138,-3.2347,-3.2422,-3.2961,-3.323,-3.3215,-3.2557,-3.2841,-3.3592,-3.4025,-3.4328,-3.4615,-3.5194,-3.5325,-3.5404,-3.5638,-3.5668,-3.5668,-3.5668,-3.5668,-3.5683,-3.5504,-3.5504,-3.5504,-3.5504,-3.5504,-3.5504,-3.5504,-3.5504,-3.5504,-3.5504,-3.5504,-3.5504,-3.5504,-3.5504,-3.5504,-3.5504,-3.5504,-3.5504,-3.5504,-3.5504,-3.5504,-3.5504,-3.5504,-3.5504,-3.5504,-3.5504,-3.5504,-3.5504,-3.5504,-3.5504,-3.5504,-3.5504,-3.5504,-3.5504,-3.5504,-3.5504,-2.2717,-2.3639,-2.4909,-2.4909,-2.5358,-2.5281,-2.3518,-2.3201,-2.2541,-1.9847,-1.9192,-1.8909,-1.8153,-1.7794,-1.8171,-1.9982,-1.9516,-1.8887,-1.8843,-1.9902,-2.0429,-1.9585,-2.024,-2.0978,-2.1782,-2.1129,-2.0991,-2.1794,-2.1845,-2.2394,-2.361,-2.3989,-2.4553,-2.5398,-2.5534,-2.5982,-2.6707,-2.7589,-2.838,-2.913,-2.9487,-2.9827,-3.0208,-3.0208,-3.045,-3.0837,-3.0389,-3.0147,-3.0028,-3.0617,-3.025,-2.942,-3.0746,-3.132,-3.1454,-3.2053,-3.2288,-3.2408,-3.3242,-3.3398,-3.3289,-3.3511,-3.3754,-3.4068,-3.4382,-3.4726,-3.5085,-3.5415,-3.5504,-3.5504,-3.5504,-3.5504,-3.5504,-3.5504,-3.5504,-3.5504,-3.5504,-3.5504,-3.5504,-3.5504,-3.5504,-3.5504,-3.5504,-3.5504,-3.5504,-3.5504,-3.5504,-3.5504,-3.5504,-3.5504,-3.5504,-3.5504,-3.5504,-3.5504,-3.5504,-3.5504,-3.5504,-3.5504,-3.5504,-3.5504,-3.5504,-3.5504,-3.5504,-3.5504,-3.5504,-3.5504,-3.5504,-3.5504,-3.5504,-3.5504,-3.5504,-3.5504,-2.2306,-2.2789,-2.3514,-2.3514,-2.4108,-2.3932,-2.1125,-2.0851,-2.0382,-1.7557,-1.6928,-1.6914,-1.6828,-1.6645,-1.7131,-1.9125,-1.8732,-1.8499,-1.9585,-1.9924,-2.0039,-2.0158,-2.0316,-2.0573,-2.0921,-2.0459,-2.0464,-2.1167,-2.1192,-2.1757,-2.3002,-2.3078,-2.37,-2.5084,-2.5031,-2.5612,-2.6844,-2.7377,-2.803,-2.8748,-2.8748,-2.8812,-2.9002,-2.9002,-2.938,-2.995,-2.9317,-2.8825,-2.8627,-2.9757,-2.9163,-2.7899,-3.0128,-3.0998,-3.1182,-3.1775,-3.2003,-3.2097,-3.2981,-3.3166,-3.3107,-3.3849,-3.4332,-3.4696,-3.4696,-3.507,-3.5504,-3.5504,-3.5504,-3.5504,-3.5504,-3.5504,-3.5504,-3.5504,-3.5504,-3.5504,-3.5504,-3.5504,-3.5504,-3.5504,-3.5504,-3.5504,-3.5504,-3.5294,-3.5213,-3.5213,-3.5213,-3.5213,-3.5213,-3.5213,-3.5279,-3.5504,-3.5504,-3.5504,-3.5504,-3.5504,-3.5504,-3.5504,-3.5504,-3.5504,-3.5504,-3.5504,-3.5504,-3.5504,-3.5504,-3.5504,-3.5504,-3.5504,-3.5504,-3.5504,-3.5504,-3.5504,-2.185,-2.2711,-2.3514,-2.3514,-2.3588,-2.3356,-2.2252,-2.1019,-1.9802,-1.8732,-1.7051,-1.6209,-1.7676,-1.7126,-1.6848,-1.8227,-1.6655,-1.5618,-1.6596,-1.7338,-1.793,-1.8318,-1.9053,-2.0139,-2.1643,-1.969,-1.9622,-2.2668,-2.2912,-2.2915,-2.3065,-2.3078,-2.3437,-2.4139,-2.457,-2.5113,-2.5762,-2.6346,-2.7043,-2.7802,-2.7802,-2.8247,-2.9002,-2.9002,-2.9066,-2.9129,-2.9002,-2.8692,-2.8288,-2.9384,-2.943,-2.8961,-3.0152,-3.0648,-3.0717,-3.1392,-3.1626,-3.1765,-3.2458,-3.2681,-3.2666,-3.2736,-3.3955,-3.5415,-3.5415,-3.5459,-3.5504,-3.5504,-3.5504,-3.5504,-3.5504,-3.5504,-3.5504,-3.5504,-3.5504,-3.5504,-3.5504,-3.5504,-3.5504,-3.5504,-3.5504,-3.5504,-3.5504,-3.4758,-3.4163,-3.4163,-3.4163,-3.4163,-3.4163,-3.4163,-3.4461,-3.5424,-3.5504,-3.5504,-3.5504,-3.5504,-3.5504,-3.5504,-3.5504,-3.5504,-3.5504,-3.5504,-3.5504,-3.5504,-3.5504,-3.5504,-3.5504,-3.5504,-3.5504,-3.5504,-3.5504,-3.5504,-1.9626,-2.0624,-2.1745,-2.1745,-2.2188,-2.2005,-1.992,-1.9476,-1.8908,-1.7043,-1.582,-1.5337,-1.6244,-1.587,-1.5793,-1.6976,-1.6395,-1.6435,-1.8222,-1.8748,-1.9285,-2.0284,-2.0448,-2.033,-2.0023,-1.8818,-1.8654,-1.9971,-2.0786,-2.166,-2.2797,-2.3393,-2.3753,-2.3991,-2.4833,-2.5385,-2.5598,-2.6163,-2.6658,-2.6973,-2.6973,-2.7162,-2.7484,-2.7484,-2.7921,-2.8678,-2.8183,-2.759,-2.7045,-2.8799,-2.8359,-2.6725,-2.9316,-3.0392,-3.0542,-3.1119,-3.132,-3.1505,-3.2297,-3.2249,-3.1815,-3.2393,-3.3101,-3.3754,-3.3754,-3.3754,-3.3754,-3.3754,-3.3754,-3.3754,-3.3754,-3.3754,-3.3754,-3.3754,-3.3754,-3.3754,-3.3754,-3.3754,-3.3754,-3.3754,-3.3754,-3.3754,-3.3754,-3.3394,-3.3171,-3.3171,-3.3171,-3.3171,-3.3171,-3.3171,-3.331,-3.3685,-3.4259,-3.4839,-3.5439,-3.492,-3.4839,-3.5439,-3.492,-3.4839,-3.5504,-3.4905,-3.4905,-3.5504,-3.4905,-3.4905,-3.5504,-3.5504,-3.5504,-3.5504,-3.5504,-3.5504,-1.7605,-1.8834,-2.0167,-2.0167,-2.0639,-2.0586,-1.809,-1.8025,-1.7882,-1.5694,-1.4996,-1.4912,-1.5203,-1.4731,-1.4715,-1.5918,-1.5864,-1.6417,-1.8512,-1.8857,-1.9368,-2.0439,-2.0499,-2.0118,-1.9327,-1.9219,-1.9144,-1.8848,-1.987,-2.1052,-2.2402,-2.3173,-2.3867,-2.4469,-2.5209,-2.5686,-2.585,-2.6319,-2.6533,-2.6533,-2.6533,-2.6445,-2.6214,-2.6553,-2.7138,-2.7867,-2.764,-2.71,-2.6622,-2.8508,-2.787,-2.608,-2.8975,-3.0112,-3.0238,-3.0628,-3.0758,-3.0908,-3.1549,-3.1328,-3.0895,-3.1549,-3.1756,-3.1756,-3.1756,-3.2177,-3.2593,-3.2593,-3.2593,-3.2593,-3.2593,-3.2593,-3.2593,-3.2593,-3.2593,-3.2593,-3.2593,-3.2593,-3.2593,-3.2593,-3.2593,-3.2593,-3.2593,-3.2393,-3.2177,-3.2177,-3.2177,-3.2177,-3.2177,-3.2177,-3.2321,-3.2593,-3.2961,-3.3533,-3.4558,-3.3959,-3.3891,-3.4624,-3.3973,-3.3891,-3.4624,-3.3959,-3.3891,-3.4624,-3.3973,-3.3959,-3.4624,-3.492,-3.5067,-3.5067,-3.5553,-3.5893,-1.6171,-1.77,-1.9036,-1.9036,-1.9146,-1.8965,-1.7666,-1.7181,-1.668,-1.5362,-1.5081,-1.5122,-1.5081,-1.4245,-1.3916,-1.5186,-1.4687,-1.459,-1.5949,-1.6496,-1.6888,-1.7366,-1.8134,-1.9152,-2.0446,-2.1333,-2.1531,-2.0631,-2.1392,-2.1887,-2.1909,-2.2436,-2.3607,-2.5507,-2.5586,-2.5875,-2.6508,-2.6533,-2.6533,-2.6533,-2.6533,-2.6163,-2.5649,-2.6766,-2.6979,-2.6596,-2.762,-2.7783,-2.7344,-2.8461,-2.8586,-2.8185,-2.934,-2.9792,-2.9792,-2.9792,-2.9792,-2.9792,-2.9869,-2.9792,-2.9792,-2.9869,-2.9869,-2.9869,-2.9869,-3.1132,-3.2593,-3.2593,-3.2593,-3.2593,-3.2593,-3.2593,-3.2593,-3.2593,-3.2593,-3.2593,-3.2593,-3.2593,-3.2593,-3.2593,-3.2593,-3.2593,-3.2593,-3.1815,-3.118,-3.118,-3.118,-3.118,-3.118,-3.118,-3.1609,-3.2536,-3.1742,-3.1609,-3.2522,-3.2593,-3.2593,-3.2593,-3.2593,-3.2593,-3.2593,-3.2593,-3.2593,-3.2593,-3.2593,-3.2593,-3.2593,-3.3533,-3.4027,-3.4041,-3.5718,-3.6806,-1.4907,-1.5794,-1.6668,-1.6668,-1.7153,-1.7232,-1.5992,-1.6065,-1.594,-1.4364,-1.3827,-1.3714,-1.4006,-1.2932,-1.2492,-1.4073,-1.3406,-1.3391,-1.5369,-1.573,-1.65,-1.8267,-1.9049,-1.9563,-1.9693,-1.916,-1.9076,-1.9643,-1.9667,-2.0208,-2.1493,-2.227,-2.2999,-2.363,-2.4622,-2.5272,-2.5441,-2.6164,-2.6533,-2.6533,-2.6841,-2.6515,-2.5649,-2.7155,-2.7544,-2.708,-2.8185,-2.8348,-2.7934,-2.9051,-2.8963,-2.821,-2.9352,-2.9792,-2.9792,-2.9792,-2.9792,-2.9792,-2.9792,-2.9792,-2.9792,-2.9792,-2.9792,-2.9792,-2.9792,-3.0216,-3.0709,-3.0709,-3.0709,-3.0709,-3.0709,-3.0709,-3.0709,-3.0709,-3.0709,-3.0709,-3.0709,-3.0709,-3.0709,-3.0709,-3.0709,-3.0709,-3.0709,-3.0419,-3.0203,-3.0203,-3.0203,-3.0203,-3.0203,-3.0203,-3.0355,-3.0633,-3.0419,-3.0921,-3.2464,-3.2033,-3.1888,-3.2522,-3.2033,-3.196,-3.2593,-3.196,-3.196,-3.2593,-3.196,-3.196,-3.2593,-3.289,-3.3241,-3.3661,-3.5281,-3.6428,-1.315,-1.4053,-1.4942,-1.4942,-1.5375,-1.5574,-1.4628,-1.4691,-1.4583,-1.3415,-1.3208,-1.332,-1.3327,-1.2638,-1.2266,-1.3152,-1.3119,-1.3332,-1.4211,-1.4636,-1.5488,-1.6998,-1.8239,-1.9068,-1.9212,-1.8827,-1.8916,-1.9707,-1.9504,-1.9859,-2.1056,-2.1618,-2.1903,-2.1903,-2.3587,-2.4409,-2.4409,-2.5063,-2.5455,-2.566,-2.5985,-2.5936,-2.5632,-2.7127,-2.7717,-2.7657,-2.8775,-2.9063,0.0,-2.9503,-2.9377,-2.8812,-2.9515,-2.9792,-2.9792,-2.9792,-2.9792,-2.9792,-2.9792,-2.9792,-2.9792,-2.9792,-2.9792,-2.9792,-2.9792,-2.9792,-2.9792,-2.9792,-2.9792,-2.9792,-2.9792,-2.9792,-2.9792,-2.9792,-2.9792,-2.9792,-2.9792,-2.9792,-2.9792,-2.9792,-2.9792,-2.9792,-2.9792,-2.9792,-2.9792,-2.9792,-2.9792,-2.9792,-2.9792,-2.9792,-2.9792,-2.9792,-2.9792,-3.0292,-3.1402,-3.0983,-3.0908,-3.1476,-3.0983,-3.0908,-3.1549,-3.0983,-3.0983,-3.1549,-3.0983,-3.1088,-3.1883,-3.2368,-3.3159,-3.4134,-3.5208,-3.6014,0.0,-1.2452,-1.3675,-1.3675,-1.3889,-1.3982,-1.357,-1.3248,0.0,-1.2476,-1.3145,-1.3623,-1.3083,-1.3066,-1.2956,-1.2473,-1.3477,-1.3878,-1.2743,-1.3461,-1.4131,-1.4032,-1.6105,-1.7935,-1.8731,-1.9709,-2.0401,-2.0479,-2.0489,-2.0489,-2.0566,-2.0566,-2.0566,-2.0566,-2.2339,-2.3294,-2.3368,-2.3441,-2.3738,-2.4089,-2.4189,-2.4641,-2.5474,-2.6759,-2.7545,-2.7939,-2.9137,-2.9702,-2.9702,-2.9702,-2.9714,-2.9792,-2.9792,-2.9792,-2.9792,-2.9792,-2.9792,-2.9792,-2.9792,-2.9792,-2.9792,-2.9792,-2.9792,-2.9792,-2.9792,-2.9792,-2.9792,-2.9792,-2.9792,-2.9792,-2.9792,-2.9792,-2.9792,-2.9792,-2.9792,-2.9792,-2.9792,-2.9792,-2.9792,-2.9792,-2.9792,-2.9792,-2.9792,-2.9792,-2.9792,-2.9792,-2.9792,-2.9792,-2.9792,-2.9792,-2.9792,-2.9792,-2.9792,-2.9792,-2.9792,-2.9792,-2.9792,-2.9792,-2.9792,-2.9792,-2.9792,-2.9792,-2.9792,-2.9792,-2.9829,-3.0118,-3.067,-3.2096,-3.3554,-3.5109,-3.5242,-3.5544,-1.0728,0.0,-1.1355,-1.1355,-1.1875,-1.2351,0.0,-1.2637,0.0,0.0,0.0,-1.293,-1.277,-1.2473,-1.2287,-1.2563,-1.256,-1.2494,-1.2374,-1.3704,-1.4325,-1.3427,-1.5716,-1.7191,-1.6739,-1.7544,-1.847,-1.9274,-1.9362,-1.9756,-2.0566,-2.0566,-2.0566,-2.0566,-2.1011,-2.1593,-2.2328,-2.3147,-2.3391,-2.3239,-2.4287,-2.4307,-2.3489,-2.6487,-2.7082,-2.5658,-2.7644,-2.8518,-2.8518,-2.8518,-2.9028,-2.9792,-2.9792,-2.9792,-2.9792,-2.9792,-2.9792,-2.9792,-2.9792,-2.9792,-2.9792,-2.9792,-2.9792,-2.9792,-2.9792,-2.9792,-2.9792,-2.9792,-2.9792,-2.9792,-2.9792,-2.9792,-2.9792,-2.9792,-2.9792,-2.9792,-2.9792,-2.9792,-2.9792,-2.9792,-2.9792,-2.9792,-2.9792,-2.9792,-2.9792,-2.9792,-2.9792,-2.9792,-2.9792,-2.9792,-2.9792,-2.9792,-2.9792,-2.9792,-2.9792,-2.9792,-2.9792,-2.9792,-2.9792,-2.9792,-2.9792,-2.9792,-2.9792,-2.9792,-3.0206,-3.0683,-3.121,-3.1984,-3.2549,-3.2937,-3.4241,-3.4927,-0.9977,-1.0301,-1.0692,-1.0895,-1.1127,-1.1304,-1.1582,0.0,0.0,0.0,0.0,0.0,-1.1546,-1.1619,-1.161,-1.1505,-1.174,-1.2017,-1.2445,-1.3063,-1.3207,-1.2603,-1.4232,-1.537,-1.5266,-1.6534,-1.7585,-1.8149,-1.823,-1.8709,-1.9844,-1.9844,-2.0079,-2.0566,-2.0566,-2.0867,-2.1375,-2.2116,-2.2208,-2.184,-2.3245,-2.3551,-2.3177,-2.5552,-2.624,-2.5596,-2.6393,-2.7023,-2.7325,-2.6941,-2.7364,-2.8303,-2.8303,-2.8303,-2.8303,-2.8303,-2.8303,-2.8383,-2.8858,-2.9365,-2.9792,-2.9792,-2.9792,-2.9792,-2.9792,-2.9792,-2.9792,-2.9792,-2.9792,-2.9792,-2.9792,-2.9792,-2.9792,-2.9792,-2.9792,-2.9792,-2.9792,-2.9792,-2.9792,-2.9792,-2.9792,-2.9792,-2.9792,-2.9792,-2.9792,-2.9792,-2.9792,-2.9792,-2.9792,-2.9792,-2.9792,-2.9792,-2.9792,-2.9792,-2.9792,-2.9792,-2.9792,-2.9792,-2.9792,-2.9905,-3.0168,-3.0168,-3.0281,-3.052,-3.1072,-3.1486,-3.1763,-3.234,-3.2604,-3.2616,-3.3572,-3.3953,-0.9075,-0.9652,-1.0374,-1.1215,-1.0989,-1.0715,-1.1289,0.0,0.0,0.0,0.0,0.0,0.0,-1.0775,-1.0947,-0.9997,-1.0741,-1.1653,-1.2126,-1.2052,-1.184,-1.1664,-1.2615,-1.3566,-1.4178,-1.5794,-1.6854,-1.7009,-1.709,-1.7577,-1.8718,-1.8877,-1.9441,-2.0323,-2.0479,-2.0596,-2.0664,-2.1045,-2.1045,-2.0684,-2.1924,-2.2768,-2.3293,-2.4367,-2.521,-2.5931,-2.5358,-2.5538,-2.6157,-2.5416,-2.5641,-2.6483,-2.6483,-2.6483,-2.6483,-2.6483,-2.6483,-2.6637,-2.7522,-2.8518,-2.93,-2.93,-2.93,-2.93,-2.93,-2.9378,-2.9534,-2.9534,-2.9702,-2.9792,-2.9792,-2.9792,-2.9792,-2.9792,-2.9792,-2.9792,-2.9792,-2.9792,-2.9792,-2.9792,-2.9792,-2.9792,-2.9792,-2.9792,-2.9792,-2.9792,-2.9792,-2.9829,-2.9905,-2.9917,-2.9942,-3.003,-3.003,-3.003,-3.003,-3.003,-3.003,-3.003,-2.9967,-3.0168,-3.0708,-3.0733,-3.0984,-3.1499,-3.1976,-3.2252,-3.234,-3.283,-3.3081,-3.3081,-3.3081,-3.3081,-0.8221,-0.8285,-0.8853,-1.0931,-1.0989,-1.0715,-1.1289,0.0,0.0,0.0,0.0,0.0,0.0,-1.0756,-1.0256,-0.8867,-0.9119,-0.9534,-0.9531,-1.0941,-1.1723,-1.0778,-1.2814,-1.4049,-1.343,-1.4117,-1.4977,-1.5869,-1.5944,-1.6437,-1.7496,-1.8479,-1.9116,-1.9283,-2.0167,-2.0752,-2.1123,-2.1201,-2.1201,-2.1143,-2.207,-2.2369,-2.2225,-2.3969,-2.4382,-2.3637,-2.4482,-2.4914,-2.5031,-2.4893,-2.55,-2.6483,-2.6483,-2.6483,-2.6483,-2.6483,-2.6483,-2.6554,-2.6719,-2.6883,-2.6976,-2.6976,-2.6976,-2.6976,-2.6976,-2.7614,-2.8347,-2.8347,-2.9028,-2.9792,-2.9792,-2.9792,-2.9792,-2.9792,-2.9792,-2.9792,-2.9792,-2.9792,-2.9792,-2.9792,-2.9792,-2.9792,-2.9792,-2.9792,-2.9792,-2.9792,-2.9792,-2.9967,-3.0432,-3.0495,-3.0658,-3.1097,-3.1148,-3.1148,-3.1148,-3.1148,-3.1148,-3.1148,-3.0733,-3.0721,-3.1248,-3.1273,-3.1524,-3.2077,-3.2177,-3.2453,-3.2943,-3.3031,-3.3081,-3.3081,-3.3081,-3.3081,-0.7307,-0.7632,-0.8388,-0.9888,-0.9713,-0.9406,-1.0313,0.0,0.0,0.0,0.0,0.0,0.0,-0.9418,-0.9334,-0.9047,-0.9761,-1.0294,-1.01,-1.0656,-1.0884,-1.0382,-1.1867,-1.2798,-1.2197,-1.3451,-1.4419,-1.4824,-1.481,-1.5304,-1.6355,-1.6919,-1.7488,-1.8069,-1.9405,-2.0292,-2.0623,-2.1467,-2.1699,-2.125,-2.2334,-2.251,-2.1914,-2.3238,-2.3637,-2.3105,-2.3223,-2.3442,-2.3846,-2.3372,-2.3791,-2.4638,-2.4638,-2.4638,-2.4638,-2.4638,-2.5052,-2.5546,-2.5546,-2.5964,-2.6483,-2.6483,-2.6483,-2.6483,-2.6483,-2.6883,-2.7209,-2.7209,-2.845,-2.9792,-2.9792,-2.9792,-2.9792,-2.9792,-2.9792,-2.9792,-2.9792,-2.9792,-2.9792,-2.9792,-2.9792,-2.9792,-2.9792,-2.9792,-2.9892,-3.0193,-3.0231,-3.0432,-3.0959,-3.1035,-3.1122,-3.1361,-3.1386,-3.1386,-3.1386,-3.1386,-3.1386,-3.1386,-3.1449,-3.1587,-3.1825,-3.2139,-3.2416,-3.2667,-3.2679,-3.2805,-3.3081,-3.3081,-3.3081,-3.3081,-3.3081,-3.3081,-0.6396,-0.6854,-0.755,-0.8285,0.0,-0.831,-0.9409,0.0,0.0,0.0,0.0,0.0,-0.8084,-0.8001,-0.8169,-0.8886,-0.9915,-1.0506,-1.0403,-1.0227,-1.0121,-1.0121,-1.1337,-1.198,-1.1701,-1.3414,-1.4429,-1.4208,-1.4128,-1.4496,-1.5296,-1.5538,-1.6147,-1.6966,-1.8719,-1.9851,-2.0331,-2.1807,-2.2236,-2.1689,-2.2666,-2.2803,-2.2197,-2.2842,-2.3135,-2.3105,-2.2461,-2.2549,-2.3086,-2.2441,-2.2559,-2.3135,-2.3135,-2.3135,-2.3135,-2.3135,-2.3627,-2.4372,-2.4372,-2.4967,-2.5724,-2.5724,-2.5724,-2.5724,-2.5724,-2.5891,-2.6141,-2.6141,-2.7545,-2.904,-2.904,-2.904,-2.9118,-2.9365,-2.9365,-2.9456,-2.9714,-2.9792,-2.9792,-2.9792,-2.9792,-2.9829,-2.9967,-2.998,-3.0168,-3.0721,-3.0796,-3.0984,-3.1512,-3.1587,-3.1637,-3.1763,-3.1788,-3.1788,-3.1788,-3.1788,-3.1788,-3.1788,-3.2177,-3.2416,-3.2416,-3.2842,-3.3081,-3.3081,-3.3081,-3.3081,-3.3081,-3.3081,-3.3081,-3.3081,-3.3081,-3.3081,-0.5491,-0.5557,-0.5635,-0.5965,0.0,0.0,-0.9409,0.0,0.0,0.0,0.0,0.0,-0.8286,-0.7404,-0.6862,-0.7488,-0.764,-0.7819,-0.8143,-0.9253,-1.0015,-1.0015,-1.1931,-1.3275,-1.3257,-1.3976,-1.4509,-1.4489,-1.4242,-1.4166,-1.425,-1.5137,-1.5838,-1.6222,-1.8428,-1.9904,-2.0661,-2.1864,-2.2676,-2.2998,-2.3096,-2.3105,-2.3057,-2.3105,-2.3135,-2.3135,-2.3076,-2.3086,-2.3135,-2.3076,-2.3086,-2.3135,-2.3135,-2.3135,-2.3135,-2.3135,-2.3135,-2.3222,-2.3222,-2.3309,-2.3299,-2.3299,-2.3299,-2.3299,-2.3299,-2.4049,-2.4957,-2.4957,-2.5797,-2.673,-2.673,-2.673,-2.6976,-2.8016,-2.8255,-2.8505,-2.9534,-2.9792,-2.9792,-2.9792,-2.9792,-2.9955,-3.047,-3.0557,-3.0733,-3.1248,-3.1336,-3.1537,-3.2077,-3.2152,-3.2365,-3.2905,-3.2955,-3.2955,-3.2955,-3.2955,-3.2955,-3.2955,-3.2993,-3.3018,-3.3018,-3.3056,-3.3081,-3.3081,-3.3081,-3.3081,-3.3081,-3.3081,-3.3081,-3.3081,-3.3081,-3.3081,-0.5428,-0.5428,-0.5545,-0.5966,0.0,0.0,0.0,0.0,0.0,0.0,-0.7224,0.0,-0.685,-0.6855,-0.6993,-0.7319,-0.7604,-0.7845,-0.8014,-0.8432,-0.8726,-0.8726,-1.0223,-1.1566,-1.2178,-1.3222,-1.3988,-1.4455,-1.4422,-1.4355,-1.4355,-1.4764,-1.5074,-1.5381,-1.7208,-1.8575,-1.9658,-2.0342,-2.1441,-2.3135,-2.3135,-2.3135,-2.3135,-2.3135,-2.3135,-2.3135,-2.3135,-2.3135,-2.3135,-2.3135,-2.3135,-2.3135,-2.3135,-2.3135,-2.3135,-2.3135,-2.3135,-2.3135,-2.3135,-2.3135,-2.3135,-2.3135,-2.3135,-2.3135,-2.3135,-2.3387,-2.3714,-2.3714,-2.4059,-2.4723,-2.6141,-2.6483,-2.6637,-2.7046,-2.7128,-2.7209,-2.7637,-2.7718,-2.7812,-2.8046,-2.8093,-2.8257,-2.8675,-2.8768,-2.9028,-2.9542,-2.9624,-2.9886,-3.0414,-3.0472,-3.082,-3.184,-3.2612,-3.3081,-3.3081,-3.3081,-3.3081,-3.3081,-3.3081,-3.3081,-3.3081,-3.3081,-3.3081,-3.3081,-3.3081,-3.3081,-3.3081,-3.3081,-3.3081,-3.3081,-3.3081,-3.3081,-0.5428,-0.5428,-0.5552,-0.5989,0.0,0.0,0.0,0.0,0.0,0.0,-0.6586,-0.6254,-0.6363,-0.6797,-0.7207,-0.7411,-0.7699,-0.7933,-0.8028,-0.8038,-0.8038,-0.8038,-0.9217,-1.0431,-1.1532,-1.2681,-1.3811,-1.4734,-1.471,-1.4663,-1.4663,-1.4663,-1.4796,-1.509,-1.6433,-1.7666,-1.8685,-1.9191,-2.0314,-2.1952,-2.1952,-2.2315,-2.3135,-2.3135,-2.3135,-2.3135,-2.3135,-2.3135,-2.3135,-2.3135,-2.3135,-2.3135,-2.3135,-2.3135,-2.3135,-2.3135,-2.3135,-2.3135,-2.3135,-2.3135,-2.3135,-2.3135,-2.3135,-2.3135,-2.3135,-2.3135,-2.3135,-2.3135,-2.3135,-2.3474,-2.5062,-2.54,-2.5557,-2.5891,-2.5975,-2.6058,-2.6389,-2.6595,-2.6797,-2.7048,-2.7227,-2.7398,-2.7887,-2.7977,-2.8144,-2.8735,-2.8813,-2.9026,-2.9362,-2.9407,-2.9863,-3.1033,-3.1601,-3.2064,-3.2426,-3.2513,-3.2513,-3.2513,-3.2513,-3.2698,-3.3068,-3.3081,-3.3081,-3.3081,-3.3081,-3.3081,-3.3081,-3.3081,-3.3081,-3.3081,-3.3081,-3.3081,-0.5432,-0.5428,-0.5433,-0.5728,-0.5583,0.0,0.0,0.0,0.0,-0.6576,-0.6932,-0.7136,-0.7136,-0.7139,-0.7244,-0.755,-0.76,-0.7706,-0.7997,-0.8038,-0.8038,-0.8038,-0.9217,-1.0485,-1.1755,-1.2786,-1.3969,-1.5299,-1.513,-1.4963,-1.497,-1.497,-1.5104,-1.5391,-1.6548,-1.7333,-1.7684,-1.8864,-1.9497,-1.9497,-1.9497,-2.0764,-2.3047,-2.3047,-2.3047,-2.3135,-2.3135,-2.3135,-2.3135,-2.3135,-2.3135,-2.3135,-2.3135,-2.3135,-2.3135,-2.3135,-2.3135,-2.3135,-2.3135,-2.3135,-2.3135,-2.3135,-2.3135,-2.3135,-2.3135,-2.3135,-2.3135,-2.3135,-2.3135,-2.3135,-2.3135,-2.3135,-2.3387,-2.4542,-2.4787,-2.5126,-2.6235,-2.678,-2.7115,-2.7115,-2.742,-2.791,-2.85,-2.8589,-2.8757,-2.9237,-2.9407,-2.9407,-2.9407,-2.9407,-2.9863,-3.1045,-3.0135,-2.9852,-3.1045,-3.1211,-3.1211,-3.1211,-3.1211,-3.1777,-3.3081,-3.3081,-3.3081,-3.3081,-3.3081,-3.3081,-3.3081,-3.3081,-3.3081,-3.3081,-3.3081,-3.3081,-0.5613,-0.5521,0.0,-0.5728,-0.5735,0.0,0.0,0.0,0.0,0.0,-0.677,-0.6831,-0.6831,-0.7177,-0.7492,-0.7587,-0.7773,-0.794,-0.8028,-0.8038,-0.8038,-0.8038,-0.8333,-0.9118,-1.0485,-1.0817,-1.1869,-1.3882,-1.389,-1.432,-1.5264,-1.5264,-1.5398,-1.5691,-1.606,-1.6657,-1.7684,-1.7217,-1.7755,-1.9497,-1.868,-1.9497,-2.1845,-2.1845,-2.2306,-2.3135,-2.3135,-2.3135,-2.3135,-2.3135,-2.3135,-2.3135,-2.3135,-2.3135,-2.3135,-2.3135,-2.3135,-2.3135,-2.3135,-2.3135,-2.3135,-2.3135,-2.3135,-2.3135,-2.3135,-2.3135,-2.3135,-2.3135,-2.3135,-2.3135,-2.3135,-2.3135,-2.3222,-2.3551,-2.3627,-2.3804,-2.4466,-2.4717,-2.5002,-2.5534,-2.5767,-2.6001,-2.6469,-2.655,-2.6591,-2.6723,-2.6839,-2.6839,-2.6839,-2.7579,-2.8226,-2.8588,-2.9131,-2.9498,-2.9863,-2.9943,-2.9943,-2.9943,-2.9943,-3.0866,-3.2982,-3.2239,-3.2152,-3.3068,-3.3081,-3.3081,-3.3081,-3.3081,-3.3081,-3.3081,-3.3081,-3.3081,-0.5752,-0.5671,0.0,-0.6054,-0.5976,-0.5833,-0.5956,0.0,0.0,0.0,-0.6875,-0.6895,-0.6956,-0.7316,-0.7617,-0.7675,-0.7882,-0.8038,-0.8038,-0.8038,-0.8038,-0.8038,-0.8038,-0.8531,-0.9899,-0.9998,-1.0821,-1.2702,-1.3265,-1.3932,-1.4797,-1.5278,-1.5651,-1.5818,-1.5832,-1.6197,-1.6943,-1.6204,-1.6567,-1.8033,-1.7304,-1.7948,-1.9852,-2.0395,-2.0944,-2.1676,-2.2217,-2.2677,-2.3135,-2.3135,-2.3135,-2.3135,-2.3135,-2.3135,-2.3135,-2.3135,-2.3135,-2.3135,-2.3135,-2.3135,-2.3135,-2.3135,-2.3135,-2.3135,-2.3135,-2.3135,-2.3135,-2.3135,-2.3135,-2.3135,-2.3135,-2.3271,-2.3398,-2.3398,-2.3398,-2.3516,-2.3945,-2.418,-2.4453,-2.4971,-2.5215,-2.542,-2.5693,-2.5742,-2.5742,-2.5742,-2.5742,-2.5742,-2.5742,-2.639,-2.703,-2.7589,-2.7767,-2.8121,-2.868,-2.868,-2.868,-2.868,-2.868,-2.959,-3.1512,-3.0866,-3.0866,-3.1601,-3.1601,-3.1601,-3.1601,-3.1601,-3.1877,-3.2339,-3.2339,-3.2612,-0.5837,0.0,0.0,-0.6502,-0.623,0.0,-0.6261,-0.6322,-0.6461,-0.7024,-0.7119,-0.7156,-0.7336,-0.7495,-0.7645,-0.7787,-0.794,-0.8038,-0.8038,-0.8038,-0.8038,-0.8038,-0.8038,-0.8432,-0.9706,-0.9805,-1.0391,-1.1653,-1.3006,-1.3776,-1.3872,-1.514,-1.5832,-1.5832,-1.5832,-1.5832,-1.5832,-1.5832,-1.5832,-1.5832,-1.5832,-1.6386,-1.7591,-1.8772,-1.9405,-1.9588,-2.0755,-2.1854,-2.2775,-2.2872,-2.2862,-2.2775,-2.2862,-2.295,-2.296,-2.3047,-2.3135,-2.3135,-2.3135,-2.3135,-2.3135,-2.3135,-2.3135,-2.3135,-2.3135,-2.3135,-2.3135,-2.3135,-2.3135,-2.3154,-2.3184,-2.3496,-2.3809,-2.3887,-2.3877,-2.3965,-2.4385,-2.4785,-2.5078,-2.5127,-2.5459,-2.5742,-2.5742,-2.5742,-2.5742,-2.5742,-2.5742,-2.5742,-2.5742,-2.5742,-2.611,-2.7305,-2.639,-2.6197,-2.7315,-2.741,-2.741,-2.741,-2.741,-2.7955,-2.9039,-2.9131,-2.9315,-2.9407,-2.9407,-2.9407,-2.9407,-2.9407,-3.0045,-3.1223,-3.1223,-3.1865,-0.6338,-0.6226,0.0,0.0,-0.6088,-0.6162,-0.6807,-0.6773,-0.6709,-0.7065,-0.6956,-0.6915,-0.7302,-0.7495,-0.7645,-0.7787,-0.794,-0.8038,-0.8038,-0.8038,-0.8038,-0.8038,-0.8038,-0.8137,-0.8432,-0.8432,-0.9019,-1.0293,-1.1556,-1.2813,-1.3878,-1.514,-1.5832,-1.5832,-1.5832,-1.5832,-1.5832,-1.5832,-1.5832,-1.5832,-1.5832,-1.592,-1.6292,-1.7498,-1.8596,-1.9588,-2.0773,-2.0863,-2.0314,-2.1302,-2.1123,-2.0404,-2.1302,-2.1667,-2.1756,-2.2775,-2.3135,-2.3135,-2.3135,-2.3135,-2.3135,-2.3135,-2.3135,-2.3135,-2.3135,-2.3135,-2.3135,-2.3135,-2.3135,-2.3213,-2.3555,-2.3721,-2.3955,-2.4629,-2.4531,-2.4404,-2.4834,-2.5,-2.5176,-2.5527,-2.5674,-2.5742,-2.5742,-2.5742,-2.5742,-2.5742,-2.5742,-2.5742,-2.5742,-2.5742,-2.583,-2.611,-2.583,-2.583,-2.611,-2.611,-2.611,-2.611,-2.611,-2.6197,-2.6476,-2.7494,-2.8402,-2.9407,-2.9407,-2.9407,-2.9407,-2.9407,-3.0045,-3.1223,-3.1223,-3.1865,-0.6118,0.0,0.0,-0.5045,0.0,-0.6575,-0.6724,-0.6771,-0.689,-0.7037,-0.7024,-0.6983,-0.7217,-0.7448,-0.7624,-0.7699,-0.7896,-0.8038,-0.8038,-0.8038,-0.8038,-0.8038,-0.8038,-0.8038,-0.8038,-0.8038,-0.8333,-0.9019,-1.0293,-1.1556,-1.2909,-1.4172,-1.5146,-1.5737,-1.5832,-1.5832,-1.5832,-1.5832,-1.5832,-1.5832,-1.5832,-1.5832,-1.5825,-1.648,-1.749,-1.8688,-1.933,-1.9505,-1.9588,-2.0215,-2.0034,-1.9579,-2.0215,-2.0755,-2.1391,-2.2031,-2.2589,-2.3135,-2.3135,-2.3135,-2.3135,-2.3135,-2.3135,-2.3135,-2.3135,-2.3135,-2.3135,-2.3135,-2.3291,-2.3506,-2.373,-2.4092,-2.4512,-2.4961,-2.4893,-2.4853,-2.5293,-2.5391,-2.5459,-2.5693,-2.5742,-2.5742,-2.5742,-2.5742,-2.5742,-2.5742,-2.5742,-2.5742,-2.5742,-2.5742,-2.5742,-2.5742,-2.5742,-2.5742,-2.5742,-2.5742,-2.5742,-2.5742,-2.5742,-2.5742,-2.5742,-2.639,-2.703,-2.7662,-2.7662,-2.7662,-2.7662,-2.7662,-2.8308,-2.9498,-2.9498,-3.0135,-0.5891,0.0,-0.5863,-0.3571,-0.4398,0.0,-0.5826,-0.6198,-0.6523,-0.6536,-0.6799,-0.7058,-0.7139,-0.739,-0.76,-0.76,-0.7848,-0.8038,-0.8038,-0.8038,-0.8038,-0.8038,-0.8038,-0.8038,-0.8038,-0.8038,-0.8038,-0.8038,-0.9217,-1.0583,-1.1848,-1.3199,-1.4459,-1.573,-1.5832,-1.5832,-1.5832,-1.5832,-1.5832,-1.5832,-1.5832,-1.5832,-1.5832,-1.5832,-1.6386,-1.7412,-1.7598,-1.8141,-1.8856,-1.9131,-1.9039,-1.8848,-1.9131,-1.9761,-2.0666,-2.0935,-2.1578,-2.2501,-2.2501,-2.2501,-2.2501,-2.2677,-2.2775,-2.2862,-2.3047,-2.3135,-2.3154,-2.3232,-2.3516,-2.3828,-2.3975,-2.4541,-2.5088,-2.5166,-2.5185,-2.5283,-2.5664,-2.5742,-2.5742,-2.5742,-2.5742,-2.5742,-2.5742,-2.5742,-2.5742,-2.5742,-2.5742,-2.5742,-2.5742,-2.5742,-2.5742,-2.5742,-2.5742,-2.5742,-2.5742,-2.5742,-2.5742,-2.5742,-2.5742,-2.5742,-2.5742,-2.5742,-2.5742,-2.5742,-2.5742,-2.5742,-2.5742,-2.5742,-2.638,-2.7589,-2.7589,-2.8269,0.0,0.0,-0.5948,0.0,-0.0757,-0.1448,-0.3517,-0.4037,-0.4025,-0.4092,-0.5725,-0.7074,-0.7143,-0.739,-0.76,-0.76,-0.7848,-0.8038,-0.8038,-0.8038,-0.8038,-0.8038,-0.8038,-0.8038,-0.8038,-0.8038,-0.8038,-0.8038,-0.9217,-1.0583,-1.1848,-1.3199,-1.4459,-1.573,-1.5832,-1.5832,-1.5832,-1.5832,-1.5832,-1.5832,-1.5832,-1.5832,-1.5832,-1.5832,-1.592,-1.6109,-1.7225,-1.7131,-1.6379,-1.7498,-1.7311,-1.6379,-1.7498,-1.8048,-1.8326,-1.9314,-1.9852,-1.9943,-1.9943,-1.9943,-2.0133,-2.1203,-2.1569,-2.1756,-2.2775,-2.3135,-2.3213,-2.3594,-2.374,-2.3955,-2.4707,-2.498,-2.5166,-2.5557,-2.5644,-2.5664,-2.5723,-2.5742,-2.5742,-2.5742,-2.5742,-2.5742,-2.5742,-2.5742,-2.5742,-2.5742,-2.5742,-2.5742,-2.5742,-2.5742,-2.5742,-2.5742,-2.5742,-2.5742,-2.5742,-2.5742,-2.5742,-2.5742,-2.5742,-2.5742,-2.5742,-2.5742,-2.5742,-2.5742,-2.5742,-2.5742,-2.5742,-2.5742,-2.638,-2.7589,-2.7589,-2.8441,-0.2735,-0.3119,-0.2583,0.0,0.0,-0.0255,-0.133,-0.2645,-0.3598,-0.3621,-0.5479,-0.7111,-0.7091,-0.74,-0.76,-0.76,-0.7848,-0.8038,-0.8038,-0.8038,-0.8038,-0.8038,-0.8038,-0.8038,-0.8038,-0.8038,-0.8038,-0.8038,-0.8528,-0.941,-1.0779,-1.2037,-1.3397,-1.4657,-1.5439,-1.5832,-1.5832,-1.5832,-1.5832,-1.5832,-1.5832,-1.5832,-1.5832,-1.5832,-1.5832,-1.5832,-1.6386,-1.6292,-1.5825,-1.6386,-1.6298,-1.5832,-1.6386,-1.7037,-1.7777,-1.8319,-1.8956,-1.9497,-1.9497,-1.9497,-1.9588,-2.0124,-2.0305,-2.0486,-2.1756,-2.1733,-2.149,-2.2427,-2.2426,-2.2351,-2.2699,-2.3551,-2.4375,-2.4562,-2.5128,-2.5742,-2.5742,-2.5742,-2.5742,-2.5742,-2.5742,-2.5742,-2.5742,-2.5742,-2.5742,-2.5742,-2.5742,-2.5742,-2.5742,-2.5742,-2.5742,-2.5742,-2.5742,-2.5742,-2.5742,-2.5742,-2.5742,-2.5742,-2.5742,-2.5742,-2.5742,-2.5742,-2.5742,-2.5742,-2.5742,-2.5742,-2.5742,-2.5742,-2.6014,-2.6582,-2.6835,-2.7329,0.0,0.0,0.0,0.0,0.0,0.0,0.0,-0.141,-0.2645,-0.266,-0.409,-0.5676,-0.6866,-0.731,-0.7567,-0.7662,-0.7875,-0.8038,-0.8038,-0.8038,-0.8038,-0.8038,-0.8038,-0.8038,-0.8038,-0.8038,-0.8038,-0.8038,-0.8038,-0.8627,-0.9899,-1.0877,-1.2042,-1.3392,-1.4657,-1.5343,-1.5343,-1.5635,-1.5832,-1.5832,-1.5832,-1.5832,-1.5832,-1.5832,-1.5832,-1.5832,-1.5832,-1.5832,-1.5832,-1.5832,-1.5832,-1.5832,-1.5832,-1.6386,-1.7225,-1.7225,-1.777,-1.858,-1.858,-1.858,-1.858,-1.8948,-1.9104,-1.9353,-2.0534,-2.0516,-2.0284,-2.1336,-2.1281,-2.1024,-2.1114,-2.2451,-2.3692,-2.3692,-2.4716,-2.5742,-2.5742,-2.5742,-2.5742,-2.5742,-2.5742,-2.5742,-2.5742,-2.5742,-2.5742,-2.5742,-2.5742,-2.5742,-2.5742,-2.5742,-2.5742,-2.5742,-2.5742,-2.5742,-2.5742,-2.5742,-2.5742,-2.5742,-2.5742,-2.5742,-2.5742,-2.5742,-2.5742,-2.5742,-2.5742,-2.5742,-2.5742,-2.585,-2.5908,-2.5918,-2.6348,-2.6611,0.0,0.0,0.0,0.0,0.0,0.0,0.0,-0.0087,-0.0176,-0.0183,-0.0281,-0.171,-0.63,-0.7263,-0.7437,-0.7634,-0.7848,-0.8038,-0.8038,-0.8038,-0.8038,-0.8038,-0.8038,-0.8038,-0.8038,-0.8038,-0.8038,-0.8038,-0.8038,-0.8627,-0.9899,-1.0096,-1.0681,-1.1945,-1.3295,-1.3974,-1.3974,-1.5242,-1.5832,-1.5832,-1.5832,-1.5832,-1.5832,-1.5832,-1.5832,-1.5832,-1.5832,-1.5832,-1.5832,-1.5832,-1.5832,-1.5832,-1.5832,-1.5825,-1.592,-1.592,-1.592,-1.6015,-1.6015,-1.6015,-1.6197,-1.7404,-1.7988,-1.8426,-1.9625,-2.0153,-2.0426,-2.0949,-2.0974,-2.1081,-2.1527,-2.265,-2.3692,-2.3692,-2.4716,-2.5742,-2.5742,-2.5742,-2.5742,-2.5742,-2.5742,-2.5742,-2.5742,-2.5742,-2.5742,-2.5742,-2.5742,-2.5742,-2.5742,-2.5742,-2.5742,-2.5742,-2.5742,-2.5742,-2.5742,-2.5742,-2.5742,-2.5742,-2.5742,-2.5742,-2.5742,-2.5742,-2.5742,-2.5742,-2.5742,-2.5742,-2.5742,-2.6152,-2.6357,-2.6367,-2.6787,-2.7207,0.0,0.0,0.0,0.0,0.0,0.0,0.0,0.0,0.0,0.0,0.0,-0.0484,-0.2198,-0.3866,-0.5574,-0.7446,-0.7868,-0.7955,-0.8041,-0.8038,-0.8038,-0.8038,-0.8038,-0.8038,-0.8038,-0.8038,-0.8038,-0.8038,-0.7773,-0.7924,-0.8711,-0.9279,-0.991,-1.0667,-1.2813,-1.4268,-1.514,-1.5534,-1.5832,-1.5832,-1.5832,-1.5832,-1.5832,-1.5832,-1.5832,-1.5832,-1.5832,-1.5832,-1.5832,-1.5832,-1.5832,-1.5832,-1.5832,-1.5832,-1.5832,-1.5832,-1.5832,-1.5832,-1.5832,-1.5832,-1.5953,-1.6621,-1.6849,-1.7161,-1.8595,-1.8701,-1.8491,-1.9498,-1.9284,-1.8868,-1.8977,-2.0025,-2.1253,-2.2156,-2.2767,-2.3176,-2.3176,-2.451,-2.5742,-2.5742,-2.5742,-2.5742,-2.5742,-2.5742,-2.5742,-2.5742,-2.5742,-2.5742,-2.5742,-2.5742,-2.5742,-2.5742,-2.5742,-2.5742,-2.5742,-2.5742,-2.5742,-2.5742,-2.5996,-2.6162,-2.6162,-2.6416,-2.6553,-2.6553,-2.6553,-2.6426,-2.6162,-2.6309,-2.6523,-2.6797,-2.7226,-2.7519,0.0,0.0,0.0,0.0,0.0,0.0,0.0,0.0,0.0,0.0,0.0,0.0,0.0,-0.1275,-0.3258,-0.6023,-0.7301,-0.7965,-0.8041,-0.8038,-0.8038,-0.8038,-0.8038,-0.8038,-0.8038,-0.8038,-0.8038,-0.8038,-0.7763,-0.7726,-0.8024,-0.8512,-0.9238,-0.9985,-1.2134,-1.3878,-1.5146,-1.5635,-1.5832,-1.5832,-1.5832,-1.5832,-1.5832,-1.5832,-1.5832,-1.5832,-1.5832,-1.5832,-1.5832,-1.5832,-1.5832,-1.5832,-1.5832,-1.5832,-1.5832,-1.5832,-1.5832,-1.5832,-1.5832,-1.5892,-1.6012,-1.6213,-1.6406,-1.6799,-1.7775,-1.7761,-1.7495,-1.8306,-1.804,-1.7582,-1.7582,-1.8603,-1.993,-2.1347,-2.1752,-2.1752,-2.1752,-2.3076,-2.4402,-2.4402,-2.4716,-2.502,-2.502,-2.543,-2.5781,-2.5937,-2.583,-2.5791,-2.5937,-2.583,-2.5742,-2.5742,-2.5869,-2.5957,-2.5957,-2.6084,-2.6172,-2.6172,-2.6435,-2.6602,-2.6602,-2.6865,-2.7012,-2.7012,-2.7012,-2.6953,-2.6816,-2.6816,-2.6963,-2.7246,-2.7676,-2.7881,0.0,0.0,0.0,0.0,0.0,0.0,0.0,0.0,0.0,0.0,0.0,0.0,0.0,0.0,-0.0806,-0.3414,-0.6239,-0.7965,-0.8045,-0.8041,-0.8041,-0.8041,-0.8038,-0.8038,-0.8038,-0.8038,-0.8038,-0.8038,-0.8028,-0.8024,-0.8038,-0.8038,-0.8627,-0.9998,-1.1165,-1.2528,-1.3872,-1.5146,-1.573,-1.5832,-1.5832,-1.5832,-1.5832,-1.5832,-1.5832,-1.5832,-1.5832,-1.5832,-1.5832,-1.5832,-1.5832,-1.5832,-1.5832,-1.5832,-1.5832,-1.5832,-1.5832,-1.5832,-1.5838,-1.6032,-1.6279,-1.6293,-1.6687,-1.7148,-1.7161,-1.7361,-1.7582,-1.7582,-1.7582,-1.7582,-1.7582,-1.861,-1.993,-2.1245,-2.155,-2.155,-2.155,-2.1558,-2.1558,-2.1651,-2.2776,-2.371,-2.371,-2.4843,-2.582,-2.6348,-2.6045,-2.5928,-2.6357,-2.6035,-2.5771,-2.5771,-2.6162,-2.6406,-2.6406,-2.6787,-2.7012,-2.7012,-2.7021,-2.7031,-2.7031,-2.7041,-2.7051,-2.7051,-2.7051,-2.7266,-2.7685,-2.7676,-2.7676,-2.7695,-2.8105,-2.8291,0.0,0.0,0.0,0.0,0.0,0.0,0.0,0.0,0.0,0.0,0.0,0.0,0.0,0.0,-0.0202,-0.1005,-0.4941,-0.8002,-0.7979,-0.7969,-0.7962,-0.7962,-0.8048,-0.8038,-0.8038,-0.8038,-0.8038,-0.8038,-0.774,-0.7699,-0.8021,-0.8038,-0.8627,-0.9998,-1.0391,-1.1648,-1.3878,-1.4268,-1.4854,-1.5832,-1.5832,-1.5832,-1.5832,-1.5832,-1.5832,-1.5832,-1.5832,-1.5832,-1.5832,-1.5832,-1.5832,-1.5832,-1.5832,-1.5832,-1.5832,-1.5832,-1.5832,-1.5858,-1.6079,-1.6206,-1.6339,-1.6767,-1.7021,-1.7188,-1.7402,-1.7515,-1.7582,-1.7582,-1.7582,-1.7582,-1.7582,-1.7891,-1.8297,-1.8603,-1.87,-1.87,-1.87,-1.8893,-1.9506,-2.1395,-2.218,-2.2886,-2.3904,-2.4665,-2.5433,-2.6613,-2.6738,-2.6709,-2.6826,-2.6738,-2.666,-2.666,-2.6768,-2.6846,-2.6846,-2.6943,-2.7012,-2.7012,-2.7314,-2.749,-2.749,-2.7783,-2.7939,-2.7939,-2.7939,-2.7998,-2.8115,-2.7812,-2.7822,-2.8125,-2.8232,-2.8291,0.0,0.0,0.0,0.0,0.0,0.0,0.0,0.0,0.0,0.0,0.0,0.0,0.0,0.0,0.0,0.0,-0.266,-0.5059,-0.6134,-0.6648,-0.7153,-0.7872,-0.7952,-0.8038,-0.8038,-0.8038,-0.8038,-0.8038,-0.7797,-0.7763,-0.8024,-0.8038,-0.8333,-0.9118,-0.9706,-1.0774,-1.2226,-1.2813,-1.3397,-1.4178,-1.4178,-1.4465,-1.5045,-1.5045,-1.5337,-1.5832,-1.5832,-1.5832,-1.5832,-1.5832,-1.5832,-1.5832,-1.5832,-1.5832,-1.5832,-1.5832,-1.5905,-1.6039,-1.6213,-1.6433,-1.6693,-1.7041,-1.7235,-1.7361,-1.7528,-1.7582,-1.7582,-1.7582,-1.7582,-1.7582,-1.7582,-1.7582,-1.7582,-1.7582,-1.7582,-1.7615,-1.7749,-1.7916,-1.8406,-1.9874,-2.0829,-2.1698,-2.2523,-2.3338,-2.4184,-2.5213,-2.52,-2.5466,-2.6277,-2.6154,-2.6368,-2.691,-2.7178,-2.7285,-2.7285,-2.7451,-2.7549,-2.7549,-2.7783,-2.793,-2.793,-2.8164,-2.8291,-2.8291,-2.8291,-2.8291,-2.8291,-2.8047,-2.8057,-2.8291,-2.8291,-2.8291,0.0,0.0,0.0,0.0,0.0,0.0,0.0,0.0,0.0,0.0,0.0,0.0,0.0,0.0,0.0,0.0,0.0,-0.0865,-0.3179,-0.4506,-0.5919,-0.7826,-0.8035,-0.8038,-0.8038,-0.8038,-0.8038,-0.8038,-0.8038,-0.8038,-0.8038,-0.8038,-0.8038,-0.8038,-0.9118,-0.9805,-0.9998,-1.1165,-1.1755,-1.1945,-1.1945,-1.2522,-1.3686,-1.3872,-1.4561,-1.5629,-1.573,-1.5832,-1.5832,-1.5832,-1.5832,-1.5832,-1.5832,-1.5832,-1.5832,-1.5865,-1.6046,-1.6286,-1.6346,-1.6714,-1.7154,-1.7188,-1.7375,-1.7582,-1.7582,-1.7582,-1.7582,-1.7582,-1.7582,-1.7582,-1.7582,-1.7582,-1.7582,-1.7582,-1.7609,-1.7709,-1.7989,-1.8096,-1.8143,-1.8143,-1.9301,-2.0339,-2.0557,-2.155,-2.2549,-2.3193,-2.2855,-2.3302,-2.5031,-2.5101,-2.5436,-2.6727,-2.7396,-2.7734,-2.7734,-2.8076,-2.8291,-2.8291,-2.8291,-2.8291,-2.8291,-2.8291,-2.8291,-2.8291,-2.8291,-2.8291,-2.8291,-2.8291,-2.8291,-2.8291,-2.8291,-2.8291,0.0,0.0,0.0,0.0,0.0,0.0,0.0,0.0,0.0,0.0,0.0,0.0,0.0,0.0,0.0,0.0,0.0,-0.0188,-0.0672,-0.2761,-0.5172,-0.7667,-0.8017,-0.8038,-0.8038,-0.8038,-0.8038,-0.8038,-0.8038,-0.8038,-0.8038,-0.8038,-0.8038,-0.8038,-0.8237,-0.892,-0.9998,-1.0293,-1.0877,-1.1945,-1.1945,-1.2042,-1.2334,-1.3392,-1.407,-1.4364,-1.5343,-1.5832,-1.5832,-1.5832,-1.5832,-1.5832,-1.5832,-1.5832,-1.5858,-1.6099,-1.6226,-1.6339,-1.6814,-1.7054,-1.7188,-1.7422,-1.7535,-1.7582,-1.7582,-1.7582,-1.7582,-1.7582,-1.7582,-1.7582,-1.7582,-1.7582,-1.7582,-1.7582,-1.7776,-1.7969,-1.8029,-1.8417,-1.8751,-1.8751,-1.9016,-1.9591,-2.0781,-2.1435,-2.2193,-2.3484,-2.3546,-2.364,-2.4038,-2.5095,-2.5928,-2.6252,-2.7447,-2.8174,-2.8174,-2.8242,-2.8291,-2.8291,-2.8291,-2.8291,-2.8291,-2.8291,-2.8291,-2.8291,-2.8291,-2.8291,-2.8291,-2.8291,-2.8291,-2.8291,-2.8291,-2.8291,0.0,0.0,0.0,0.0,0.0,0.0,0.0,0.0,0.0,0.0,0.0,0.0,0.0,0.0,0.0,0.0,0.0,0.0,0.0,-0.1148,-0.3457,-0.7482,-0.7984,-0.7952,-0.8041,-0.8038,-0.8038,-0.8038,-0.8038,-0.8038,-0.8038,-0.8038,-0.8038,-0.8038,-0.8038,-0.8333,-0.9019,-0.9019,-0.9312,-0.9998,-0.9998,-1.0288,-1.0974,-1.1648,-1.2716,-1.3974,-1.4561,-1.5242,-1.5832,-1.5832,-1.5832,-1.5832,-1.5832,-1.5919,-1.6072,-1.6219,-1.646,-1.6754,-1.715,-1.7241,-1.7388,-1.7535,-1.7582,-1.7582,-1.7582,-1.7582,-1.7582,-1.7582,-1.7582,-1.7582,-1.7582,-1.7695,-1.7816,-1.7816,-1.805,-1.831,-1.845,-1.8718,-1.8965,-1.9118,-1.9145,-1.9361,-2.0132,-2.0373,-2.0702,-2.1487,-2.1601,-2.182,-2.2597,-2.3375,-2.448,-2.5936,-2.6717,-2.7501,-2.8291,-2.8291,-2.8291,-2.8291,-2.8291,-2.8291,-2.8291,-2.8291,-2.8291,-2.8291,-2.8291,-2.8291,-2.8291,-2.8291,-2.8291,-2.8291,-2.8291,-2.8291,0.0,0.0,0.0,0.0,0.0,0.0,0.0,0.0,0.0,0.0,0.0,0.0,0.0,0.0,0.0,0.0,0.0,0.0,0.0,0.0,-0.1922,-0.7233,-0.7875,-0.7896,-0.7875,-0.7923,-0.7977,-0.8035,-0.8038,-0.8038,-0.8038,-0.8038,-0.8038,-0.8038,-0.8038,-0.8038,-0.8038,-0.8038,-0.8038,-0.8038,-0.8038,-0.8531,-0.9608,-0.9899,-1.1165,-1.3199,-1.368,-1.4364,-1.5051,-1.5343,-1.5439,-1.5439,-1.573,-1.6012,-1.6279,-1.6333,-1.6693,-1.7257,-1.7215,-1.7388,-1.7582,-1.7582,-1.7582,-1.7582,-1.7582,-1.7582,-1.7582,-1.7582,-1.7622,-1.7669,-1.7669,-1.7903,-1.813,-1.813,-1.8357,-1.8637,-1.8871,-1.8965,-1.9078,-1.9319,-1.9366,-1.9366,-1.9366,-1.9366,-1.9366,-1.9366,-1.9366,-1.9809,-2.1031,-2.1472,-2.2589,-2.4931,-2.5489,-2.6273,-2.7726,-2.7843,-2.796,-2.8291,-2.8291,-2.8291,-2.8291,-2.8291,-2.8291,-2.8291,-2.8291,-2.8291,-2.8291,-2.8291,-2.8291,-2.8291,-2.8291,-2.8291,0.0,0.0,0.0,0.0,0.0,0.0,0.0,0.0,0.0,0.0,0.0,0.0,0.0,0.0,0.0,0.0,0.0,0.0,0.0,0.0,-0.1841,-0.685,-0.7496,-0.7462,-0.7462,-0.7598,-0.7756,-0.8021,-0.8038,-0.8038,-0.8038,-0.8038,-0.8038,-0.8038,-0.8038,-0.8038,-0.8038,-0.8038,-0.8038,-0.8038,-0.8038,-0.8038,-0.8233,-0.941,-1.019,-1.0583,-1.2904,-1.3295,-1.2431,-1.359,-1.4166,-1.4262,-1.5343,-1.6012,-1.6306,-1.656,-1.6867,-1.7188,-1.7442,-1.7555,-1.7582,-1.7582,-1.7582,-1.7582,-1.7582,-1.7582,-1.7582,-1.7582,-1.7782,-1.7989,-1.7989,-1.8217,-1.8437,-1.8437,-1.8664,-1.8885,-1.8918,-1.9132,-1.9325,-1.9359,-1.9366,-1.9366,-1.9366,-1.9366,-1.9366,-1.9366,-1.9366,-1.9482,-1.9591,-2.0809,-2.1692,-2.2032,-2.3263,-2.471,-2.6264,-2.6381,-2.6943,-2.8184,-2.8291,-2.8291,-2.8291,-2.8291,-2.8291,-2.8291,-2.8291,-2.8291,-2.8291,-2.8291,-2.8291,-2.8291,-2.8291,-2.8291,0.0,0.0,0.0,0.0,0.0,0.0,0.0,0.0,0.0,0.0,0.0,0.0,0.0,0.0,0.0,0.0,0.0,0.0,0.0,0.0,-0.0761,-0.287,-0.5419,-0.7171,-0.7417,-0.737,-0.7458,-0.776,-0.7784,-0.7784,-0.7784,-0.7946,-0.8038,-0.8038,-0.8038,-0.8038,-0.8038,-0.8038,-0.8038,-0.8038,-0.8038,-0.8038,-0.8041,-0.8627,-0.9312,-1.0096,-1.1161,-1.1745,-1.1955,-1.2665,-1.2915,-1.303,-1.4469,-1.5604,-1.656,-1.6854,-1.7148,-1.7415,-1.7542,-1.7582,-1.7582,-1.7582,-1.7582,-1.7582,-1.7582,-1.7702,-1.7836,-1.7849,-1.807,-1.8303,-1.8303,-1.8524,-1.8744,-1.8744,-1.8965,-1.9185,-1.9185,-1.9279,-1.9366,-1.9366,-1.9366,-1.9366,-1.9366,-1.9366,-1.9366,-1.9366,-1.9366,-1.9366,-1.9366,-1.9924,-2.0702,-2.1472,-2.2145,-2.3151,-2.4599,-2.5599,-2.5936,-2.5717,-2.6499,-2.7051,-2.7051,-2.7843,-2.8291,-2.8291,-2.8291,-2.8291,-2.8291,-2.8291,-2.8291,-2.8291,-2.8291,-2.8291,0.0,0.0,0.0,0.0,0.0,0.0,0.0,0.0,0.0,0.0,0.0,0.0,0.0,0.0,0.0,0.0,0.0,0.0,0.0,0.0,0.0,0.0,-0.2886,-0.5549,-0.7034,-0.7078,-0.7165,-0.7516,-0.7577,-0.76,-0.76,-0.7879,-0.8038,-0.8038,-0.8038,-0.8038,-0.8038,-0.8038,-0.8038,-0.8038,-0.8038,-0.8038,-0.8038,-0.8038,-0.8531,-0.9509,-0.9801,-1.0323,-1.0973,-1.1406,-1.1702,-1.1875,-1.3012,-1.4344,-1.5713,-1.6856,-1.7335,-1.7582,-1.7582,-1.7582,-1.7582,-1.7582,-1.7582,-1.7595,-1.7682,-1.7849,-1.8036,-1.8143,-1.8384,-1.8611,-1.8611,-1.8824,-1.9045,-1.9045,-1.9212,-1.9366,-1.9366,-1.9366,-1.9366,-1.9366,-1.9366,-1.9366,-1.9366,-1.9366,-1.9366,-1.9366,-1.9366,-1.9366,-1.9366,-1.9366,-1.9809,-2.0923,-2.1031,-2.1586,-2.3039,-2.4258,-2.4599,-2.3822,-2.482,-2.5709,-2.6045,-2.7159,-2.7843,-2.8291,-2.8291,-2.8291,-2.8291,-2.8291,-2.8291,-2.8291,-2.8291,-2.8291,0.0,0.0,0.0,0.0,0.0,0.0,0.0,0.0,0.0,0.0,0.0,0.0,0.0,0.0,0.0,0.0,0.0,0.0,0.0,0.0,0.0,0.0,-0.0164,-0.1947,-0.6248,-0.6731,-0.6956,-0.7366,-0.7516,-0.76,-0.76,-0.7879,-0.8038,-0.8038,-0.8038,-0.8038,-0.8038,-0.8038,-0.8038,-0.8038,-0.8038,-0.8038,-0.8038,-0.8038,-0.8038,-0.8137,-0.941,-0.9414,-0.8463,-0.9762,-1.037,-1.0452,-1.0847,-1.1764,-1.3236,-1.6091,-1.7335,-1.7582,-1.7582,-1.7582,-1.7582,-1.7582,-1.7582,-1.7642,-1.7943,-1.8023,-1.8083,-1.839,-1.8684,-1.8911,-1.8911,-1.9132,-1.9352,-1.9352,-1.9359,-1.9366,-1.9366,-1.9366,-1.9366,-1.9366,-1.9366,-1.9366,-1.9366,-1.9366,-1.9366,-1.9366,-1.9366,-1.9366,-1.9366,-1.9366,-1.9366,-1.9482,-1.9482,-2.0033,-2.1586,-2.1699,-2.2371,-2.371,-2.3822,-2.4488,-2.6045,-2.6155,-2.6825,-2.8291,-2.8291,-2.8291,-2.8291,-2.8291,-2.8291,-2.8291,-2.8291,-2.8291,0.0,0.0,0.0,0.0,0.0,0.0,0.0,0.0,0.0,0.0,0.0,0.0,0.0,0.0,0.0,0.0,0.0,0.0,0.0,0.0,0.0,0.0,0.0,-0.0595,-0.2113,-0.5038,-0.6897,-0.7224,-0.7275,-0.7255,-0.716,-0.7621,-0.7845,-0.775,-0.7936,-0.8038,-0.8038,-0.8038,-0.8038,-0.8038,-0.8038,-0.8038,-0.8038,-0.8038,-0.8038,-0.8045,-0.8646,-0.8624,-0.8388,-0.8992,-0.9213,-0.9385,-1.0617,-1.1333,-1.2084,-1.497,-1.6094,-1.628,-1.7252,-1.7582,-1.7615,-1.7822,-1.7889,-1.7943,-1.825,-1.847,-1.8637,-1.8744,-1.8991,-1.9219,-1.9219,-1.9292,-1.9366,-1.9366,-1.9366,-1.9366,-1.9366,-1.9366,-1.9366,-1.9366,-1.9366,-1.9366,-1.9366,-1.9366,-1.9366,-1.9366,-1.9366,-1.9366,-1.9366,-1.9366,-1.9366,-1.9366,-1.9366,-1.9591,-2.0148,-2.0148,-2.0816,-2.2258,-2.2363,-2.2589,-2.3143,-2.5041,-2.6372,-2.6825,-2.8112,-2.8711,-2.8711,-2.8994,-2.9141,-2.9141,-2.9141,-2.8984,0.0,0.0,0.0,0.0,0.0,0.0,0.0,0.0,0.0,0.0,0.0,0.0,0.0,0.0,0.0,0.0,0.0,0.0,0.0,0.0,0.0,0.0,0.0,-0.0346,-0.1235,-0.3126,-0.5109,-0.69,-0.7037,-0.7017,-0.701,-0.7516,-0.777,-0.7678,-0.7913,-0.8038,-0.8038,-0.8038,-0.8038,-0.8038,-0.8038,-0.8038,-0.8038,-0.8038,-0.8069,-0.8126,-0.8228,-0.833,-0.8442,-0.8632,-0.8743,-0.8907,-0.9874,-1.0351,-1.0676,-1.3588,-1.4663,-1.4776,-1.5743,-1.6129,-1.6239,-1.6978,-1.7329,-1.7469,-1.8328,-1.8778,-1.8945,-1.9052,-1.9219,-1.9366,-1.9366,-1.9366,-1.9366,-1.9366,-1.9366,-1.9366,-1.9366,-1.9366,-1.9366,-1.9366,-1.9366,-1.9366,-1.9366,-1.9366,-1.9366,-1.9366,-1.9366,-1.9366,-1.9366,-1.9366,-1.9366,-1.9366,-1.9366,-1.9366,-1.9366,-1.9366,-1.9815,-2.0809,-2.0809,-2.1031,-2.1586,-2.3479,-2.5041,-2.6045,-2.7453,-2.8358,-2.8916,-2.9355,-2.957,-2.957,-2.957,-2.9502]}]]